Wetterdaten: Samstag, 27.02.2016
Datum Zeit Auen-Temp. Temp gefhlt Luftfeuchte Luftdruck Regen Wind Richtung Richtung Sonnenschein Taupunkt Windben
27.02.2016 00:00 -6,3 C -6,5 C 82 % 1005,2 hPa 0,0 mm 0,0 km/h (0 Bft) S 180 0 min -8,9 C 0,0 km/h (0 Bft)
27.02.2016 00:01 -6,3 C -6,5 C 82 % 1005,2 hPa 0,0 mm 0,0 km/h (0 Bft) S 180 0 min -8,9 C 0,0 km/h (0 Bft)
27.02.2016 00:02 -6,3 C -6,5 C 82 % 1005,2 hPa 0,0 mm 0,0 km/h (0 Bft) O-SO 112 0 min -8,9 C 0,0 km/h (0 Bft)
27.02.2016 00:03 -6,3 C -6,5 C 82 % 1005,2 hPa 0,0 mm 0,0 km/h (0 Bft) O-SO 112 0 min -8,9 C 0,0 km/h (0 Bft)
27.02.2016 00:04 -6,3 C -6,5 C 82 % 1005,2 hPa 0,0 mm 0,0 km/h (0 Bft) O-SO 112 0 min -8,9 C 0,0 km/h (0 Bft)
27.02.2016 00:05 -6,3 C -6,5 C 82 % 1005,2 hPa 0,0 mm 0,0 km/h (0 Bft) O-SO 112 0 min -8,9 C 0,0 km/h (0 Bft)
27.02.2016 00:06 -6,3 C -6,5 C 82 % 1005,2 hPa 0,0 mm 0,0 km/h (0 Bft) NO 45 0 min -8,9 C 0,0 km/h (0 Bft)
27.02.2016 00:07 -6,3 C -6,5 C 82 % 1005,2 hPa 0,0 mm 0,0 km/h (0 Bft) NO 45 0 min -8,9 C 0,0 km/h (0 Bft)
27.02.2016 00:08 -6,3 C -6,6 C 82 % 1005,2 hPa 0,0 mm 0,0 km/h (0 Bft) O-SO 112 0 min -8,9 C 0,0 km/h (0 Bft)
27.02.2016 00:09 -6,3 C -6,6 C 82 % 1005,1 hPa 0,0 mm 0,0 km/h (0 Bft) O-SO 112 0 min -8,9 C 0,0 km/h (0 Bft)
27.02.2016 00:10 -6,3 C -6,6 C 82 % 1005,1 hPa 0,0 mm 0,0 km/h (0 Bft) S 180 0 min -8,9 C 0,0 km/h (0 Bft)
27.02.2016 00:11 -6,3 C -6,6 C 82 % 1005,1 hPa 0,0 mm 0,0 km/h (0 Bft) S 180 0 min -8,9 C 0,0 km/h (0 Bft)
27.02.2016 00:12 -6,3 C -6,6 C 82 % 1005,1 hPa 0,0 mm 0,0 km/h (0 Bft) S 180 0 min -8,9 C 0,0 km/h (0 Bft)
27.02.2016 00:13 -6,3 C -6,6 C 82 % 1005,1 hPa 0,0 mm 0,0 km/h (0 Bft) S 180 0 min -8,9 C 0,0 km/h (0 Bft)
27.02.2016 00:14 -6,4 C -7,0 C 89 % 1005,1 hPa 0,0 mm 0,0 km/h (0 Bft) W-SW 247 0 min -7,9 C 0,0 km/h (0 Bft)
27.02.2016 00:15 -6,4 C -7,0 C 89 % 1005,1 hPa 0,0 mm 0,0 km/h (0 Bft) W-SW 247 0 min -7,9 C 0,0 km/h (0 Bft)
27.02.2016 00:16 -6,3 C -6,8 C 82 % 1005,1 hPa 0,0 mm 0,0 km/h (0 Bft) S 180 0 min -8,9 C 0,0 km/h (0 Bft)
27.02.2016 00:17 -6,3 C -6,8 C 82 % 1005,1 hPa 0,0 mm 0,0 km/h (0 Bft) S 180 0 min -8,9 C 0,0 km/h (0 Bft)
27.02.2016 00:18 -6,3 C -6,8 C 82 % 1005,1 hPa 0,0 mm 0,0 km/h (0 Bft) O-NO 67 0 min -8,9 C 0,0 km/h (0 Bft)
27.02.2016 00:19 -6,3 C -6,8 C 82 % 1005,1 hPa 0,0 mm 0,0 km/h (0 Bft) O-NO 67 0 min -8,9 C 0,0 km/h (0 Bft)
27.02.2016 00:20 -6,5 C -7,0 C 89 % 1005,1 hPa 0,0 mm 0,0 km/h (0 Bft) N-NO 22 0 min -8,0 C 0,0 km/h (0 Bft)
27.02.2016 00:21 -6,5 C -7,0 C 89 % 1005,1 hPa 0,0 mm 0,0 km/h (0 Bft) N-NO 22 0 min -8,0 C 0,0 km/h (0 Bft)
27.02.2016 00:22 -6,6 C -7,1 C 89 % 1005,1 hPa 0,0 mm 0,0 km/h (0 Bft) NW 315 0 min -8,1 C 0,0 km/h (0 Bft)
27.02.2016 00:23 -6,6 C -7,1 C 89 % 1005,1 hPa 0,0 mm 0,0 km/h (0 Bft) NW 315 0 min -8,1 C 0,0 km/h (0 Bft)
27.02.2016 00:24 -6,9 C -7,3 C 89 % 1005,1 hPa 0,0 mm 0,0 km/h (0 Bft) S-SW 202 0 min -8,4 C 0,0 km/h (0 Bft)
27.02.2016 00:25 -6,9 C -7,3 C 89 % 1005,1 hPa 0,0 mm 0,0 km/h (0 Bft) S-SW 202 0 min -8,4 C 0,0 km/h (0 Bft)
27.02.2016 00:26 -6,6 C -7,2 C 89 % 1005,1 hPa 0,0 mm 0,0 km/h (0 Bft) S 180 0 min -8,1 C 0,0 km/h (0 Bft)
27.02.2016 00:27 -6,6 C -7,2 C 89 % 1005,1 hPa 0,0 mm 0,0 km/h (0 Bft) S 180 0 min -8,1 C 0,0 km/h (0 Bft)
27.02.2016 00:28 -6,5 C -7,1 C 89 % 1005,1 hPa 0,0 mm 0,0 km/h (0 Bft) N-NO 22 0 min -8,0 C 0,0 km/h (0 Bft)
27.02.2016 00:29 -6,5 C -7,1 C 89 % 1004,7 hPa 0,0 mm 0,0 km/h (0 Bft) N-NO 22 0 min -8,0 C 0,0 km/h (0 Bft)
27.02.2016 00:30 -6,9 C -7,3 C 89 % 1004,7 hPa 0,0 mm 0,0 km/h (0 Bft) NW 315 0 min -8,4 C 0,0 km/h (0 Bft)
27.02.2016 00:31 -6,9 C -7,3 C 89 % 1004,7 hPa 0,0 mm 0,0 km/h (0 Bft) NW 315 0 min -8,4 C 0,0 km/h (0 Bft)
27.02.2016 00:32 -7,1 C -7,5 C 89 % 1004,7 hPa 0,0 mm 0,0 km/h (0 Bft) W-NW 292 0 min -8,6 C 0,0 km/h (0 Bft)
27.02.2016 00:33 -7,1 C -7,5 C 89 % 1004,7 hPa 0,0 mm 0,0 km/h (0 Bft) W-NW 292 0 min -8,6 C 0,0 km/h (0 Bft)
27.02.2016 00:34 -6,9 C -7,4 C 89 % 1004,7 hPa 0,0 mm 0,0 km/h (0 Bft) O-SO 112 0 min -8,4 C 0,0 km/h (0 Bft)
27.02.2016 00:35 -6,9 C -7,4 C 89 % 1004,7 hPa 0,0 mm 0,0 km/h (0 Bft) O-SO 112 0 min -8,4 C 0,0 km/h (0 Bft)
27.02.2016 00:36 -7,0 C -7,5 C 89 % 1004,7 hPa 0,0 mm 0,0 km/h (0 Bft) S-SO 157 0 min -8,5 C 0,0 km/h (0 Bft)
27.02.2016 00:37 -7,0 C -7,5 C 89 % 1004,7 hPa 0,0 mm 0,0 km/h (0 Bft) S-SO 157 0 min -8,5 C 0,0 km/h (0 Bft)
27.02.2016 00:38 -7,3 C -7,7 C 89 % 1004,7 hPa 0,0 mm 0,0 km/h (0 Bft) S-SO 157 0 min -8,8 C 0,0 km/h (0 Bft)
27.02.2016 00:39 -7,3 C -7,7 C 89 % 1004,7 hPa 0,0 mm 0,0 km/h (0 Bft) S-SO 157 0 min -8,8 C 0,0 km/h (0 Bft)
27.02.2016 00:40 -7,4 C -7,7 C 88 % 1004,7 hPa 0,0 mm 0,0 km/h (0 Bft) W 270 0 min -9,0 C 0,0 km/h (0 Bft)
27.02.2016 00:41 -7,4 C -7,7 C 88 % 1004,7 hPa 0,0 mm 0,0 km/h (0 Bft) W 270 0 min -9,0 C 0,0 km/h (0 Bft)
27.02.2016 00:42 -7,5 C -7,8 C 88 % 1004,7 hPa 0,0 mm 0,0 km/h (0 Bft) NW 315 0 min -9,1 C 0,0 km/h (0 Bft)
27.02.2016 00:43 -7,5 C -7,8 C 88 % 1004,7 hPa 0,0 mm 0,0 km/h (0 Bft) NW 315 0 min -9,1 C 0,0 km/h (0 Bft)
27.02.2016 00:44 -7,3 C -7,7 C 88 % 1004,7 hPa 0,0 mm 0,0 km/h (0 Bft) O-NO 67 0 min -8,9 C 0,0 km/h (0 Bft)
27.02.2016 00:45 -7,3 C -7,7 C 88 % 1004,7 hPa 0,0 mm 0,0 km/h (0 Bft) O-NO 67 0 min -8,9 C 0,0 km/h (0 Bft)
27.02.2016 00:46 -7,1 C -7,6 C 88 % 1004,7 hPa 0,0 mm 0,0 km/h (0 Bft) O-SO 112 0 min -8,7 C 0,0 km/h (0 Bft)
27.02.2016 00:47 -7,1 C -7,6 C 88 % 1004,7 hPa 0,0 mm 0,0 km/h (0 Bft) O-SO 112 0 min -8,7 C 0,0 km/h (0 Bft)
27.02.2016 00:48 -7,3 C -7,7 C 88 % 1004,7 hPa 0,0 mm 0,0 km/h (0 Bft) NW 315 0 min -8,9 C 0,0 km/h (0 Bft)
27.02.2016 00:49 -7,3 C -7,7 C 88 % 1004,6 hPa 0,0 mm 0,0 km/h (0 Bft) NW 315 0 min -8,9 C 0,0 km/h (0 Bft)
27.02.2016 00:50 -7,6 C -7,9 C 88 % 1004,6 hPa 0,0 mm 0,0 km/h (0 Bft) W-NW 292 0 min -9,2 C 0,0 km/h (0 Bft)
27.02.2016 00:51 -7,6 C -7,9 C 88 % 1004,6 hPa 0,0 mm 0,0 km/h (0 Bft) W-NW 292 0 min -9,2 C 0,0 km/h (0 Bft)
27.02.2016 00:52 -7,7 C -8,0 C 88 % 1004,6 hPa 0,0 mm 0,0 km/h (0 Bft) W 270 0 min -9,3 C 0,0 km/h (0 Bft)
27.02.2016 00:53 -7,7 C -8,0 C 88 % 1004,6 hPa 0,0 mm 0,0 km/h (0 Bft) W 270 0 min -9,3 C 0,0 km/h (0 Bft)
27.02.2016 00:54 -7,6 C -8,0 C 88 % 1004,6 hPa 0,0 mm 0,0 km/h (0 Bft) W-SW 247 0 min -9,2 C 0,0 km/h (0 Bft)
27.02.2016 00:55 -7,6 C -8,0 C 88 % 1004,6 hPa 0,0 mm 0,0 km/h (0 Bft) W-SW 247 0 min -9,2 C 0,0 km/h (0 Bft)
27.02.2016 00:56 -7,6 C -8,0 C 88 % 1004,6 hPa 0,0 mm 0,0 km/h (0 Bft) W 270 0 min -9,2 C 0,0 km/h (0 Bft)
27.02.2016 00:57 -7,6 C -8,0 C 88 % 1004,6 hPa 0,0 mm 0,0 km/h (0 Bft) W 270 0 min -9,2 C 0,0 km/h (0 Bft)
27.02.2016 00:58 -7,8 C -8,1 C 88 % 1004,6 hPa 0,0 mm 0,0 km/h (0 Bft) W 270 0 min -9,4 C 0,0 km/h (0 Bft)
27.02.2016 00:59 -7,8 C -8,1 C 88 % 1004,6 hPa 0,0 mm 0,0 km/h (0 Bft) W 270 0 min -9,4 C 0,0 km/h (0 Bft)
27.02.2016 01:00 -7,8 C -8,1 C 88 % 1004,6 hPa 0,0 mm 0,0 km/h (0 Bft) SW 225 0 min -9,4 C 0,0 km/h (0 Bft)
27.02.2016 01:01 -7,8 C -8,1 C 88 % 1004,6 hPa 0,0 mm 0,0 km/h (0 Bft) SW 225 0 min -9,4 C 0,0 km/h (0 Bft)
27.02.2016 01:02 -7,4 C -7,9 C 88 % 1004,6 hPa 0,0 mm 0,0 km/h (0 Bft) SO 135 0 min -9,0 C 0,0 km/h (0 Bft)
27.02.2016 01:03 -7,4 C -7,9 C 88 % 1004,6 hPa 0,0 mm 0,0 km/h (0 Bft) SO 135 0 min -9,0 C 0,0 km/h (0 Bft)
27.02.2016 01:04 -7,3 C -7,8 C 88 % 1004,6 hPa 0,0 mm 0,0 km/h (0 Bft) O-SO 112 0 min -8,9 C 0,0 km/h (0 Bft)
27.02.2016 01:05 -7,3 C -7,8 C 88 % 1004,6 hPa 0,0 mm 0,0 km/h (0 Bft) O-SO 112 0 min -8,9 C 0,0 km/h (0 Bft)
27.02.2016 01:06 -7,4 C -7,8 C 88 % 1004,6 hPa 0,0 mm 0,0 km/h (0 Bft) SW 225 0 min -9,0 C 0,0 km/h (0 Bft)
27.02.2016 01:07 -7,4 C -7,8 C 88 % 1004,6 hPa 0,0 mm 0,0 km/h (0 Bft) SW 225 0 min -9,0 C 0,0 km/h (0 Bft)
27.02.2016 01:08 -7,3 C -7,8 C 88 % 1004,6 hPa 0,0 mm 0,0 km/h (0 Bft) W 270 0 min -8,9 C 0,0 km/h (0 Bft)
27.02.2016 01:09 -7,3 C -7,8 C 88 % 1004,4 hPa 0,0 mm 0,0 km/h (0 Bft) W 270 0 min -8,9 C 0,0 km/h (0 Bft)
27.02.2016 01:10 -7,7 C -8,0 C 88 % 1004,4 hPa 0,0 mm 0,0 km/h (0 Bft) W-NW 292 0 min -9,3 C 0,0 km/h (0 Bft)
27.02.2016 01:11 -7,7 C -8,0 C 88 % 1004,4 hPa 0,0 mm 0,0 km/h (0 Bft) W-NW 292 0 min -9,3 C 0,0 km/h (0 Bft)
27.02.2016 01:12 -8,0 C -8,3 C 88 % 1004,4 hPa 0,0 mm 0,0 km/h (0 Bft) W-NW 292 0 min -9,6 C 0,0 km/h (0 Bft)
27.02.2016 01:13 -8,0 C -8,3 C 88 % 1004,4 hPa 0,0 mm 0,0 km/h (0 Bft) W-NW 292 0 min -9,6 C 0,0 km/h (0 Bft)
27.02.2016 01:14 -8,0 C -8,3 C 88 % 1004,4 hPa 0,0 mm 0,0 km/h (0 Bft) W-NW 292 0 min -9,6 C 0,0 km/h (0 Bft)
27.02.2016 01:15 -8,0 C -8,3 C 88 % 1004,4 hPa 0,0 mm 0,0 km/h (0 Bft) W-NW 292 0 min -9,6 C 0,0 km/h (0 Bft)
27.02.2016 01:16 -8,0 C -8,3 C 88 % 1004,4 hPa 0,0 mm 0,0 km/h (0 Bft) W 270 0 min -9,6 C 0,0 km/h (0 Bft)
27.02.2016 01:17 -8,0 C -8,3 C 88 % 1004,4 hPa 0,0 mm 0,0 km/h (0 Bft) W 270 0 min -9,6 C 0,0 km/h (0 Bft)
27.02.2016 01:18 -7,5 C -8,0 C 88 % 1004,4 hPa 0,0 mm 0,0 km/h (0 Bft) NO 45 0 min -9,1 C 0,0 km/h (0 Bft)
27.02.2016 01:19 -7,5 C -8,0 C 88 % 1004,4 hPa 0,0 mm 0,0 km/h (0 Bft) NO 45 0 min -9,1 C 0,0 km/h (0 Bft)
27.02.2016 01:20 -7,6 C -8,0 C 88 % 1004,4 hPa 0,0 mm 0,0 km/h (0 Bft) O-NO 67 0 min -9,2 C 0,0 km/h (0 Bft)
27.02.2016 01:21 -7,6 C -8,0 C 88 % 1004,4 hPa 0,0 mm 0,0 km/h (0 Bft) O-NO 67 0 min -9,2 C 0,0 km/h (0 Bft)
27.02.2016 01:22 -7,7 C -8,1 C 88 % 1004,4 hPa 0,0 mm 0,0 km/h (0 Bft) O-SO 112 0 min -9,3 C 0,0 km/h (0 Bft)
27.02.2016 01:23 -7,7 C -8,1 C 88 % 1004,4 hPa 0,0 mm 0,0 km/h (0 Bft) O-SO 112 0 min -9,3 C 0,0 km/h (0 Bft)
27.02.2016 01:24 -7,9 C -8,2 C 88 % 1004,4 hPa 0,0 mm 0,0 km/h (0 Bft) SW 225 0 min -9,5 C 0,0 km/h (0 Bft)
27.02.2016 01:25 -7,9 C -8,2 C 88 % 1004,4 hPa 0,0 mm 0,0 km/h (0 Bft) SW 225 0 min -9,5 C 0,0 km/h (0 Bft)
27.02.2016 01:26 -8,1 C -8,3 C 88 % 1004,4 hPa 0,0 mm 0,0 km/h (0 Bft) W-SW 247 0 min -9,7 C 0,0 km/h (0 Bft)
27.02.2016 01:27 -8,1 C -8,3 C 88 % 1004,4 hPa 0,0 mm 0,0 km/h (0 Bft) W-SW 247 0 min -9,7 C 0,0 km/h (0 Bft)
27.02.2016 01:28 -8,2 C -8,4 C 88 % 1004,2 hPa 0,0 mm 0,0 km/h (0 Bft) NW 315 0 min -9,8 C 0,0 km/h (0 Bft)
27.02.2016 01:29 -8,2 C -8,4 C 88 % 1004,2 hPa 0,0 mm 0,0 km/h (0 Bft) NW 315 0 min -9,8 C 0,0 km/h (0 Bft)
27.02.2016 01:30 -8,3 C -8,5 C 87 % 1004,2 hPa 0,0 mm 0,0 km/h (0 Bft) W-SW 247 0 min -10,1 C 0,0 km/h (0 Bft)
27.02.2016 01:31 -8,3 C -8,5 C 87 % 1004,2 hPa 0,0 mm 0,0 km/h (0 Bft) W-SW 247 0 min -10,1 C 0,0 km/h (0 Bft)
27.02.2016 01:32 -8,2 C -8,5 C 87 % 1004,2 hPa 0,0 mm 0,0 km/h (0 Bft) W-SW 247 0 min -10,0 C 0,0 km/h (0 Bft)
27.02.2016 01:33 -8,2 C -8,5 C 87 % 1004,2 hPa 0,0 mm 0,0 km/h (0 Bft) W-SW 247 0 min -10,0 C 0,0 km/h (0 Bft)
27.02.2016 01:34 -7,9 C -8,3 C 88 % 1004,2 hPa 0,0 mm 0,0 km/h (0 Bft) W-SW 247 0 min -9,5 C 0,0 km/h (0 Bft)
27.02.2016 01:35 -7,9 C -8,3 C 88 % 1004,2 hPa 0,0 mm 0,0 km/h (0 Bft) W-SW 247 0 min -9,5 C 0,0 km/h (0 Bft)
27.02.2016 01:36 -7,7 C -8,2 C 88 % 1004,2 hPa 0,0 mm 0,0 km/h (0 Bft) W-SW 247 0 min -9,3 C 0,0 km/h (0 Bft)
27.02.2016 01:37 -7,7 C -8,2 C 88 % 1004,2 hPa 0,0 mm 0,0 km/h (0 Bft) W-SW 247 0 min -9,3 C 0,0 km/h (0 Bft)
27.02.2016 01:38 -7,8 C -8,3 C 88 % 1004,2 hPa 0,0 mm 0,0 km/h (0 Bft) SW 225 0 min -9,4 C 0,0 km/h (0 Bft)
27.02.2016 01:39 -7,8 C -8,3 C 88 % 1004,2 hPa 0,0 mm 0,0 km/h (0 Bft) SW 225 0 min -9,4 C 0,0 km/h (0 Bft)
27.02.2016 01:40 -7,4 C -8,0 C 88 % 1004,2 hPa 0,0 mm 0,3 km/h (0 Bft) W-SW 247 0 min -9,0 C 3,0 km/h (1 Bft)
27.02.2016 01:41 -7,4 C -8,0 C 88 % 1004,2 hPa 0,0 mm 0,3 km/h (0 Bft) W-SW 247 0 min -9,0 C 3,0 km/h (1 Bft)
27.02.2016 01:42 -7,2 C -7,8 C 88 % 1004,2 hPa 0,0 mm 0,3 km/h (0 Bft) O 90 0 min -8,8 C 0,0 km/h (0 Bft)
27.02.2016 01:43 -7,2 C -7,8 C 88 % 1004,2 hPa 0,0 mm 0,3 km/h (0 Bft) O 90 0 min -8,8 C 0,0 km/h (0 Bft)
27.02.2016 01:44 -7,3 C -7,8 C 88 % 1004,2 hPa 0,0 mm 0,3 km/h (0 Bft) N-NW 337 0 min -8,9 C 0,0 km/h (0 Bft)
27.02.2016 01:45 -7,3 C -7,8 C 88 % 1004,2 hPa 0,0 mm 0,3 km/h (0 Bft) N-NW 337 0 min -8,9 C 0,0 km/h (0 Bft)
27.02.2016 01:46 -7,8 C -8,1 C 88 % 1004,2 hPa 0,0 mm 0,3 km/h (0 Bft) NW 315 0 min -9,4 C 0,0 km/h (0 Bft)
27.02.2016 01:47 -7,8 C -8,1 C 88 % 1004,2 hPa 0,0 mm 0,3 km/h (0 Bft) NW 315 0 min -9,4 C 0,0 km/h (0 Bft)
27.02.2016 01:48 -8,2 C -8,4 C 88 % 1004,2 hPa 0,0 mm 0,3 km/h (0 Bft) NW 315 0 min -9,8 C 0,0 km/h (0 Bft)
27.02.2016 01:49 -8,2 C -8,4 C 88 % 1004,5 hPa 0,0 mm 0,3 km/h (0 Bft) NW 315 0 min -9,8 C 0,0 km/h (0 Bft)
27.02.2016 01:50 -8,4 C -8,6 C 87 % 1004,5 hPa 0,0 mm 0,0 km/h (0 Bft) NW 315 0 min -10,2 C 0,0 km/h (0 Bft)
27.02.2016 01:51 -8,4 C -8,6 C 87 % 1004,5 hPa 0,0 mm 0,0 km/h (0 Bft) NW 315 0 min -10,2 C 0,0 km/h (0 Bft)
27.02.2016 01:52 -8,6 C -8,8 C 87 % 1004,5 hPa 0,0 mm 0,0 km/h (0 Bft) NW 315 0 min -10,4 C 0,0 km/h (0 Bft)
27.02.2016 01:53 -8,6 C -8,8 C 87 % 1004,5 hPa 0,0 mm 0,0 km/h (0 Bft) NW 315 0 min -10,4 C 0,0 km/h (0 Bft)
27.02.2016 01:54 -8,6 C -8,8 C 87 % 1004,5 hPa 0,0 mm 0,0 km/h (0 Bft) NW 315 0 min -10,4 C 0,0 km/h (0 Bft)
27.02.2016 01:55 -8,6 C -8,8 C 87 % 1004,5 hPa 0,0 mm 0,0 km/h (0 Bft) NW 315 0 min -10,4 C 0,0 km/h (0 Bft)
27.02.2016 01:56 -8,6 C -8,8 C 87 % 1004,5 hPa 0,0 mm 0,0 km/h (0 Bft) NW 315 0 min -10,4 C 0,0 km/h (0 Bft)
27.02.2016 01:57 -8,6 C -8,8 C 87 % 1004,5 hPa 0,0 mm 0,0 km/h (0 Bft) NW 315 0 min -10,4 C 0,0 km/h (0 Bft)
27.02.2016 01:58 -8,6 C -8,8 C 87 % 1004,5 hPa 0,0 mm 0,0 km/h (0 Bft) NW 315 0 min -10,4 C 0,0 km/h (0 Bft)
27.02.2016 01:59 -8,6 C -8,8 C 87 % 1004,5 hPa 0,0 mm 0,0 km/h (0 Bft) NW 315 0 min -10,4 C 0,0 km/h (0 Bft)
27.02.2016 02:00 -8,3 C -8,7 C 87 % 1004,5 hPa 0,0 mm 0,0 km/h (0 Bft) W 270 0 min -10,1 C 0,0 km/h (0 Bft)
27.02.2016 02:01 -8,3 C -8,7 C 87 % 1004,5 hPa 0,0 mm 0,0 km/h (0 Bft) W 270 0 min -10,1 C 0,0 km/h (0 Bft)
27.02.2016 02:02 -8,3 C -8,7 C 87 % 1004,5 hPa 0,0 mm 0,0 km/h (0 Bft) W-SW 247 0 min -10,1 C 0,0 km/h (0 Bft)
27.02.2016 02:03 -8,3 C -8,7 C 87 % 1004,5 hPa 0,0 mm 0,0 km/h (0 Bft) W-SW 247 0 min -10,1 C 0,0 km/h (0 Bft)
27.02.2016 02:04 -8,4 C -8,8 C 87 % 1004,5 hPa 0,0 mm 0,0 km/h (0 Bft) W 270 0 min -10,2 C 0,0 km/h (0 Bft)
27.02.2016 02:05 -8,4 C -8,8 C 87 % 1004,5 hPa 0,0 mm 0,0 km/h (0 Bft) W 270 0 min -10,2 C 0,0 km/h (0 Bft)
27.02.2016 02:06 -8,5 C -8,9 C 87 % 1004,5 hPa 0,0 mm 0,0 km/h (0 Bft) W 270 0 min -10,3 C 0,0 km/h (0 Bft)
27.02.2016 02:07 -8,5 C -8,9 C 87 % 1004,5 hPa 0,0 mm 0,0 km/h (0 Bft) W 270 0 min -10,3 C 0,0 km/h (0 Bft)
27.02.2016 02:08 -8,2 C -8,7 C 87 % 1004,5 hPa 0,0 mm 0,0 km/h (0 Bft) W-SW 247 0 min -10,0 C 0,0 km/h (0 Bft)
27.02.2016 02:09 -8,2 C -8,7 C 87 % 1004,2 hPa 0,0 mm 0,0 km/h (0 Bft) W-SW 247 0 min -10,0 C 0,0 km/h (0 Bft)
27.02.2016 02:11 -7,9 C -8,5 C 87 % 1004,2 hPa 0,0 mm 0,0 km/h (0 Bft) W-SW 247 0 min -9,7 C 0,0 km/h (0 Bft)
27.02.2016 02:12 -7,6 C -8,3 C 87 % 1004,2 hPa 0,0 mm 0,0 km/h (0 Bft) O-SO 112 0 min -9,4 C 0,0 km/h (0 Bft)
27.02.2016 02:13 -7,6 C -8,3 C 87 % 1004,2 hPa 0,0 mm 0,0 km/h (0 Bft) O-SO 112 0 min -9,4 C 0,0 km/h (0 Bft)
27.02.2016 02:14 -7,5 C -8,2 C 88 % 1004,2 hPa 0,0 mm 0,0 km/h (0 Bft) S-SW 202 0 min -9,1 C 0,0 km/h (0 Bft)
27.02.2016 02:15 -7,5 C -8,2 C 88 % 1004,2 hPa 0,0 mm 0,0 km/h (0 Bft) S-SW 202 0 min -9,1 C 0,0 km/h (0 Bft)
27.02.2016 02:16 -7,7 C -8,3 C 88 % 1004,2 hPa 0,0 mm 0,0 km/h (0 Bft) SW 225 0 min -9,3 C 0,0 km/h (0 Bft)
27.02.2016 02:17 -7,7 C -8,3 C 88 % 1004,2 hPa 0,0 mm 0,0 km/h (0 Bft) SW 225 0 min -9,3 C 0,0 km/h (0 Bft)
27.02.2016 02:18 -7,5 C -8,1 C 88 % 1004,2 hPa 0,0 mm 0,0 km/h (0 Bft) NW 315 0 min -9,1 C 0,0 km/h (0 Bft)
27.02.2016 02:19 -7,5 C -8,1 C 88 % 1004,2 hPa 0,0 mm 0,0 km/h (0 Bft) NW 315 0 min -9,1 C 0,0 km/h (0 Bft)
27.02.2016 02:20 -7,8 C -8,3 C 87 % 1004,2 hPa 0,0 mm 0,0 km/h (0 Bft) NW 315 0 min -9,6 C 0,0 km/h (0 Bft)
27.02.2016 02:21 -7,8 C -8,3 C 87 % 1004,2 hPa 0,0 mm 0,0 km/h (0 Bft) NW 315 0 min -9,6 C 0,0 km/h (0 Bft)
27.02.2016 02:22 -7,9 C -8,3 C 87 % 1004,2 hPa 0,0 mm 0,0 km/h (0 Bft) W-SW 247 0 min -9,7 C 0,0 km/h (0 Bft)
27.02.2016 02:23 -7,9 C -8,3 C 87 % 1004,2 hPa 0,0 mm 0,0 km/h (0 Bft) W-SW 247 0 min -9,7 C 0,0 km/h (0 Bft)
27.02.2016 02:24 -8,1 C -8,4 C 87 % 1004,2 hPa 0,0 mm 0,0 km/h (0 Bft) NW 315 0 min -9,9 C 0,0 km/h (0 Bft)
27.02.2016 02:25 -8,1 C -8,4 C 87 % 1004,2 hPa 0,0 mm 0,0 km/h (0 Bft) NW 315 0 min -9,9 C 0,0 km/h (0 Bft)
27.02.2016 02:26 -8,2 C -8,5 C 87 % 1004,2 hPa 0,0 mm 0,0 km/h (0 Bft) W 270 0 min -10,0 C 0,0 km/h (0 Bft)
27.02.2016 02:27 -8,2 C -8,5 C 87 % 1004,2 hPa 0,0 mm 0,0 km/h (0 Bft) W 270 0 min -10,0 C 0,0 km/h (0 Bft)
27.02.2016 02:28 -8,4 C -8,7 C 87 % 1004,2 hPa 0,0 mm 0,0 km/h (0 Bft) W 270 0 min -10,2 C 0,0 km/h (0 Bft)
27.02.2016 02:29 -8,4 C -8,7 C 87 % 1003,9 hPa 0,0 mm 0,0 km/h (0 Bft) W 270 0 min -10,2 C 0,0 km/h (0 Bft)
27.02.2016 02:30 -8,6 C -8,8 C 87 % 1003,9 hPa 0,0 mm 0,0 km/h (0 Bft) W 270 0 min -10,4 C 0,0 km/h (0 Bft)
27.02.2016 02:31 -8,6 C -8,8 C 87 % 1003,9 hPa 0,0 mm 0,0 km/h (0 Bft) W 270 0 min -10,4 C 0,0 km/h (0 Bft)
27.02.2016 02:32 -8,7 C -8,9 C 87 % 1003,9 hPa 0,0 mm 0,0 km/h (0 Bft) W-NW 292 0 min -10,5 C 0,0 km/h (0 Bft)
27.02.2016 02:33 -8,7 C -8,9 C 87 % 1003,9 hPa 0,0 mm 0,0 km/h (0 Bft) W-NW 292 0 min -10,5 C 0,0 km/h (0 Bft)
27.02.2016 02:34 -8,8 C -9,0 C 87 % 1003,9 hPa 0,0 mm 0,0 km/h (0 Bft) W 270 0 min -10,6 C 0,0 km/h (0 Bft)
27.02.2016 02:35 -8,8 C -9,0 C 87 % 1003,9 hPa 0,0 mm 0,0 km/h (0 Bft) W 270 0 min -10,6 C 0,0 km/h (0 Bft)
27.02.2016 02:36 -8,8 C -9,0 C 87 % 1003,9 hPa 0,0 mm 0,0 km/h (0 Bft) W 270 0 min -10,6 C 0,0 km/h (0 Bft)
27.02.2016 02:37 -8,8 C -9,0 C 87 % 1003,9 hPa 0,0 mm 0,0 km/h (0 Bft) W 270 0 min -10,6 C 0,0 km/h (0 Bft)
27.02.2016 02:38 -8,8 C -9,0 C 86 % 1003,9 hPa 0,0 mm 0,0 km/h (0 Bft) W 270 0 min -10,7 C 0,0 km/h (0 Bft)
27.02.2016 02:39 -8,8 C -9,0 C 86 % 1003,9 hPa 0,0 mm 0,0 km/h (0 Bft) W 270 0 min -10,7 C 0,0 km/h (0 Bft)
27.02.2016 02:40 -8,4 C -8,8 C 87 % 1003,9 hPa 0,0 mm 0,0 km/h (0 Bft) W 270 0 min -10,2 C 0,0 km/h (0 Bft)
27.02.2016 02:41 -8,4 C -8,8 C 87 % 1003,9 hPa 0,0 mm 0,0 km/h (0 Bft) W 270 0 min -10,2 C 0,0 km/h (0 Bft)
27.02.2016 02:42 -8,4 C -8,7 C 87 % 1003,9 hPa 0,0 mm 0,0 km/h (0 Bft) NW 315 0 min -10,2 C 0,0 km/h (0 Bft)
27.02.2016 02:43 -8,4 C -8,7 C 87 % 1003,9 hPa 0,0 mm 0,0 km/h (0 Bft) NW 315 0 min -10,2 C 0,0 km/h (0 Bft)
27.02.2016 02:44 -8,5 C -8,8 C 87 % 1003,9 hPa 0,0 mm 0,0 km/h (0 Bft) W 270 0 min -10,3 C 0,0 km/h (0 Bft)
27.02.2016 02:45 -8,5 C -8,8 C 87 % 1003,9 hPa 0,0 mm 0,0 km/h (0 Bft) W 270 0 min -10,3 C 0,0 km/h (0 Bft)
27.02.2016 02:46 -8,6 C -8,8 C 87 % 1003,9 hPa 0,0 mm 0,0 km/h (0 Bft) W 270 0 min -10,4 C 0,0 km/h (0 Bft)
27.02.2016 02:47 -8,6 C -8,8 C 87 % 1003,9 hPa 0,0 mm 0,0 km/h (0 Bft) W 270 0 min -10,4 C 0,0 km/h (0 Bft)
27.02.2016 02:48 -8,6 C -8,8 C 86 % 1003,9 hPa 0,0 mm 0,0 km/h (0 Bft) N-NO 22 0 min -10,5 C 0,0 km/h (0 Bft)
27.02.2016 02:49 -8,6 C -8,8 C 86 % 1003,6 hPa 0,0 mm 0,0 km/h (0 Bft) N-NO 22 0 min -10,5 C 0,0 km/h (0 Bft)
27.02.2016 02:50 -8,6 C -8,8 C 86 % 1003,6 hPa 0,0 mm 0,0 km/h (0 Bft) W 270 0 min -10,5 C 0,0 km/h (0 Bft)
27.02.2016 02:51 -8,6 C -8,8 C 86 % 1003,6 hPa 0,0 mm 0,0 km/h (0 Bft) W 270 0 min -10,5 C 0,0 km/h (0 Bft)
27.02.2016 02:52 -8,6 C -8,9 C 86 % 1003,6 hPa 0,0 mm 0,0 km/h (0 Bft) W 270 0 min -10,5 C 0,0 km/h (0 Bft)
27.02.2016 02:53 -8,6 C -8,9 C 86 % 1003,6 hPa 0,0 mm 0,0 km/h (0 Bft) W 270 0 min -10,5 C 0,0 km/h (0 Bft)
27.02.2016 02:54 -8,5 C -8,8 C 86 % 1003,6 hPa 0,0 mm 0,0 km/h (0 Bft) W 270 0 min -10,4 C 0,0 km/h (0 Bft)
27.02.2016 02:55 -8,5 C -8,8 C 86 % 1003,6 hPa 0,0 mm 0,0 km/h (0 Bft) W 270 0 min -10,4 C 0,0 km/h (0 Bft)
27.02.2016 02:56 -8,3 C -8,6 C 87 % 1003,6 hPa 0,0 mm 0,0 km/h (0 Bft) W-SW 247 0 min -10,1 C 0,0 km/h (0 Bft)
27.02.2016 02:57 -8,3 C -8,6 C 87 % 1003,6 hPa 0,0 mm 0,0 km/h (0 Bft) W-SW 247 0 min -10,1 C 0,0 km/h (0 Bft)
27.02.2016 02:58 -8,2 C -8,6 C 87 % 1003,6 hPa 0,0 mm 0,0 km/h (0 Bft) W-SW 247 0 min -10,0 C 0,0 km/h (0 Bft)
27.02.2016 02:59 -8,2 C -8,6 C 87 % 1003,6 hPa 0,0 mm 0,0 km/h (0 Bft) W-SW 247 0 min -10,0 C 0,0 km/h (0 Bft)
27.02.2016 03:00 -8,0 C -8,4 C 87 % 1003,6 hPa 0,0 mm 0,0 km/h (0 Bft) W 270 0 min -9,8 C 0,0 km/h (0 Bft)
27.02.2016 03:01 -8,0 C -8,4 C 87 % 1003,6 hPa 0,0 mm 0,0 km/h (0 Bft) W 270 0 min -9,8 C 0,0 km/h (0 Bft)
27.02.2016 03:02 -8,0 C -8,4 C 87 % 1003,6 hPa 0,0 mm 0,0 km/h (0 Bft) W 270 0 min -9,8 C 0,0 km/h (0 Bft)
27.02.2016 03:03 -8,0 C -8,4 C 87 % 1003,6 hPa 0,0 mm 0,0 km/h (0 Bft) W 270 0 min -9,8 C 0,0 km/h (0 Bft)
27.02.2016 03:04 -8,2 C -8,5 C 87 % 1003,6 hPa 0,0 mm 0,0 km/h (0 Bft) W 270 0 min -10,0 C 0,0 km/h (0 Bft)
27.02.2016 03:05 -8,2 C -8,5 C 87 % 1003,6 hPa 0,0 mm 0,0 km/h (0 Bft) W 270 0 min -10,0 C 0,0 km/h (0 Bft)
27.02.2016 03:06 -8,3 C -8,6 C 86 % 1003,6 hPa 0,0 mm 0,0 km/h (0 Bft) W 270 0 min -10,2 C 0,0 km/h (0 Bft)
27.02.2016 03:07 -8,3 C -8,6 C 86 % 1003,6 hPa 0,0 mm 0,0 km/h (0 Bft) W 270 0 min -10,2 C 0,0 km/h (0 Bft)
27.02.2016 03:08 -8,3 C -8,6 C 86 % 1003,6 hPa 0,0 mm 0,0 km/h (0 Bft) W 270 0 min -10,2 C 0,0 km/h (0 Bft)
27.02.2016 03:09 -8,3 C -8,6 C 86 % 1003,6 hPa 0,0 mm 0,0 km/h (0 Bft) W 270 0 min -10,2 C 0,0 km/h (0 Bft)
27.02.2016 03:10 -8,3 C -8,6 C 86 % 1003,6 hPa 0,0 mm 0,0 km/h (0 Bft) W 270 0 min -10,2 C 0,0 km/h (0 Bft)
27.02.2016 03:11 -8,3 C -8,6 C 86 % 1003,6 hPa 0,0 mm 0,0 km/h (0 Bft) W 270 0 min -10,2 C 0,0 km/h (0 Bft)
27.02.2016 03:12 -8,4 C -8,6 C 86 % 1003,6 hPa 0,0 mm 0,0 km/h (0 Bft) NW 315 0 min -10,3 C 0,0 km/h (0 Bft)
27.02.2016 03:13 -8,4 C -8,6 C 86 % 1003,6 hPa 0,0 mm 0,0 km/h (0 Bft) NW 315 0 min -10,3 C 0,0 km/h (0 Bft)
27.02.2016 03:14 -8,6 C -8,7 C 86 % 1003,6 hPa 0,0 mm 0,0 km/h (0 Bft) W 270 0 min -10,5 C 0,0 km/h (0 Bft)
27.02.2016 03:15 -8,6 C -8,7 C 86 % 1003,6 hPa 0,0 mm 0,0 km/h (0 Bft) W 270 0 min -10,5 C 0,0 km/h (0 Bft)
27.02.2016 03:16 -8,7 C -8,8 C 86 % 1003,6 hPa 0,0 mm 0,0 km/h (0 Bft) W-SW 247 0 min -10,6 C 0,0 km/h (0 Bft)
27.02.2016 03:17 -8,7 C -8,8 C 86 % 1003,6 hPa 0,0 mm 0,0 km/h (0 Bft) W-SW 247 0 min -10,6 C 0,0 km/h (0 Bft)
27.02.2016 03:18 -8,6 C -8,8 C 86 % 1003,6 hPa 0,0 mm 0,0 km/h (0 Bft) SW 225 0 min -10,5 C 0,0 km/h (0 Bft)
27.02.2016 03:19 -8,6 C -8,8 C 86 % 1003,6 hPa 0,0 mm 0,0 km/h (0 Bft) SW 225 0 min -10,5 C 0,0 km/h (0 Bft)
27.02.2016 03:20 -8,2 C -8,5 C 86 % 1003,6 hPa 0,0 mm 0,0 km/h (0 Bft) SW 225 0 min -10,1 C 0,0 km/h (0 Bft)
27.02.2016 03:21 -8,2 C -8,5 C 86 % 1003,6 hPa 0,0 mm 0,0 km/h (0 Bft) SW 225 0 min -10,1 C 0,0 km/h (0 Bft)
27.02.2016 03:22 -8,0 C -8,3 C 87 % 1003,6 hPa 0,0 mm 0,0 km/h (0 Bft) W-SW 247 0 min -9,8 C 0,0 km/h (0 Bft)
27.02.2016 03:23 -8,0 C -8,3 C 87 % 1003,6 hPa 0,0 mm 0,0 km/h (0 Bft) W-SW 247 0 min -9,8 C 0,0 km/h (0 Bft)
27.02.2016 03:24 -8,1 C -8,4 C 86 % 1003,6 hPa 0,0 mm 0,0 km/h (0 Bft) W 270 0 min -10,0 C 0,0 km/h (0 Bft)
27.02.2016 03:25 -8,1 C -8,4 C 86 % 1003,6 hPa 0,0 mm 0,0 km/h (0 Bft) W 270 0 min -10,0 C 0,0 km/h (0 Bft)
27.02.2016 03:26 -8,2 C -8,4 C 86 % 1003,6 hPa 0,0 mm 0,0 km/h (0 Bft) W 270 0 min -10,1 C 0,0 km/h (0 Bft)
27.02.2016 03:27 -8,2 C -8,4 C 86 % 1003,6 hPa 0,0 mm 0,0 km/h (0 Bft) W 270 0 min -10,1 C 0,0 km/h (0 Bft)
27.02.2016 03:28 -8,3 C -8,5 C 86 % 1003,6 hPa 0,0 mm 0,0 km/h (0 Bft) W 270 0 min -10,2 C 0,0 km/h (0 Bft)
27.02.2016 03:29 -8,3 C -8,5 C 86 % 1003,6 hPa 0,0 mm 0,0 km/h (0 Bft) W 270 0 min -10,2 C 0,0 km/h (0 Bft)
27.02.2016 03:30 -8,4 C -8,6 C 86 % 1003,6 hPa 0,0 mm 0,0 km/h (0 Bft) W-SW 247 0 min -10,3 C 0,0 km/h (0 Bft)
27.02.2016 03:31 -8,4 C -8,6 C 86 % 1003,6 hPa 0,0 mm 0,0 km/h (0 Bft) W-SW 247 0 min -10,3 C 0,0 km/h (0 Bft)
27.02.2016 03:32 -8,2 C -8,4 C 86 % 1003,6 hPa 0,0 mm 0,0 km/h (0 Bft) W-SW 247 0 min -10,1 C 0,0 km/h (0 Bft)
27.02.2016 03:33 -8,2 C -8,4 C 86 % 1003,6 hPa 0,0 mm 0,0 km/h (0 Bft) W-SW 247 0 min -10,1 C 0,0 km/h (0 Bft)
27.02.2016 03:34 -7,9 C -8,2 C 87 % 1003,6 hPa 0,0 mm 0,0 km/h (0 Bft) W-SW 247 0 min -9,7 C 0,0 km/h (0 Bft)
27.02.2016 03:35 -7,9 C -8,2 C 87 % 1003,6 hPa 0,0 mm 0,0 km/h (0 Bft) W-SW 247 0 min -9,7 C 0,0 km/h (0 Bft)
27.02.2016 03:36 -7,7 C -8,1 C 87 % 1003,6 hPa 0,0 mm 0,0 km/h (0 Bft) W-SW 247 0 min -9,5 C 0,0 km/h (0 Bft)
27.02.2016 03:37 -7,7 C -8,1 C 87 % 1003,6 hPa 0,0 mm 0,0 km/h (0 Bft) W-SW 247 0 min -9,5 C 0,0 km/h (0 Bft)
27.02.2016 03:38 -7,2 C -7,7 C 87 % 1003,6 hPa 0,0 mm 0,0 km/h (0 Bft) S-SO 157 0 min -9,0 C 0,0 km/h (0 Bft)
27.02.2016 03:39 -7,2 C -7,7 C 87 % 1003,6 hPa 0,0 mm 0,0 km/h (0 Bft) S-SO 157 0 min -9,0 C 0,0 km/h (0 Bft)
27.02.2016 03:40 -7,3 C -7,7 C 87 % 1003,6 hPa 0,0 mm 0,0 km/h (0 Bft) O-NO 67 0 min -9,1 C 0,0 km/h (0 Bft)
27.02.2016 03:41 -7,3 C -7,7 C 87 % 1003,6 hPa 0,0 mm 0,0 km/h (0 Bft) O-NO 67 0 min -9,1 C 0,0 km/h (0 Bft)
27.02.2016 03:42 -7,5 C -7,8 C 87 % 1003,6 hPa 0,0 mm 0,3 km/h (0 Bft) W 270 0 min -9,3 C 3,9 km/h (1 Bft)
27.02.2016 03:43 -7,5 C -7,8 C 87 % 1003,6 hPa 0,0 mm 0,3 km/h (0 Bft) W 270 0 min -9,3 C 3,9 km/h (1 Bft)
27.02.2016 03:44 -7,6 C -7,9 C 87 % 1003,6 hPa 0,0 mm 0,3 km/h (0 Bft) W 270 0 min -9,4 C 0,0 km/h (0 Bft)
27.02.2016 03:45 -7,6 C -7,9 C 87 % 1003,6 hPa 0,0 mm 0,3 km/h (0 Bft) W 270 0 min -9,4 C 0,0 km/h (0 Bft)
27.02.2016 03:46 -7,7 C -7,9 C 87 % 1003,6 hPa 0,0 mm 0,3 km/h (0 Bft) W-SW 247 0 min -9,5 C 4,2 km/h (1 Bft)
27.02.2016 03:47 -7,7 C -7,9 C 87 % 1003,6 hPa 0,0 mm 0,3 km/h (0 Bft) W-SW 247 0 min -9,5 C 0,0 km/h (0 Bft)
27.02.2016 03:48 -7,8 C -8,0 C 87 % 1003,6 hPa 0,0 mm 0,3 km/h (0 Bft) SO 135 0 min -9,6 C 0,0 km/h (0 Bft)
27.02.2016 03:49 -7,8 C -8,0 C 87 % 1003,4 hPa 0,0 mm 0,3 km/h (0 Bft) SO 135 0 min -9,6 C 0,0 km/h (0 Bft)
27.02.2016 03:50 -7,6 C -7,9 C 87 % 1003,4 hPa 0,0 mm 0,3 km/h (0 Bft) W-SW 247 0 min -9,4 C 0,0 km/h (0 Bft)
27.02.2016 03:51 -7,6 C -7,9 C 87 % 1003,4 hPa 0,0 mm 0,3 km/h (0 Bft) W-SW 247 0 min -9,4 C 0,0 km/h (0 Bft)
27.02.2016 03:52 -7,4 C -7,7 C 87 % 1003,4 hPa 0,0 mm 0,6 km/h (0 Bft) W-SW 247 0 min -9,2 C 0,0 km/h (0 Bft)
27.02.2016 03:53 -7,4 C -7,7 C 87 % 1003,4 hPa 0,0 mm 0,6 km/h (0 Bft) W-SW 247 0 min -9,2 C 0,0 km/h (0 Bft)
27.02.2016 03:54 -6,9 C -7,3 C 87 % 1003,4 hPa 0,0 mm 0,3 km/h (0 Bft) W-SW 247 0 min -8,7 C 3,0 km/h (1 Bft)
27.02.2016 03:55 -6,9 C -7,3 C 87 % 1003,4 hPa 0,0 mm 0,3 km/h (0 Bft) W-SW 247 0 min -8,7 C 3,0 km/h (1 Bft)
27.02.2016 03:56 -6,7 C -7,1 C 87 % 1003,4 hPa 0,0 mm 0,6 km/h (0 Bft) W-SW 247 0 min -8,5 C 0,0 km/h (0 Bft)
27.02.2016 03:57 -6,7 C -7,1 C 87 % 1003,4 hPa 0,0 mm 0,6 km/h (0 Bft) W-SW 247 0 min -8,5 C 0,0 km/h (0 Bft)
27.02.2016 03:58 -6,6 C -7,0 C 88 % 1003,4 hPa 0,0 mm 0,6 km/h (0 Bft) SW 225 0 min -8,2 C 0,0 km/h (0 Bft)
27.02.2016 03:59 -6,6 C -7,0 C 88 % 1003,4 hPa 0,0 mm 0,6 km/h (0 Bft) SW 225 0 min -8,2 C 0,0 km/h (0 Bft)
27.02.2016 04:00 -7,1 C -7,3 C 87 % 1003,4 hPa 0,0 mm 0,6 km/h (0 Bft) W-SW 247 0 min -8,9 C 0,0 km/h (0 Bft)
27.02.2016 04:01 -7,1 C -7,3 C 87 % 1003,4 hPa 0,0 mm 0,6 km/h (0 Bft) W-SW 247 0 min -8,9 C 0,0 km/h (0 Bft)
27.02.2016 04:02 -7,4 C -7,5 C 87 % 1003,4 hPa 0,0 mm 0,3 km/h (0 Bft) W 270 0 min -9,2 C 0,0 km/h (0 Bft)
27.02.2016 04:03 -7,4 C -7,5 C 87 % 1003,4 hPa 0,0 mm 0,3 km/h (0 Bft) W 270 0 min -9,2 C 0,0 km/h (0 Bft)
27.02.2016 04:04 -7,6 C -7,7 C 87 % 1003,4 hPa 0,0 mm 0,3 km/h (0 Bft) W-SW 247 0 min -9,4 C 0,0 km/h (0 Bft)
27.02.2016 04:05 -7,6 C -7,7 C 87 % 1003,4 hPa 0,0 mm 0,3 km/h (0 Bft) W-SW 247 0 min -9,4 C 0,0 km/h (0 Bft)
27.02.2016 04:06 -7,5 C -7,6 C 87 % 1003,4 hPa 0,0 mm 0,0 km/h (0 Bft) W 270 0 min -9,3 C 0,0 km/h (0 Bft)
27.02.2016 04:07 -7,5 C -7,6 C 87 % 1003,4 hPa 0,0 mm 0,0 km/h (0 Bft) W 270 0 min -9,3 C 0,0 km/h (0 Bft)
27.02.2016 04:08 -7,5 C -7,6 C 87 % 1003,4 hPa 0,0 mm 0,0 km/h (0 Bft) W 270 0 min -9,3 C 0,0 km/h (0 Bft)
27.02.2016 04:09 -7,5 C -7,6 C 87 % 1003,2 hPa 0,0 mm 0,0 km/h (0 Bft) W 270 0 min -9,3 C 0,0 km/h (0 Bft)
27.02.2016 04:10 -7,6 C -7,7 C 87 % 1003,2 hPa 0,0 mm 0,0 km/h (0 Bft) SO 135 0 min -9,4 C 0,0 km/h (0 Bft)
27.02.2016 04:11 -7,6 C -7,7 C 87 % 1003,2 hPa 0,0 mm 0,0 km/h (0 Bft) SO 135 0 min -9,4 C 0,0 km/h (0 Bft)
27.02.2016 04:12 -7,5 C -7,7 C 87 % 1003,2 hPa 0,0 mm 0,0 km/h (0 Bft) S-SW 202 0 min -9,3 C 0,0 km/h (0 Bft)
27.02.2016 04:13 -7,5 C -7,7 C 87 % 1003,2 hPa 0,0 mm 0,0 km/h (0 Bft) S-SW 202 0 min -9,3 C 0,0 km/h (0 Bft)
27.02.2016 04:14 -7,1 C -7,4 C 87 % 1003,2 hPa 0,0 mm 0,0 km/h (0 Bft) W-SW 247 0 min -8,9 C 0,0 km/h (0 Bft)
27.02.2016 04:15 -7,1 C -7,4 C 87 % 1003,2 hPa 0,0 mm 0,0 km/h (0 Bft) W-SW 247 0 min -8,9 C 0,0 km/h (0 Bft)
27.02.2016 04:16 -6,9 C -7,2 C 87 % 1003,2 hPa 0,0 mm 0,0 km/h (0 Bft) SO 135 0 min -8,7 C 0,0 km/h (0 Bft)
27.02.2016 04:17 -6,9 C -7,2 C 87 % 1003,2 hPa 0,0 mm 0,0 km/h (0 Bft) SO 135 0 min -8,7 C 0,0 km/h (0 Bft)
27.02.2016 04:18 -7,2 C -7,4 C 87 % 1003,2 hPa 0,0 mm 0,0 km/h (0 Bft) N-NW 337 0 min -9,0 C 0,0 km/h (0 Bft)
27.02.2016 04:19 -7,2 C -7,4 C 87 % 1003,2 hPa 0,0 mm 0,0 km/h (0 Bft) N-NW 337 0 min -9,0 C 0,0 km/h (0 Bft)
27.02.2016 04:20 -7,3 C -7,4 C 87 % 1003,2 hPa 0,0 mm 0,0 km/h (0 Bft) SW 225 0 min -9,1 C 0,0 km/h (0 Bft)
27.02.2016 04:21 -7,3 C -7,4 C 87 % 1003,2 hPa 0,0 mm 0,0 km/h (0 Bft) SW 225 0 min -9,1 C 0,0 km/h (0 Bft)
27.02.2016 04:22 -7,3 C -7,5 C 87 % 1003,2 hPa 0,0 mm 0,0 km/h (0 Bft) S 180 0 min -9,1 C 0,0 km/h (0 Bft)
27.02.2016 04:23 -7,3 C -7,5 C 87 % 1003,2 hPa 0,0 mm 0,0 km/h (0 Bft) S 180 0 min -9,1 C 0,0 km/h (0 Bft)
27.02.2016 04:24 -7,0 C -7,3 C 87 % 1003,2 hPa 0,0 mm 0,0 km/h (0 Bft) W-SW 247 0 min -8,8 C 0,0 km/h (0 Bft)
27.02.2016 04:25 -7,0 C -7,3 C 87 % 1003,2 hPa 0,0 mm 0,0 km/h (0 Bft) W-SW 247 0 min -8,8 C 0,0 km/h (0 Bft)
27.02.2016 04:26 -7,0 C -7,2 C 87 % 1003,2 hPa 0,0 mm 0,0 km/h (0 Bft) W-SW 247 0 min -8,8 C 0,0 km/h (0 Bft)
27.02.2016 04:27 -7,0 C -7,2 C 87 % 1003,2 hPa 0,0 mm 0,0 km/h (0 Bft) W-SW 247 0 min -8,8 C 0,0 km/h (0 Bft)
27.02.2016 04:28 -6,8 C -7,0 C 87 % 1003,2 hPa 0,0 mm 0,0 km/h (0 Bft) S-SW 202 0 min -8,6 C 0,0 km/h (0 Bft)
27.02.2016 04:29 -6,8 C -7,0 C 87 % 1003,1 hPa 0,0 mm 0,0 km/h (0 Bft) S-SW 202 0 min -8,6 C 0,0 km/h (0 Bft)
27.02.2016 04:30 -7,0 C -6,9 C 82 % 1003,1 hPa 0,0 mm 0,0 km/h (0 Bft) N-NW 337 0 min -9,5 C 0,0 km/h (0 Bft)
27.02.2016 04:31 -7,0 C -6,9 C 82 % 1003,1 hPa 0,0 mm 0,0 km/h (0 Bft) N-NW 337 0 min -9,5 C 0,0 km/h (0 Bft)
27.02.2016 04:32 -7,1 C -7,2 C 87 % 1003,1 hPa 0,0 mm 0,0 km/h (0 Bft) NW 315 0 min -8,9 C 3,0 km/h (1 Bft)
27.02.2016 04:33 -7,1 C -7,2 C 87 % 1003,1 hPa 0,0 mm 0,0 km/h (0 Bft) NW 315 0 min -8,9 C 3,0 km/h (1 Bft)
27.02.2016 04:34 -7,3 C -7,3 C 87 % 1003,1 hPa 0,0 mm 0,3 km/h (0 Bft) W 270 0 min -9,1 C 0,0 km/h (0 Bft)
27.02.2016 04:35 -7,3 C -7,3 C 87 % 1003,1 hPa 0,0 mm 0,3 km/h (0 Bft) W 270 0 min -9,1 C 0,0 km/h (0 Bft)
27.02.2016 04:36 -7,3 C -7,4 C 87 % 1003,1 hPa 0,0 mm 0,3 km/h (0 Bft) W-SW 247 0 min -9,1 C 4,5 km/h (1 Bft)
27.02.2016 04:37 -7,3 C -7,4 C 87 % 1003,1 hPa 0,0 mm 0,3 km/h (0 Bft) W-SW 247 0 min -9,1 C 0,0 km/h (0 Bft)
27.02.2016 04:38 -7,2 C -7,3 C 87 % 1003,1 hPa 0,0 mm 0,3 km/h (0 Bft) O-NO 67 0 min -9,0 C 0,0 km/h (0 Bft)
27.02.2016 04:39 -7,2 C -7,3 C 87 % 1003,1 hPa 0,0 mm 0,3 km/h (0 Bft) O-NO 67 0 min -9,0 C 0,0 km/h (0 Bft)
27.02.2016 04:40 -7,4 C -7,5 C 87 % 1003,1 hPa 0,0 mm 0,3 km/h (0 Bft) W-SW 247 0 min -9,2 C 0,0 km/h (0 Bft)
27.02.2016 04:41 -7,4 C -7,5 C 87 % 1003,1 hPa 0,0 mm 0,3 km/h (0 Bft) W-SW 247 0 min -9,2 C 0,0 km/h (0 Bft)
27.02.2016 04:42 -7,3 C -7,5 C 87 % 1003,1 hPa 0,0 mm 0,3 km/h (0 Bft) O 90 0 min -9,1 C 0,0 km/h (0 Bft)
27.02.2016 04:43 -7,3 C -7,5 C 87 % 1003,1 hPa 0,0 mm 0,3 km/h (0 Bft) O 90 0 min -9,1 C 0,0 km/h (0 Bft)
27.02.2016 04:44 -7,3 C -7,5 C 87 % 1003,1 hPa 0,0 mm 0,0 km/h (0 Bft) O-NO 67 0 min -9,1 C 0,0 km/h (0 Bft)
27.02.2016 04:45 -7,3 C -7,5 C 87 % 1003,1 hPa 0,0 mm 0,0 km/h (0 Bft) O-NO 67 0 min -9,1 C 0,0 km/h (0 Bft)
27.02.2016 04:46 -7,5 C -7,6 C 87 % 1003,1 hPa 0,0 mm 0,0 km/h (0 Bft) NW 315 0 min -9,3 C 0,0 km/h (0 Bft)
27.02.2016 04:47 -7,5 C -7,6 C 87 % 1003,1 hPa 0,0 mm 0,0 km/h (0 Bft) NW 315 0 min -9,3 C 0,0 km/h (0 Bft)
27.02.2016 04:48 -7,6 C -7,7 C 87 % 1003,0 hPa 0,0 mm 0,0 km/h (0 Bft) W-NW 292 0 min -9,4 C 0,0 km/h (0 Bft)
27.02.2016 04:49 -7,6 C -7,7 C 87 % 1003,0 hPa 0,0 mm 0,0 km/h (0 Bft) W-NW 292 0 min -9,4 C 0,0 km/h (0 Bft)
27.02.2016 04:50 -7,6 C -7,8 C 87 % 1003,0 hPa 0,0 mm 0,0 km/h (0 Bft) W-SW 247 0 min -9,4 C 0,0 km/h (0 Bft)
27.02.2016 04:51 -7,6 C -7,8 C 87 % 1003,0 hPa 0,0 mm 0,0 km/h (0 Bft) W-SW 247 0 min -9,4 C 0,0 km/h (0 Bft)
27.02.2016 04:52 -7,5 C -7,7 C 87 % 1003,0 hPa 0,0 mm 0,0 km/h (0 Bft) W-SW 247 0 min -9,3 C 0,0 km/h (0 Bft)
27.02.2016 04:53 -7,5 C -7,7 C 87 % 1003,0 hPa 0,0 mm 0,0 km/h (0 Bft) W-SW 247 0 min -9,3 C 0,0 km/h (0 Bft)
27.02.2016 04:54 -7,3 C -7,6 C 87 % 1003,0 hPa 0,0 mm 0,0 km/h (0 Bft) W 270 0 min -9,1 C 0,0 km/h (0 Bft)
27.02.2016 04:55 -7,3 C -7,6 C 87 % 1003,0 hPa 0,0 mm 0,0 km/h (0 Bft) W 270 0 min -9,1 C 0,0 km/h (0 Bft)
27.02.2016 04:56 -7,3 C -7,6 C 87 % 1003,0 hPa 0,0 mm 0,0 km/h (0 Bft) W-NW 292 0 min -9,1 C 0,0 km/h (0 Bft)
27.02.2016 04:57 -7,3 C -7,6 C 87 % 1003,0 hPa 0,0 mm 0,0 km/h (0 Bft) W-NW 292 0 min -9,1 C 0,0 km/h (0 Bft)
27.02.2016 04:58 -7,3 C -7,6 C 87 % 1003,0 hPa 0,0 mm 0,0 km/h (0 Bft) SW 225 0 min -9,1 C 0,0 km/h (0 Bft)
27.02.2016 04:59 -7,3 C -7,6 C 87 % 1003,0 hPa 0,0 mm 0,0 km/h (0 Bft) SW 225 0 min -9,1 C 0,0 km/h (0 Bft)
27.02.2016 05:00 -7,2 C -7,5 C 87 % 1003,0 hPa 0,0 mm 0,0 km/h (0 Bft) W-SW 247 0 min -9,0 C 0,0 km/h (0 Bft)
27.02.2016 05:01 -7,2 C -7,5 C 87 % 1003,0 hPa 0,0 mm 0,0 km/h (0 Bft) W-SW 247 0 min -9,0 C 0,0 km/h (0 Bft)
27.02.2016 05:02 -7,1 C -7,5 C 87 % 1003,0 hPa 0,0 mm 0,0 km/h (0 Bft) W-NW 292 0 min -8,9 C 0,0 km/h (0 Bft)
27.02.2016 05:03 -7,1 C -7,5 C 87 % 1003,0 hPa 0,0 mm 0,0 km/h (0 Bft) W-NW 292 0 min -8,9 C 0,0 km/h (0 Bft)
27.02.2016 05:04 -7,0 C -7,4 C 87 % 1003,0 hPa 0,0 mm 0,0 km/h (0 Bft) SO 135 0 min -8,8 C 0,0 km/h (0 Bft)
27.02.2016 05:05 -7,0 C -7,4 C 87 % 1003,0 hPa 0,0 mm 0,0 km/h (0 Bft) SO 135 0 min -8,8 C 0,0 km/h (0 Bft)
27.02.2016 05:06 -7,0 C -7,2 C 82 % 1003,0 hPa 0,0 mm 0,0 km/h (0 Bft) W-SW 247 0 min -9,5 C 0,0 km/h (0 Bft)
27.02.2016 05:07 -7,0 C -7,2 C 82 % 1003,0 hPa 0,0 mm 0,0 km/h (0 Bft) W-SW 247 0 min -9,5 C 0,0 km/h (0 Bft)
27.02.2016 05:08 -7,0 C -7,3 C 87 % 1003,0 hPa 0,0 mm 0,0 km/h (0 Bft) W-SW 247 0 min -8,8 C 0,0 km/h (0 Bft)
27.02.2016 05:09 -7,0 C -7,3 C 87 % 1002,9 hPa 0,0 mm 0,0 km/h (0 Bft) W-SW 247 0 min -8,8 C 0,0 km/h (0 Bft)
27.02.2016 05:10 -7,2 C -7,4 C 87 % 1002,9 hPa 0,0 mm 0,0 km/h (0 Bft) SW 225 0 min -9,0 C 0,0 km/h (0 Bft)
27.02.2016 05:12 -7,3 C -7,5 C 87 % 1002,9 hPa 0,0 mm 0,0 km/h (0 Bft) W 270 0 min -9,1 C 0,0 km/h (0 Bft)
27.02.2016 05:13 -7,3 C -7,5 C 87 % 1002,9 hPa 0,0 mm 0,0 km/h (0 Bft) W 270 0 min -9,1 C 0,0 km/h (0 Bft)
27.02.2016 05:14 -7,3 C -7,5 C 87 % 1002,9 hPa 0,0 mm 0,0 km/h (0 Bft) W-NW 292 0 min -9,1 C 0,0 km/h (0 Bft)
27.02.2016 05:15 -7,3 C -7,5 C 87 % 1002,9 hPa 0,0 mm 0,0 km/h (0 Bft) W-NW 292 0 min -9,1 C 0,0 km/h (0 Bft)
27.02.2016 05:16 -7,5 C -7,6 C 87 % 1002,9 hPa 0,0 mm 0,0 km/h (0 Bft) S 180 0 min -9,3 C 0,0 km/h (0 Bft)
27.02.2016 05:17 -7,5 C -7,6 C 87 % 1002,9 hPa 0,0 mm 0,0 km/h (0 Bft) S 180 0 min -9,3 C 0,0 km/h (0 Bft)
27.02.2016 05:18 -7,1 C -7,4 C 87 % 1002,9 hPa 0,0 mm 0,0 km/h (0 Bft) W-SW 247 0 min -8,9 C 0,0 km/h (0 Bft)
27.02.2016 05:19 -7,1 C -7,4 C 87 % 1002,9 hPa 0,0 mm 0,0 km/h (0 Bft) W-SW 247 0 min -8,9 C 0,0 km/h (0 Bft)
27.02.2016 05:20 -7,0 C -7,3 C 87 % 1002,9 hPa 0,0 mm 0,0 km/h (0 Bft) W-SW 247 0 min -8,8 C 0,0 km/h (0 Bft)
27.02.2016 05:21 -7,0 C -7,3 C 87 % 1002,9 hPa 0,0 mm 0,0 km/h (0 Bft) W-SW 247 0 min -8,8 C 0,0 km/h (0 Bft)
27.02.2016 05:22 -7,1 C -7,3 C 87 % 1002,9 hPa 0,0 mm 0,6 km/h (0 Bft) W 270 0 min -8,9 C 4,5 km/h (1 Bft)
27.02.2016 05:23 -7,1 C -7,3 C 87 % 1002,9 hPa 0,0 mm 0,6 km/h (0 Bft) W 270 0 min -8,9 C 4,5 km/h (1 Bft)
27.02.2016 05:24 -7,2 C -7,3 C 87 % 1002,9 hPa 0,0 mm 0,6 km/h (0 Bft) W-NW 292 0 min -9,0 C 0,0 km/h (0 Bft)
27.02.2016 05:25 -7,2 C -7,3 C 87 % 1002,9 hPa 0,0 mm 0,6 km/h (0 Bft) W-NW 292 0 min -9,0 C 0,0 km/h (0 Bft)
27.02.2016 05:26 -7,4 C -7,5 C 87 % 1002,9 hPa 0,0 mm 0,6 km/h (0 Bft) N-NO 22 0 min -9,2 C 6,3 km/h (2 Bft)
27.02.2016 05:27 -7,4 C -7,5 C 87 % 1002,9 hPa 0,0 mm 0,6 km/h (0 Bft) N-NO 22 0 min -9,2 C 0,0 km/h (0 Bft)
27.02.2016 05:28 -7,5 C -7,6 C 87 % 1002,9 hPa 0,0 mm 0,9 km/h (0 Bft) O-SO 112 0 min -9,3 C 0,0 km/h (0 Bft)
27.02.2016 05:29 -7,5 C -7,6 C 87 % 1002,9 hPa 0,0 mm 0,9 km/h (0 Bft) O-SO 112 0 min -9,3 C 0,0 km/h (0 Bft)
27.02.2016 05:30 -7,4 C -7,6 C 87 % 1002,9 hPa 0,0 mm 0,9 km/h (0 Bft) SW 225 0 min -9,2 C 0,0 km/h (0 Bft)
27.02.2016 05:31 -7,4 C -7,6 C 87 % 1002,9 hPa 0,0 mm 0,9 km/h (0 Bft) SW 225 0 min -9,2 C 0,0 km/h (0 Bft)
27.02.2016 05:32 -6,9 C -7,2 C 87 % 1002,9 hPa 0,0 mm 0,9 km/h (0 Bft) W-SW 247 0 min -8,7 C 0,0 km/h (0 Bft)
27.02.2016 05:33 -6,9 C -7,2 C 87 % 1002,9 hPa 0,0 mm 0,9 km/h (0 Bft) W-SW 247 0 min -8,7 C 0,0 km/h (0 Bft)
27.02.2016 05:34 -6,7 C -7,0 C 87 % 1002,9 hPa 0,0 mm 0,3 km/h (0 Bft) N-NO 22 0 min -8,5 C 0,0 km/h (0 Bft)
27.02.2016 05:35 -6,7 C -7,0 C 87 % 1002,9 hPa 0,0 mm 0,3 km/h (0 Bft) N-NO 22 0 min -8,5 C 0,0 km/h (0 Bft)
27.02.2016 05:36 -7,0 C -7,0 C 83 % 1002,9 hPa 0,0 mm 0,3 km/h (0 Bft) S-SO 157 0 min -9,4 C 0,0 km/h (0 Bft)
27.02.2016 05:37 -7,0 C -7,0 C 83 % 1002,9 hPa 0,0 mm 0,3 km/h (0 Bft) S-SO 157 0 min -9,4 C 0,0 km/h (0 Bft)
27.02.2016 05:38 -7,0 C -7,0 C 83 % 1002,9 hPa 0,0 mm 0,0 km/h (0 Bft) S 180 0 min -9,4 C 0,0 km/h (0 Bft)
27.02.2016 05:39 -7,0 C -7,0 C 83 % 1002,9 hPa 0,0 mm 0,0 km/h (0 Bft) S 180 0 min -9,4 C 0,0 km/h (0 Bft)
27.02.2016 05:40 -7,0 C -6,6 C 83 % 1002,9 hPa 0,0 mm 0,0 km/h (0 Bft) SW 225 0 min -9,4 C 0,0 km/h (0 Bft)
27.02.2016 05:41 -7,0 C -6,6 C 83 % 1002,9 hPa 0,0 mm 0,0 km/h (0 Bft) SW 225 0 min -9,4 C 0,0 km/h (0 Bft)
27.02.2016 05:42 -7,0 C -6,6 C 83 % 1002,9 hPa 0,0 mm 0,0 km/h (0 Bft) W-SW 247 0 min -9,4 C 0,0 km/h (0 Bft)
27.02.2016 05:43 -7,0 C -6,6 C 83 % 1002,9 hPa 0,0 mm 0,0 km/h (0 Bft) W-SW 247 0 min -9,4 C 0,0 km/h (0 Bft)
27.02.2016 05:44 -6,4 C -6,4 C 83 % 1002,9 hPa 0,0 mm 0,0 km/h (0 Bft) S-SW 202 0 min -8,8 C 0,0 km/h (0 Bft)
27.02.2016 05:45 -6,4 C -6,4 C 83 % 1002,9 hPa 0,0 mm 0,0 km/h (0 Bft) S-SW 202 0 min -8,8 C 0,0 km/h (0 Bft)
27.02.2016 05:46 -6,1 C -6,0 C 83 % 1002,9 hPa 0,0 mm 0,0 km/h (0 Bft) SW 225 0 min -8,5 C 0,0 km/h (0 Bft)
27.02.2016 05:47 -6,1 C -6,0 C 83 % 1002,9 hPa 0,0 mm 0,0 km/h (0 Bft) SW 225 0 min -8,5 C 0,0 km/h (0 Bft)
27.02.2016 05:48 -5,8 C -5,7 C 83 % 1003,0 hPa 0,0 mm 0,0 km/h (0 Bft) W-SW 247 0 min -8,2 C 0,0 km/h (0 Bft)
27.02.2016 05:49 -5,8 C -5,7 C 83 % 1003,0 hPa 0,0 mm 0,0 km/h (0 Bft) W-SW 247 0 min -8,2 C 0,0 km/h (0 Bft)
27.02.2016 05:50 -5,7 C -5,8 C 83 % 1003,0 hPa 0,0 mm 0,3 km/h (0 Bft) NW 315 0 min -8,1 C 3,3 km/h (1 Bft)
27.02.2016 05:51 -5,7 C -5,8 C 83 % 1003,0 hPa 0,0 mm 0,3 km/h (0 Bft) NW 315 0 min -8,1 C 3,3 km/h (1 Bft)
27.02.2016 05:52 -5,8 C -6,0 C 88 % 1003,0 hPa 0,0 mm 0,3 km/h (0 Bft) W 270 0 min -7,5 C 0,0 km/h (0 Bft)
27.02.2016 05:53 -5,8 C -6,0 C 88 % 1003,0 hPa 0,0 mm 0,3 km/h (0 Bft) W 270 0 min -7,5 C 0,0 km/h (0 Bft)
27.02.2016 05:54 -6,2 C -6,3 C 88 % 1003,0 hPa 0,0 mm 0,3 km/h (0 Bft) SW 225 0 min -7,9 C 0,0 km/h (0 Bft)
27.02.2016 05:55 -6,2 C -6,3 C 88 % 1003,0 hPa 0,0 mm 0,3 km/h (0 Bft) SW 225 0 min -7,9 C 0,0 km/h (0 Bft)
27.02.2016 05:56 -6,3 C -6,4 C 88 % 1003,0 hPa 0,0 mm 0,3 km/h (0 Bft) SW 225 0 min -8,0 C 0,0 km/h (0 Bft)
27.02.2016 05:57 -6,3 C -6,4 C 88 % 1003,0 hPa 0,0 mm 0,3 km/h (0 Bft) SW 225 0 min -8,0 C 0,0 km/h (0 Bft)
27.02.2016 05:58 -6,5 C -6,5 C 88 % 1003,0 hPa 0,0 mm 0,3 km/h (0 Bft) W-SW 247 0 min -8,1 C 0,0 km/h (0 Bft)
27.02.2016 05:59 -6,5 C -6,5 C 88 % 1003,0 hPa 0,0 mm 0,3 km/h (0 Bft) W-SW 247 0 min -8,1 C 0,0 km/h (0 Bft)
27.02.2016 06:00 -6,5 C -6,6 C 88 % 1003,0 hPa 0,0 mm 0,3 km/h (0 Bft) W 270 0 min -8,1 C 0,0 km/h (0 Bft)
27.02.2016 06:01 -6,5 C -6,6 C 88 % 1003,0 hPa 0,0 mm 0,3 km/h (0 Bft) W 270 0 min -8,1 C 0,0 km/h (0 Bft)
27.02.2016 06:02 -6,6 C -6,6 C 88 % 1003,0 hPa 0,0 mm 0,0 km/h (0 Bft) W 270 0 min -8,2 C 0,0 km/h (0 Bft)
27.02.2016 06:03 -6,6 C -6,6 C 88 % 1003,0 hPa 0,0 mm 0,0 km/h (0 Bft) W 270 0 min -8,2 C 0,0 km/h (0 Bft)
27.02.2016 06:04 -6,6 C -6,6 C 83 % 1003,0 hPa 0,0 mm 0,0 km/h (0 Bft) W-SW 247 0 min -9,0 C 0,0 km/h (0 Bft)
27.02.2016 06:05 -6,6 C -6,6 C 83 % 1003,0 hPa 0,0 mm 0,0 km/h (0 Bft) W-SW 247 0 min -9,0 C 0,0 km/h (0 Bft)
27.02.2016 06:06 -6,6 C -6,5 C 83 % 1003,0 hPa 0,0 mm 0,0 km/h (0 Bft) O-NO 67 0 min -9,0 C 0,0 km/h (0 Bft)
27.02.2016 06:07 -6,6 C -6,5 C 83 % 1003,0 hPa 0,0 mm 0,0 km/h (0 Bft) O-NO 67 0 min -9,0 C 0,0 km/h (0 Bft)
27.02.2016 06:08 -6,4 C -6,5 C 88 % 1003,0 hPa 0,0 mm 0,0 km/h (0 Bft) O-NO 67 0 min -8,1 C 0,0 km/h (0 Bft)
27.02.2016 06:09 -6,4 C -6,5 C 88 % 1002,9 hPa 0,0 mm 0,0 km/h (0 Bft) O-NO 67 0 min -8,1 C 0,0 km/h (0 Bft)
27.02.2016 06:10 -6,4 C -6,5 C 88 % 1002,9 hPa 0,0 mm 0,0 km/h (0 Bft) S-SW 202 0 min -8,1 C 0,0 km/h (0 Bft)
27.02.2016 06:11 -6,4 C -6,5 C 88 % 1002,9 hPa 0,0 mm 0,0 km/h (0 Bft) S-SW 202 0 min -8,1 C 0,0 km/h (0 Bft)
27.02.2016 06:12 -6,4 C -6,5 C 88 % 1002,9 hPa 0,0 mm 0,0 km/h (0 Bft) NW 315 0 min -8,1 C 0,0 km/h (0 Bft)
27.02.2016 06:13 -6,4 C -6,5 C 88 % 1002,9 hPa 0,0 mm 0,0 km/h (0 Bft) NW 315 0 min -8,1 C 0,0 km/h (0 Bft)
27.02.2016 06:14 -6,4 C -6,5 C 88 % 1002,9 hPa 0,0 mm 0,0 km/h (0 Bft) N-NW 337 0 min -8,1 C 0,0 km/h (0 Bft)
27.02.2016 06:15 -6,4 C -6,5 C 88 % 1002,9 hPa 0,0 mm 0,0 km/h (0 Bft) N-NW 337 0 min -8,1 C 0,0 km/h (0 Bft)
27.02.2016 06:16 -6,4 C -6,4 C 83 % 1002,9 hPa 0,0 mm 0,0 km/h (0 Bft) W 270 0 min -8,8 C 0,0 km/h (0 Bft)
27.02.2016 06:17 -6,4 C -6,4 C 83 % 1002,9 hPa 0,0 mm 0,0 km/h (0 Bft) W 270 0 min -8,8 C 0,0 km/h (0 Bft)
27.02.2016 06:18 -6,3 C -6,4 C 88 % 1002,9 hPa 0,0 mm 0,0 km/h (0 Bft) W-NW 292 0 min -8,0 C 0,0 km/h (0 Bft)
27.02.2016 06:19 -6,3 C -6,4 C 88 % 1002,9 hPa 0,0 mm 0,0 km/h (0 Bft) W-NW 292 0 min -8,0 C 0,0 km/h (0 Bft)
27.02.2016 06:20 -6,3 C -6,3 C 83 % 1002,9 hPa 0,0 mm 0,0 km/h (0 Bft) W-NW 292 0 min -8,7 C 0,0 km/h (0 Bft)
27.02.2016 06:21 -6,3 C -6,3 C 83 % 1002,9 hPa 0,0 mm 0,0 km/h (0 Bft) W-NW 292 0 min -8,7 C 0,0 km/h (0 Bft)
27.02.2016 06:22 -6,3 C -6,3 C 83 % 1002,9 hPa 0,0 mm 0,0 km/h (0 Bft) NW 315 0 min -8,7 C 0,0 km/h (0 Bft)
27.02.2016 06:23 -6,3 C -6,3 C 83 % 1002,9 hPa 0,0 mm 0,0 km/h (0 Bft) NW 315 0 min -8,7 C 0,0 km/h (0 Bft)
27.02.2016 06:24 -6,1 C -6,2 C 88 % 1002,9 hPa 0,0 mm 0,0 km/h (0 Bft) NW 315 0 min -7,8 C 0,0 km/h (0 Bft)
27.02.2016 06:25 -6,1 C -6,2 C 88 % 1002,9 hPa 0,0 mm 0,0 km/h (0 Bft) NW 315 0 min -7,8 C 0,0 km/h (0 Bft)
27.02.2016 06:26 -6,1 C -6,2 C 83 % 1002,9 hPa 0,0 mm 0,0 km/h (0 Bft) S-SO 157 0 min -8,5 C 0,0 km/h (0 Bft)
27.02.2016 06:27 -6,1 C -6,2 C 83 % 1002,9 hPa 0,0 mm 0,0 km/h (0 Bft) S-SO 157 0 min -8,5 C 0,0 km/h (0 Bft)
27.02.2016 06:28 -6,1 C -6,1 C 83 % 1002,9 hPa 0,0 mm 0,0 km/h (0 Bft) SW 225 0 min -8,5 C 0,0 km/h (0 Bft)
27.02.2016 06:29 -6,1 C -6,1 C 83 % 1002,9 hPa 0,0 mm 0,0 km/h (0 Bft) SW 225 0 min -8,5 C 0,0 km/h (0 Bft)
27.02.2016 06:30 -5,8 C -5,9 C 83 % 1002,9 hPa 0,0 mm 0,0 km/h (0 Bft) S 180 0 min -8,2 C 0,0 km/h (0 Bft)
27.02.2016 06:31 -5,8 C -5,9 C 83 % 1002,9 hPa 0,0 mm 0,0 km/h (0 Bft) S 180 0 min -8,2 C 0,0 km/h (0 Bft)
27.02.2016 06:32 -5,8 C -5,7 C 83 % 1002,9 hPa 0,0 mm 0,0 km/h (0 Bft) W-SW 247 0 min -8,2 C 0,0 km/h (0 Bft)
27.02.2016 06:33 -5,8 C -5,7 C 83 % 1002,9 hPa 0,0 mm 0,0 km/h (0 Bft) W-SW 247 0 min -8,2 C 0,0 km/h (0 Bft)
27.02.2016 06:34 -5,8 C -5,6 C 83 % 1002,9 hPa 0,0 mm 0,0 km/h (0 Bft) W 270 0 min -8,2 C 0,0 km/h (0 Bft)
27.02.2016 06:35 -5,8 C -5,6 C 83 % 1002,9 hPa 0,0 mm 0,0 km/h (0 Bft) W 270 0 min -8,2 C 0,0 km/h (0 Bft)
27.02.2016 06:36 -5,8 C -5,7 C 83 % 1002,9 hPa 0,0 mm 0,0 km/h (0 Bft) W 270 0 min -8,2 C 0,0 km/h (0 Bft)
27.02.2016 06:37 -5,8 C -5,7 C 83 % 1002,9 hPa 0,0 mm 0,0 km/h (0 Bft) W 270 0 min -8,2 C 0,0 km/h (0 Bft)
27.02.2016 06:38 -5,8 C -5,7 C 83 % 1002,9 hPa 0,0 mm 0,0 km/h (0 Bft) W 270 0 min -8,2 C 0,0 km/h (0 Bft)
27.02.2016 06:39 -5,8 C -5,7 C 83 % 1002,9 hPa 0,0 mm 0,0 km/h (0 Bft) W 270 0 min -8,2 C 0,0 km/h (0 Bft)
27.02.2016 06:40 -5,8 C -5,8 C 88 % 1002,9 hPa 0,0 mm 0,0 km/h (0 Bft) W-SW 247 0 min -7,5 C 0,0 km/h (0 Bft)
27.02.2016 06:41 -5,8 C -5,8 C 88 % 1002,9 hPa 0,0 mm 0,0 km/h (0 Bft) W-SW 247 0 min -7,5 C 0,0 km/h (0 Bft)
27.02.2016 06:42 -5,8 C -5,8 C 88 % 1002,9 hPa 0,0 mm 0,0 km/h (0 Bft) W 270 0 min -7,5 C 0,0 km/h (0 Bft)
27.02.2016 06:43 -5,8 C -5,8 C 88 % 1002,9 hPa 0,0 mm 0,0 km/h (0 Bft) W 270 0 min -7,5 C 0,0 km/h (0 Bft)
27.02.2016 06:44 -5,8 C -5,9 C 88 % 1002,9 hPa 0,0 mm 0,0 km/h (0 Bft) W 270 0 min -7,5 C 0,0 km/h (0 Bft)
27.02.2016 06:45 -5,8 C -5,9 C 88 % 1002,9 hPa 0,0 mm 0,0 km/h (0 Bft) W 270 0 min -7,5 C 0,0 km/h (0 Bft)
27.02.2016 06:46 -5,8 C -5,9 C 88 % 1002,9 hPa 0,0 mm 0,0 km/h (0 Bft) W 270 0 min -7,5 C 0,0 km/h (0 Bft)
27.02.2016 06:47 -5,8 C -5,9 C 88 % 1002,9 hPa 0,0 mm 0,0 km/h (0 Bft) W 270 0 min -7,5 C 0,0 km/h (0 Bft)
27.02.2016 06:48 -5,9 C -6,0 C 88 % 1002,9 hPa 0,0 mm 0,0 km/h (0 Bft) W 270 0 min -7,6 C 0,0 km/h (0 Bft)
27.02.2016 06:49 -5,9 C -6,0 C 88 % 1003,1 hPa 0,0 mm 0,0 km/h (0 Bft) W 270 0 min -7,6 C 0,0 km/h (0 Bft)
27.02.2016 06:50 -6,0 C -6,1 C 88 % 1003,1 hPa 0,0 mm 0,0 km/h (0 Bft) W 270 0 min -7,7 C 0,0 km/h (0 Bft)
27.02.2016 06:51 -6,0 C -6,1 C 88 % 1003,1 hPa 0,0 mm 0,0 km/h (0 Bft) W 270 0 min -7,7 C 0,0 km/h (0 Bft)
27.02.2016 06:52 -5,9 C -6,0 C 88 % 1003,1 hPa 0,0 mm 0,0 km/h (0 Bft) W 270 0 min -7,6 C 0,0 km/h (0 Bft)
27.02.2016 06:53 -5,9 C -6,0 C 88 % 1003,1 hPa 0,0 mm 0,0 km/h (0 Bft) W 270 0 min -7,6 C 0,0 km/h (0 Bft)
27.02.2016 06:54 -5,9 C -6,1 C 88 % 1003,1 hPa 0,0 mm 0,0 km/h (0 Bft) W-SW 247 0 min -7,6 C 0,0 km/h (0 Bft)
27.02.2016 06:55 -5,9 C -6,1 C 88 % 1003,1 hPa 0,0 mm 0,0 km/h (0 Bft) W-SW 247 0 min -7,6 C 0,0 km/h (0 Bft)
27.02.2016 06:56 -6,0 C -6,1 C 88 % 1003,1 hPa 0,0 mm 0,0 km/h (0 Bft) W 270 0 min -7,7 C 0,0 km/h (0 Bft)
27.02.2016 06:57 -6,0 C -6,1 C 88 % 1003,1 hPa 0,0 mm 0,0 km/h (0 Bft) W 270 0 min -7,7 C 0,0 km/h (0 Bft)
27.02.2016 06:58 -6,0 C -6,1 C 88 % 1003,1 hPa 0,0 mm 0,0 km/h (0 Bft) W 270 0 min -7,7 C 0,0 km/h (0 Bft)
27.02.2016 06:59 -6,0 C -6,1 C 88 % 1003,1 hPa 0,0 mm 0,0 km/h (0 Bft) W 270 0 min -7,7 C 0,0 km/h (0 Bft)
27.02.2016 07:00 -6,0 C -6,1 C 88 % 1003,1 hPa 0,0 mm 0,0 km/h (0 Bft) W-SW 247 0 min -7,7 C 0,0 km/h (0 Bft)
27.02.2016 07:01 -6,0 C -6,1 C 88 % 1003,1 hPa 0,0 mm 0,0 km/h (0 Bft) W-SW 247 0 min -7,7 C 0,0 km/h (0 Bft)
27.02.2016 07:02 -5,6 C -5,8 C 83 % 1003,1 hPa 0,0 mm 0,0 km/h (0 Bft) S 180 0 min -8,0 C 0,0 km/h (0 Bft)
27.02.2016 07:03 -5,6 C -5,8 C 83 % 1003,1 hPa 0,0 mm 0,0 km/h (0 Bft) S 180 0 min -8,0 C 0,0 km/h (0 Bft)
27.02.2016 07:04 -5,3 C -5,4 C 83 % 1003,1 hPa 0,0 mm 0,0 km/h (0 Bft) S-SW 202 0 min -7,7 C 0,0 km/h (0 Bft)
27.02.2016 07:05 -5,3 C -5,4 C 83 % 1003,1 hPa 0,0 mm 0,0 km/h (0 Bft) S-SW 202 0 min -7,7 C 0,0 km/h (0 Bft)
27.02.2016 07:06 -5,0 C -5,2 C 84 % 1003,1 hPa 0,0 mm 0,0 km/h (0 Bft) W-SW 247 0 min -7,3 C 0,0 km/h (0 Bft)
27.02.2016 07:07 -5,0 C -5,2 C 84 % 1003,1 hPa 0,0 mm 0,0 km/h (0 Bft) W-SW 247 0 min -7,3 C 0,0 km/h (0 Bft)
27.02.2016 07:08 -4,7 C -5,1 C 89 % 1003,1 hPa 0,0 mm 0,0 km/h (0 Bft) W-SW 247 0 min -6,2 C 0,0 km/h (0 Bft)
27.02.2016 07:09 -4,7 C -5,1 C 89 % 1003,2 hPa 0,0 mm 0,0 km/h (0 Bft) W-SW 247 0 min -6,2 C 0,0 km/h (0 Bft)
27.02.2016 07:10 -4,9 C -5,2 C 89 % 1003,2 hPa 0,0 mm 0,0 km/h (0 Bft) W 270 0 min -6,4 C 0,0 km/h (0 Bft)
27.02.2016 07:11 -4,9 C -5,2 C 89 % 1003,2 hPa 0,0 mm 0,0 km/h (0 Bft) W 270 0 min -6,4 C 0,0 km/h (0 Bft)
27.02.2016 07:12 -5,3 C -5,4 C 88 % 1003,2 hPa 0,0 mm 0,0 km/h (0 Bft) S-SW 202 0 min -7,0 C 0,0 km/h (0 Bft)
27.02.2016 07:13 -5,3 C -5,4 C 88 % 1003,2 hPa 0,0 mm 0,0 km/h (0 Bft) S-SW 202 0 min -7,0 C 0,0 km/h (0 Bft)
27.02.2016 07:14 -5,3 C -5,4 C 88 % 1003,2 hPa 0,0 mm 0,0 km/h (0 Bft) SW 225 0 min -7,0 C 0,0 km/h (0 Bft)
27.02.2016 07:15 -5,3 C -5,4 C 88 % 1003,2 hPa 0,0 mm 0,0 km/h (0 Bft) SW 225 0 min -7,0 C 0,0 km/h (0 Bft)
27.02.2016 07:16 -5,4 C -5,5 C 88 % 1003,2 hPa 0,0 mm 0,0 km/h (0 Bft) W-SW 247 0 min -7,1 C 0,0 km/h (0 Bft)
27.02.2016 07:17 -5,4 C -5,5 C 88 % 1003,2 hPa 0,0 mm 0,0 km/h (0 Bft) W-SW 247 0 min -7,1 C 0,0 km/h (0 Bft)
27.02.2016 07:18 -5,3 C -5,4 C 88 % 1003,2 hPa 0,0 mm 0,0 km/h (0 Bft) W-SW 247 0 min -7,0 C 0,0 km/h (0 Bft)
27.02.2016 07:19 -5,3 C -5,4 C 88 % 1003,2 hPa 0,0 mm 0,0 km/h (0 Bft) W-SW 247 0 min -7,0 C 0,0 km/h (0 Bft)
27.02.2016 07:20 -5,1 C -5,3 C 88 % 1003,2 hPa 0,0 mm 0,0 km/h (0 Bft) O-SO 112 0 min -6,8 C 0,0 km/h (0 Bft)
27.02.2016 07:21 -5,1 C -5,3 C 88 % 1003,2 hPa 0,0 mm 0,0 km/h (0 Bft) O-SO 112 0 min -6,8 C 0,0 km/h (0 Bft)
27.02.2016 07:22 -5,1 C -5,2 C 88 % 1003,2 hPa 0,0 mm 0,0 km/h (0 Bft) SW 225 0 min -6,8 C 0,0 km/h (0 Bft)
27.02.2016 07:23 -5,1 C -5,2 C 88 % 1003,2 hPa 0,0 mm 0,0 km/h (0 Bft) SW 225 0 min -6,8 C 0,0 km/h (0 Bft)
27.02.2016 07:24 -5,1 C -5,2 C 88 % 1003,2 hPa 0,0 mm 0,0 km/h (0 Bft) W 270 0 min -6,8 C 0,0 km/h (0 Bft)
27.02.2016 07:25 -5,1 C -5,2 C 88 % 1003,2 hPa 0,0 mm 0,0 km/h (0 Bft) W 270 0 min -6,8 C 0,0 km/h (0 Bft)
27.02.2016 07:26 -5,1 C -5,2 C 88 % 1003,2 hPa 0,0 mm 0,0 km/h (0 Bft) NW 315 0 min -6,8 C 0,0 km/h (0 Bft)
27.02.2016 07:27 -5,1 C -5,2 C 88 % 1003,2 hPa 0,0 mm 0,0 km/h (0 Bft) NW 315 0 min -6,8 C 0,0 km/h (0 Bft)
27.02.2016 07:28 -5,1 C -5,2 C 88 % 1003,2 hPa 0,0 mm 0,0 km/h (0 Bft) SW 225 0 min -6,8 C 0,0 km/h (0 Bft)
27.02.2016 07:29 -5,1 C -5,2 C 88 % 1003,2 hPa 0,0 mm 0,0 km/h (0 Bft) SW 225 0 min -6,8 C 0,0 km/h (0 Bft)
27.02.2016 07:30 -5,1 C -5,2 C 88 % 1003,2 hPa 0,0 mm 0,0 km/h (0 Bft) S 180 0 min -6,8 C 0,0 km/h (0 Bft)
27.02.2016 07:31 -5,1 C -5,2 C 88 % 1003,2 hPa 0,0 mm 0,0 km/h (0 Bft) S 180 0 min -6,8 C 0,0 km/h (0 Bft)
27.02.2016 07:32 -5,1 C -5,0 C 84 % 1003,2 hPa 0,0 mm 0,0 km/h (0 Bft) SO 135 0 min -7,4 C 0,0 km/h (0 Bft)
27.02.2016 07:33 -5,1 C -5,0 C 84 % 1003,2 hPa 0,0 mm 0,0 km/h (0 Bft) SO 135 0 min -7,4 C 0,0 km/h (0 Bft)
27.02.2016 07:34 -5,1 C -4,9 C 84 % 1003,2 hPa 0,0 mm 0,0 km/h (0 Bft) W-SW 247 0 min -7,4 C 0,0 km/h (0 Bft)
27.02.2016 07:35 -5,1 C -4,9 C 84 % 1003,2 hPa 0,0 mm 0,0 km/h (0 Bft) W-SW 247 0 min -7,4 C 0,0 km/h (0 Bft)
27.02.2016 07:36 -5,1 C -4,9 C 84 % 1003,2 hPa 0,0 mm 0,0 km/h (0 Bft) W-SW 247 0 min -7,4 C 0,0 km/h (0 Bft)
27.02.2016 07:37 -5,1 C -4,9 C 84 % 1003,2 hPa 0,0 mm 0,0 km/h (0 Bft) W-SW 247 0 min -7,4 C 0,0 km/h (0 Bft)
27.02.2016 07:38 -5,1 C -4,8 C 84 % 1003,2 hPa 0,0 mm 0,0 km/h (0 Bft) W-SW 247 0 min -7,4 C 0,0 km/h (0 Bft)
27.02.2016 07:39 -5,1 C -4,8 C 84 % 1003,2 hPa 0,0 mm 0,0 km/h (0 Bft) W-SW 247 0 min -7,4 C 0,0 km/h (0 Bft)
27.02.2016 07:40 -5,1 C -4,7 C 84 % 1003,2 hPa 0,0 mm 0,0 km/h (0 Bft) W 270 0 min -7,4 C 0,0 km/h (0 Bft)
27.02.2016 07:41 -5,1 C -4,7 C 84 % 1003,2 hPa 0,0 mm 0,0 km/h (0 Bft) W 270 0 min -7,4 C 0,0 km/h (0 Bft)
27.02.2016 07:42 -5,1 C -4,7 C 84 % 1003,2 hPa 0,0 mm 0,0 km/h (0 Bft) W-SW 247 0 min -7,4 C 0,0 km/h (0 Bft)
27.02.2016 07:43 -5,1 C -4,7 C 84 % 1003,2 hPa 0,0 mm 0,0 km/h (0 Bft) W-SW 247 0 min -7,4 C 0,0 km/h (0 Bft)
27.02.2016 07:44 -5,1 C -4,6 C 84 % 1003,2 hPa 0,0 mm 0,0 km/h (0 Bft) W-SW 247 0 min -7,4 C 0,0 km/h (0 Bft)
27.02.2016 07:45 -5,1 C -4,6 C 84 % 1003,2 hPa 0,0 mm 0,0 km/h (0 Bft) W-SW 247 0 min -7,4 C 0,0 km/h (0 Bft)
27.02.2016 07:46 -5,1 C -4,6 C 84 % 1003,2 hPa 0,0 mm 0,0 km/h (0 Bft) N-NW 337 0 min -7,4 C 0,0 km/h (0 Bft)
27.02.2016 07:47 -5,1 C -4,6 C 84 % 1003,2 hPa 0,0 mm 0,0 km/h (0 Bft) N-NW 337 0 min -7,4 C 0,0 km/h (0 Bft)
27.02.2016 07:48 -5,1 C -4,6 C 84 % 1003,2 hPa 0,0 mm 0,0 km/h (0 Bft) W 270 0 min -7,4 C 0,0 km/h (0 Bft)
27.02.2016 07:49 -5,1 C -4,6 C 84 % 1003,4 hPa 0,0 mm 0,0 km/h (0 Bft) W 270 0 min -7,4 C 0,0 km/h (0 Bft)
27.02.2016 07:50 -5,1 C -4,5 C 84 % 1003,4 hPa 0,0 mm 0,0 km/h (0 Bft) NW 315 0 min -7,4 C 0,0 km/h (0 Bft)
27.02.2016 07:51 -5,1 C -4,5 C 84 % 1003,4 hPa 0,0 mm 0,0 km/h (0 Bft) NW 315 0 min -7,4 C 0,0 km/h (0 Bft)
27.02.2016 07:52 -5,1 C -4,6 C 84 % 1003,4 hPa 0,0 mm 0,0 km/h (0 Bft) W-SW 247 0 min -7,4 C 0,0 km/h (0 Bft)
27.02.2016 07:53 -5,1 C -4,6 C 84 % 1003,4 hPa 0,0 mm 0,0 km/h (0 Bft) W-SW 247 0 min -7,4 C 0,0 km/h (0 Bft)
27.02.2016 07:54 -5,1 C -4,5 C 84 % 1003,4 hPa 0,0 mm 0,0 km/h (0 Bft) W 270 0 min -7,4 C 0,0 km/h (0 Bft)
27.02.2016 07:55 -5,1 C -4,5 C 84 % 1003,4 hPa 0,0 mm 0,0 km/h (0 Bft) W 270 0 min -7,4 C 0,0 km/h (0 Bft)
27.02.2016 07:56 -5,1 C -4,4 C 84 % 1003,4 hPa 0,0 mm 0,0 km/h (0 Bft) W 270 0 min -7,4 C 0,0 km/h (0 Bft)
27.02.2016 07:57 -5,1 C -4,4 C 84 % 1003,4 hPa 0,0 mm 0,0 km/h (0 Bft) W 270 0 min -7,4 C 0,0 km/h (0 Bft)
27.02.2016 07:58 -5,1 C -4,3 C 84 % 1003,4 hPa 0,0 mm 0,0 km/h (0 Bft) W-SW 247 0 min -7,4 C 0,0 km/h (0 Bft)
27.02.2016 07:59 -5,1 C -4,3 C 84 % 1003,4 hPa 0,0 mm 0,0 km/h (0 Bft) W-SW 247 0 min -7,4 C 0,0 km/h (0 Bft)
27.02.2016 08:00 -4,7 C -4,3 C 84 % 1003,4 hPa 0,0 mm 0,0 km/h (0 Bft) W-SW 247 0 min -7,0 C 0,0 km/h (0 Bft)
27.02.2016 08:01 -4,7 C -4,3 C 84 % 1003,4 hPa 0,0 mm 0,0 km/h (0 Bft) W-SW 247 0 min -7,0 C 0,0 km/h (0 Bft)
27.02.2016 08:02 -4,6 C -4,1 C 84 % 1003,4 hPa 0,0 mm 0,0 km/h (0 Bft) W 270 0 min -6,9 C 0,0 km/h (0 Bft)
27.02.2016 08:03 -4,6 C -4,1 C 84 % 1003,4 hPa 0,0 mm 0,0 km/h (0 Bft) W 270 0 min -6,9 C 0,0 km/h (0 Bft)
27.02.2016 08:04 -4,6 C -4,0 C 84 % 1003,4 hPa 0,0 mm 0,0 km/h (0 Bft) W 270 0 min -6,9 C 0,0 km/h (0 Bft)
27.02.2016 08:05 -4,6 C -4,0 C 84 % 1003,4 hPa 0,0 mm 0,0 km/h (0 Bft) W 270 0 min -6,9 C 0,0 km/h (0 Bft)
27.02.2016 08:06 -4,5 C -3,9 C 84 % 1003,4 hPa 0,0 mm 0,0 km/h (0 Bft) W 270 0 min -6,8 C 0,0 km/h (0 Bft)
27.02.2016 08:07 -4,5 C -3,9 C 84 % 1003,4 hPa 0,0 mm 0,0 km/h (0 Bft) W 270 0 min -6,8 C 0,0 km/h (0 Bft)
27.02.2016 08:08 -4,5 C -3,8 C 84 % 1003,4 hPa 0,0 mm 0,0 km/h (0 Bft) W 270 0 min -6,8 C 0,0 km/h (0 Bft)
27.02.2016 08:09 -4,5 C -3,8 C 84 % 1003,4 hPa 0,0 mm 0,0 km/h (0 Bft) W 270 0 min -6,8 C 0,0 km/h (0 Bft)
27.02.2016 08:10 -4,5 C -3,8 C 84 % 1003,4 hPa 0,0 mm 0,0 km/h (0 Bft) W 270 0 min -6,8 C 0,0 km/h (0 Bft)
27.02.2016 08:11 -4,5 C -3,8 C 84 % 1003,4 hPa 0,0 mm 0,0 km/h (0 Bft) W 270 0 min -6,8 C 0,0 km/h (0 Bft)
27.02.2016 08:13 -4,5 C -3,7 C 84 % 1003,4 hPa 0,0 mm 0,0 km/h (0 Bft) W-NW 292 0 min -6,8 C 0,0 km/h (0 Bft)
27.02.2016 08:14 -4,3 C -3,7 C 84 % 1003,4 hPa 0,0 mm 0,0 km/h (0 Bft) W 270 0 min -6,6 C 0,0 km/h (0 Bft)
27.02.2016 08:15 -4,3 C -3,7 C 84 % 1003,4 hPa 0,0 mm 0,0 km/h (0 Bft) W 270 0 min -6,6 C 0,0 km/h (0 Bft)
27.02.2016 08:16 -4,3 C -3,7 C 84 % 1003,4 hPa 0,0 mm 0,0 km/h (0 Bft) W 270 0 min -6,6 C 0,0 km/h (0 Bft)
27.02.2016 08:17 -4,3 C -3,7 C 84 % 1003,4 hPa 0,0 mm 0,0 km/h (0 Bft) W 270 0 min -6,6 C 0,0 km/h (0 Bft)
27.02.2016 08:18 -4,3 C -3,6 C 84 % 1003,4 hPa 0,0 mm 0,0 km/h (0 Bft) W 270 0 min -6,6 C 0,0 km/h (0 Bft)
27.02.2016 08:19 -4,3 C -3,6 C 84 % 1003,4 hPa 0,0 mm 0,0 km/h (0 Bft) W 270 0 min -6,6 C 0,0 km/h (0 Bft)
27.02.2016 08:20 -4,5 C -3,6 C 84 % 1003,4 hPa 0,0 mm 0,0 km/h (0 Bft) W 270 0 min -6,8 C 0,0 km/h (0 Bft)
27.02.2016 08:21 -4,5 C -3,6 C 84 % 1003,4 hPa 0,0 mm 0,0 km/h (0 Bft) W 270 0 min -6,8 C 0,0 km/h (0 Bft)
27.02.2016 08:22 -4,5 C -3,7 C 84 % 1003,4 hPa 0,0 mm 0,0 km/h (0 Bft) W-NW 292 0 min -6,8 C 0,0 km/h (0 Bft)
27.02.2016 08:23 -4,5 C -3,7 C 84 % 1003,4 hPa 0,0 mm 0,0 km/h (0 Bft) W-NW 292 0 min -6,8 C 0,0 km/h (0 Bft)
27.02.2016 08:24 -4,6 C -3,7 C 84 % 1003,4 hPa 0,0 mm 0,0 km/h (0 Bft) W 270 0 min -6,9 C 0,0 km/h (0 Bft)
27.02.2016 08:25 -4,6 C -3,7 C 84 % 1003,4 hPa 0,0 mm 0,0 km/h (0 Bft) W 270 0 min -6,9 C 0,0 km/h (0 Bft)
27.02.2016 08:26 -4,6 C -3,7 C 84 % 1003,4 hPa 0,0 mm 0,0 km/h (0 Bft) W-SW 247 0 min -6,9 C 0,0 km/h (0 Bft)
27.02.2016 08:27 -4,6 C -3,7 C 84 % 1003,4 hPa 0,0 mm 0,0 km/h (0 Bft) W-SW 247 0 min -6,9 C 0,0 km/h (0 Bft)
27.02.2016 08:28 -4,6 C -3,7 C 84 % 1003,4 hPa 0,0 mm 0,0 km/h (0 Bft) W-SW 247 0 min -6,9 C 0,0 km/h (0 Bft)
27.02.2016 08:29 -4,6 C -3,7 C 84 % 1003,6 hPa 0,0 mm 0,0 km/h (0 Bft) W-SW 247 0 min -6,9 C 0,0 km/h (0 Bft)
27.02.2016 08:30 -4,5 C -3,5 C 84 % 1003,6 hPa 0,0 mm 0,0 km/h (0 Bft) W 270 0 min -6,8 C 0,0 km/h (0 Bft)
27.02.2016 08:31 -4,5 C -3,5 C 84 % 1003,6 hPa 0,0 mm 0,0 km/h (0 Bft) W 270 0 min -6,8 C 0,0 km/h (0 Bft)
27.02.2016 08:32 -4,5 C -3,6 C 84 % 1003,6 hPa 0,0 mm 0,0 km/h (0 Bft) W 270 0 min -6,8 C 4,2 km/h (1 Bft)
27.02.2016 08:33 -4,5 C -3,6 C 84 % 1003,6 hPa 0,0 mm 0,0 km/h (0 Bft) W 270 0 min -6,8 C 4,2 km/h (1 Bft)
27.02.2016 08:34 -4,6 C -3,6 C 84 % 1003,6 hPa 0,0 mm 0,3 km/h (0 Bft) W-NW 292 0 min -6,9 C 0,0 km/h (0 Bft)
27.02.2016 08:35 -4,6 C -3,6 C 84 % 1003,6 hPa 0,0 mm 0,3 km/h (0 Bft) W-NW 292 0 min -6,9 C 0,0 km/h (0 Bft)
27.02.2016 08:36 -4,6 C -3,6 C 84 % 1003,6 hPa 0,0 mm 0,3 km/h (0 Bft) W 270 0 min -6,9 C 0,0 km/h (0 Bft)
27.02.2016 08:37 -4,6 C -3,6 C 84 % 1003,6 hPa 0,0 mm 0,3 km/h (0 Bft) W 270 0 min -6,9 C 0,0 km/h (0 Bft)
27.02.2016 08:38 -4,5 C -3,5 C 84 % 1003,6 hPa 0,0 mm 0,3 km/h (0 Bft) W 270 0 min -6,8 C 0,0 km/h (0 Bft)
27.02.2016 08:39 -4,5 C -3,5 C 84 % 1003,6 hPa 0,0 mm 0,3 km/h (0 Bft) W 270 0 min -6,8 C 0,0 km/h (0 Bft)
27.02.2016 08:40 -4,5 C -3,3 C 84 % 1003,6 hPa 0,0 mm 0,3 km/h (0 Bft) W 270 0 min -6,8 C 0,0 km/h (0 Bft)
27.02.2016 08:41 -4,5 C -3,3 C 84 % 1003,6 hPa 0,0 mm 0,3 km/h (0 Bft) W 270 0 min -6,8 C 0,0 km/h (0 Bft)
27.02.2016 08:42 -4,5 C -3,2 C 84 % 1003,6 hPa 0,0 mm 0,3 km/h (0 Bft) W-NW 292 0 min -6,8 C 0,0 km/h (0 Bft)
27.02.2016 08:43 -4,5 C -3,2 C 84 % 1003,6 hPa 0,0 mm 0,3 km/h (0 Bft) W-NW 292 0 min -6,8 C 0,0 km/h (0 Bft)
27.02.2016 08:44 -4,5 C -3,1 C 84 % 1003,6 hPa 0,0 mm 0,0 km/h (0 Bft) W 270 0 min -6,8 C 0,0 km/h (0 Bft)
27.02.2016 08:45 -4,5 C -3,1 C 84 % 1003,6 hPa 0,0 mm 0,0 km/h (0 Bft) W 270 0 min -6,8 C 0,0 km/h (0 Bft)
27.02.2016 08:46 -4,5 C -3,0 C 84 % 1003,6 hPa 0,0 mm 0,0 km/h (0 Bft) W-SW 247 0 min -6,8 C 0,0 km/h (0 Bft)
27.02.2016 08:47 -4,5 C -3,0 C 84 % 1003,6 hPa 0,0 mm 0,0 km/h (0 Bft) W-SW 247 0 min -6,8 C 0,0 km/h (0 Bft)
27.02.2016 08:48 -4,3 C -2,9 C 84 % 1003,6 hPa 0,0 mm 0,0 km/h (0 Bft) W 270 0 min -6,6 C 0,0 km/h (0 Bft)
27.02.2016 08:49 -4,3 C -2,9 C 84 % 1003,9 hPa 0,0 mm 0,0 km/h (0 Bft) W 270 0 min -6,6 C 0,0 km/h (0 Bft)
27.02.2016 08:50 -4,3 C -2,8 C 84 % 1003,9 hPa 0,0 mm 0,0 km/h (0 Bft) W 270 0 min -6,6 C 0,0 km/h (0 Bft)
27.02.2016 08:51 -4,3 C -2,8 C 84 % 1003,9 hPa 0,0 mm 0,0 km/h (0 Bft) W 270 0 min -6,6 C 0,0 km/h (0 Bft)
27.02.2016 08:52 -4,4 C -2,7 C 84 % 1003,9 hPa 0,0 mm 0,0 km/h (0 Bft) W 270 0 min -6,7 C 0,0 km/h (0 Bft)
27.02.2016 08:53 -4,4 C -2,7 C 84 % 1003,9 hPa 0,0 mm 0,0 km/h (0 Bft) W 270 0 min -6,7 C 0,0 km/h (0 Bft)
27.02.2016 08:54 -4,3 C -2,6 C 84 % 1003,9 hPa 0,0 mm 0,0 km/h (0 Bft) W 270 0 min -6,6 C 0,0 km/h (0 Bft)
27.02.2016 08:55 -4,3 C -2,6 C 84 % 1003,9 hPa 0,0 mm 0,0 km/h (0 Bft) W 270 0 min -6,6 C 0,0 km/h (0 Bft)
27.02.2016 08:56 -4,3 C -2,4 C 84 % 1003,9 hPa 0,0 mm 0,0 km/h (0 Bft) W 270 0 min -6,6 C 0,0 km/h (0 Bft)
27.02.2016 08:57 -4,3 C -2,4 C 84 % 1003,9 hPa 0,0 mm 0,0 km/h (0 Bft) W 270 0 min -6,6 C 0,0 km/h (0 Bft)
27.02.2016 08:58 -4,3 C -2,3 C 84 % 1003,9 hPa 0,0 mm 0,0 km/h (0 Bft) W 270 0 min -6,6 C 0,0 km/h (0 Bft)
27.02.2016 08:59 -4,3 C -2,3 C 84 % 1003,9 hPa 0,0 mm 0,0 km/h (0 Bft) W 270 0 min -6,6 C 0,0 km/h (0 Bft)
27.02.2016 09:00 -4,1 C -2,3 C 84 % 1003,9 hPa 0,0 mm 0,0 km/h (0 Bft) W 270 0 min -6,4 C 0,0 km/h (0 Bft)
27.02.2016 09:01 -4,1 C -2,3 C 84 % 1003,9 hPa 0,0 mm 0,0 km/h (0 Bft) W 270 0 min -6,4 C 0,0 km/h (0 Bft)
27.02.2016 09:02 -3,9 C -2,2 C 84 % 1003,9 hPa 0,0 mm 0,0 km/h (0 Bft) W-NW 292 0 min -6,2 C 0,0 km/h (0 Bft)
27.02.2016 09:03 -3,9 C -2,2 C 84 % 1003,9 hPa 0,0 mm 0,0 km/h (0 Bft) W-NW 292 0 min -6,2 C 0,0 km/h (0 Bft)
27.02.2016 09:04 -3,9 C -2,1 C 84 % 1003,9 hPa 0,0 mm 0,0 km/h (0 Bft) W 270 0 min -6,2 C 0,0 km/h (0 Bft)
27.02.2016 09:05 -3,9 C -2,1 C 84 % 1003,9 hPa 0,0 mm 0,0 km/h (0 Bft) W 270 0 min -6,2 C 0,0 km/h (0 Bft)
27.02.2016 09:06 -3,9 C -2,0 C 84 % 1003,9 hPa 0,0 mm 0,0 km/h (0 Bft) W 270 0 min -6,2 C 0,0 km/h (0 Bft)
27.02.2016 09:07 -3,9 C -2,0 C 84 % 1003,9 hPa 0,0 mm 0,0 km/h (0 Bft) W 270 0 min -6,2 C 0,0 km/h (0 Bft)
27.02.2016 09:08 -3,9 C -2,0 C 84 % 1004,0 hPa 0,0 mm 0,0 km/h (0 Bft) W-NW 292 0 min -6,2 C 0,0 km/h (0 Bft)
27.02.2016 09:09 -3,9 C -2,0 C 84 % 1004,0 hPa 0,0 mm 0,0 km/h (0 Bft) W-NW 292 0 min -6,2 C 0,0 km/h (0 Bft)
27.02.2016 09:10 -3,9 C -1,9 C 84 % 1004,0 hPa 0,0 mm 0,0 km/h (0 Bft) W 270 0 min -6,2 C 0,0 km/h (0 Bft)
27.02.2016 09:11 -3,9 C -1,9 C 84 % 1004,0 hPa 0,0 mm 0,0 km/h (0 Bft) W 270 0 min -6,2 C 0,0 km/h (0 Bft)
27.02.2016 09:12 -3,9 C -1,9 C 84 % 1004,0 hPa 0,0 mm 0,3 km/h (0 Bft) W 270 0 min -6,2 C 0,0 km/h (0 Bft)
27.02.2016 09:13 -3,9 C -1,9 C 84 % 1004,0 hPa 0,0 mm 0,3 km/h (0 Bft) W 270 0 min -6,2 C 0,0 km/h (0 Bft)
27.02.2016 09:14 -3,9 C -2,0 C 84 % 1004,0 hPa 0,0 mm 0,6 km/h (0 Bft) W 270 0 min -6,2 C 4,2 km/h (1 Bft)
27.02.2016 09:15 -3,9 C -2,0 C 84 % 1004,0 hPa 0,0 mm 0,6 km/h (0 Bft) W 270 0 min -6,2 C 4,2 km/h (1 Bft)
27.02.2016 09:16 -3,9 C -2,0 C 84 % 1004,0 hPa 0,0 mm 0,6 km/h (0 Bft) S-SO 157 0 min -6,2 C 0,0 km/h (0 Bft)
27.02.2016 09:17 -3,9 C -2,0 C 84 % 1004,0 hPa 0,0 mm 0,6 km/h (0 Bft) S-SO 157 0 min -6,2 C 0,0 km/h (0 Bft)
27.02.2016 09:18 -3,7 C -1,9 C 84 % 1004,0 hPa 0,0 mm 0,6 km/h (0 Bft) W 270 0 min -6,0 C 0,0 km/h (0 Bft)
27.02.2016 09:19 -3,7 C -1,9 C 84 % 1004,0 hPa 0,0 mm 0,6 km/h (0 Bft) W 270 0 min -6,0 C 0,0 km/h (0 Bft)
27.02.2016 09:20 -3,6 C -1,8 C 84 % 1004,0 hPa 0,0 mm 0,6 km/h (0 Bft) W 270 0 min -5,9 C 0,0 km/h (0 Bft)
27.02.2016 09:21 -3,6 C -1,8 C 84 % 1004,0 hPa 0,0 mm 0,6 km/h (0 Bft) W 270 0 min -5,9 C 0,0 km/h (0 Bft)
27.02.2016 09:22 -3,5 C -1,6 C 84 % 1004,0 hPa 0,0 mm 0,3 km/h (0 Bft) W-SW 247 0 min -5,8 C 0,0 km/h (0 Bft)
27.02.2016 09:23 -3,5 C -1,6 C 84 % 1004,0 hPa 0,0 mm 0,3 km/h (0 Bft) W-SW 247 0 min -5,8 C 0,0 km/h (0 Bft)
27.02.2016 09:24 -3,4 C -1,5 C 84 % 1004,0 hPa 0,0 mm 0,3 km/h (0 Bft) W-NW 292 0 min -5,7 C 0,0 km/h (0 Bft)
27.02.2016 09:25 -3,4 C -1,5 C 84 % 1004,0 hPa 0,0 mm 0,3 km/h (0 Bft) W-NW 292 0 min -5,7 C 0,0 km/h (0 Bft)
27.02.2016 09:26 -3,5 C -1,4 C 84 % 1004,0 hPa 0,0 mm 0,0 km/h (0 Bft) W-SW 247 0 min -5,8 C 0,0 km/h (0 Bft)
27.02.2016 09:27 -3,5 C -1,4 C 84 % 1004,0 hPa 0,0 mm 0,0 km/h (0 Bft) W-SW 247 0 min -5,8 C 0,0 km/h (0 Bft)
27.02.2016 09:28 -3,5 C -1,2 C 84 % 1004,0 hPa 0,0 mm 0,0 km/h (0 Bft) SW 225 0 min -5,8 C 0,0 km/h (0 Bft)
27.02.2016 09:29 -3,5 C -1,2 C 84 % 1004,2 hPa 0,0 mm 0,0 km/h (0 Bft) SW 225 0 min -5,8 C 0,0 km/h (0 Bft)
27.02.2016 09:30 -3,4 C -1,1 C 84 % 1004,2 hPa 0,0 mm 0,0 km/h (0 Bft) W-SW 247 0 min -5,7 C 0,0 km/h (0 Bft)
27.02.2016 09:31 -3,4 C -1,1 C 84 % 1004,2 hPa 0,0 mm 0,0 km/h (0 Bft) W-SW 247 0 min -5,7 C 0,0 km/h (0 Bft)
27.02.2016 09:32 -3,2 C -1,0 C 84 % 1004,2 hPa 0,0 mm 0,0 km/h (0 Bft) W-NW 292 0 min -5,5 C 0,0 km/h (0 Bft)
27.02.2016 09:33 -3,2 C -1,0 C 84 % 1004,2 hPa 0,0 mm 0,0 km/h (0 Bft) W-NW 292 0 min -5,5 C 0,0 km/h (0 Bft)
27.02.2016 09:34 -3,2 C -0,9 C 84 % 1004,2 hPa 0,0 mm 0,0 km/h (0 Bft) W 270 0 min -5,5 C 0,0 km/h (0 Bft)
27.02.2016 09:35 -3,2 C -0,9 C 84 % 1004,2 hPa 0,0 mm 0,0 km/h (0 Bft) W 270 0 min -5,5 C 0,0 km/h (0 Bft)
27.02.2016 09:36 -3,1 C -0,8 C 84 % 1004,2 hPa 0,0 mm 0,0 km/h (0 Bft) W 270 0 min -5,4 C 0,0 km/h (0 Bft)
27.02.2016 09:37 -3,1 C -0,8 C 84 % 1004,2 hPa 0,0 mm 0,0 km/h (0 Bft) W 270 0 min -5,4 C 0,0 km/h (0 Bft)
27.02.2016 09:38 -3,0 C -0,6 C 85 % 1004,2 hPa 0,0 mm 0,0 km/h (0 Bft) NW 315 0 min -5,2 C 0,0 km/h (0 Bft)
27.02.2016 09:39 -3,0 C -0,6 C 85 % 1004,2 hPa 0,0 mm 0,0 km/h (0 Bft) NW 315 0 min -5,2 C 0,0 km/h (0 Bft)
27.02.2016 09:40 -3,0 C -0,5 C 85 % 1004,2 hPa 0,0 mm 0,0 km/h (0 Bft) O-NO 67 0 min -5,2 C 0,0 km/h (0 Bft)
27.02.2016 09:41 -3,0 C -0,5 C 85 % 1004,2 hPa 0,0 mm 0,0 km/h (0 Bft) O-NO 67 0 min -5,2 C 0,0 km/h (0 Bft)
27.02.2016 09:42 -2,9 C -0,4 C 84 % 1004,2 hPa 0,0 mm 0,0 km/h (0 Bft) O-SO 112 0 min -5,2 C 3,3 km/h (1 Bft)
27.02.2016 09:43 -2,9 C -0,4 C 84 % 1004,2 hPa 0,0 mm 0,0 km/h (0 Bft) O-SO 112 0 min -5,2 C 3,3 km/h (1 Bft)
27.02.2016 09:44 -2,7 C -0,3 C 85 % 1004,2 hPa 0,0 mm 0,3 km/h (0 Bft) W-SW 247 0 min -4,9 C 0,0 km/h (0 Bft)
27.02.2016 09:45 -2,7 C -0,3 C 85 % 1004,2 hPa 0,0 mm 0,3 km/h (0 Bft) W-SW 247 0 min -4,9 C 0,0 km/h (0 Bft)
27.02.2016 09:46 -2,7 C -0,2 C 85 % 1004,2 hPa 0,0 mm 0,3 km/h (0 Bft) NW 315 0 min -4,9 C 0,0 km/h (0 Bft)
27.02.2016 09:47 -2,7 C -0,2 C 85 % 1004,2 hPa 0,0 mm 0,3 km/h (0 Bft) NW 315 0 min -4,9 C 0,0 km/h (0 Bft)
27.02.2016 09:48 -2,5 C 0,1 C 85 % 1004,2 hPa 0,0 mm 0,3 km/h (0 Bft) W 270 0 min -4,7 C 0,0 km/h (0 Bft)
27.02.2016 09:49 -2,5 C 0,1 C 85 % 1004,1 hPa 0,0 mm 0,3 km/h (0 Bft) W 270 0 min -4,7 C 0,0 km/h (0 Bft)
27.02.2016 09:50 -2,5 C 0,4 C 85 % 1004,1 hPa 0,0 mm 0,3 km/h (0 Bft) W-SW 247 0 min -4,7 C 0,0 km/h (0 Bft)
27.02.2016 09:51 -2,5 C 0,4 C 85 % 1004,1 hPa 0,0 mm 0,3 km/h (0 Bft) W-SW 247 0 min -4,7 C 0,0 km/h (0 Bft)
27.02.2016 09:52 -2,6 C 0,8 C 85 % 1004,1 hPa 0,0 mm 0,3 km/h (0 Bft) W-SW 247 0 min -4,8 C 0,0 km/h (0 Bft)
27.02.2016 09:53 -2,6 C 0,8 C 85 % 1004,1 hPa 0,0 mm 0,3 km/h (0 Bft) W-SW 247 0 min -4,8 C 0,0 km/h (0 Bft)
27.02.2016 09:54 -2,5 C 1,0 C 85 % 1004,1 hPa 0,0 mm 0,0 km/h (0 Bft) O-NO 67 0 min -4,7 C 0,0 km/h (0 Bft)
27.02.2016 09:55 -2,5 C 1,0 C 85 % 1004,1 hPa 0,0 mm 0,0 km/h (0 Bft) O-NO 67 0 min -4,7 C 0,0 km/h (0 Bft)
27.02.2016 09:56 -2,2 C 1,0 C 85 % 1004,1 hPa 0,0 mm 0,0 km/h (0 Bft) N-NO 22 0 min -4,4 C 0,0 km/h (0 Bft)
27.02.2016 09:57 -2,2 C 1,0 C 85 % 1004,1 hPa 0,0 mm 0,0 km/h (0 Bft) N-NO 22 0 min -4,4 C 0,0 km/h (0 Bft)
27.02.2016 09:58 -2,2 C 1,0 C 85 % 1004,1 hPa 0,0 mm 0,0 km/h (0 Bft) O-NO 67 0 min -4,4 C 0,0 km/h (0 Bft)
27.02.2016 09:59 -2,2 C 1,0 C 85 % 1004,1 hPa 0,0 mm 0,0 km/h (0 Bft) O-NO 67 0 min -4,4 C 0,0 km/h (0 Bft)
27.02.2016 10:00 -2,0 C 1,1 C 85 % 1004,1 hPa 0,0 mm 0,0 km/h (0 Bft) SO 135 0 min -4,2 C 0,0 km/h (0 Bft)
27.02.2016 10:01 -2,0 C 1,1 C 85 % 1004,1 hPa 0,0 mm 0,0 km/h (0 Bft) SO 135 0 min -4,2 C 0,0 km/h (0 Bft)
27.02.2016 10:02 -1,8 C 1,4 C 85 % 1004,1 hPa 0,0 mm 0,0 km/h (0 Bft) O-NO 67 0 min -4,0 C 0,0 km/h (0 Bft)
27.02.2016 10:03 -1,8 C 1,4 C 85 % 1004,1 hPa 0,0 mm 0,0 km/h (0 Bft) O-NO 67 0 min -4,0 C 0,0 km/h (0 Bft)
27.02.2016 10:04 -1,8 C 1,5 C 85 % 1004,1 hPa 0,0 mm 0,0 km/h (0 Bft) O-NO 67 0 min -4,0 C 0,0 km/h (0 Bft)
27.02.2016 10:05 -1,8 C 1,5 C 85 % 1004,1 hPa 0,0 mm 0,0 km/h (0 Bft) O-NO 67 0 min -4,0 C 0,0 km/h (0 Bft)
27.02.2016 10:06 -1,7 C 1,7 C 85 % 1004,1 hPa 0,0 mm 0,0 km/h (0 Bft) O-NO 67 0 min -3,9 C 0,0 km/h (0 Bft)
27.02.2016 10:07 -1,7 C 1,7 C 85 % 1004,1 hPa 0,0 mm 0,0 km/h (0 Bft) O-NO 67 0 min -3,9 C 0,0 km/h (0 Bft)
27.02.2016 10:08 -1,7 C 1,9 C 85 % 1004,4 hPa 0,0 mm 0,0 km/h (0 Bft) O-NO 67 0 min -3,9 C 0,0 km/h (0 Bft)
27.02.2016 10:09 -1,7 C 1,9 C 85 % 1004,4 hPa 0,0 mm 0,0 km/h (0 Bft) O-NO 67 0 min -3,9 C 0,0 km/h (0 Bft)
27.02.2016 10:10 -1,6 C 2,3 C 85 % 1004,4 hPa 0,0 mm 0,0 km/h (0 Bft) O-NO 67 0 min -3,8 C 0,0 km/h (0 Bft)
27.02.2016 10:11 -1,6 C 2,3 C 85 % 1004,4 hPa 0,0 mm 0,0 km/h (0 Bft) O-NO 67 0 min -3,8 C 0,0 km/h (0 Bft)
27.02.2016 10:12 -1,6 C 2,5 C 85 % 1004,4 hPa 0,0 mm 0,0 km/h (0 Bft) N-NO 22 0 min -3,8 C 0,0 km/h (0 Bft)
27.02.2016 10:13 -1,6 C 2,5 C 85 % 1004,4 hPa 0,0 mm 0,0 km/h (0 Bft) N-NO 22 0 min -3,8 C 0,0 km/h (0 Bft)
27.02.2016 10:14 -1,5 C 3,0 C 85 % 1004,4 hPa 0,0 mm 0,0 km/h (0 Bft) N-NO 22 0 min -3,7 C 0,0 km/h (0 Bft)
27.02.2016 10:15 -1,5 C 3,0 C 85 % 1004,4 hPa 0,0 mm 0,0 km/h (0 Bft) N-NO 22 0 min -3,7 C 0,0 km/h (0 Bft)
27.02.2016 10:16 -1,3 C 3,5 C 85 % 1004,4 hPa 0,0 mm 0,0 km/h (0 Bft) N-NO 22 0 min -3,5 C 0,0 km/h (0 Bft)
27.02.2016 10:17 -1,3 C 3,5 C 85 % 1004,4 hPa 0,0 mm 0,0 km/h (0 Bft) N-NO 22 0 min -3,5 C 0,0 km/h (0 Bft)
27.02.2016 10:18 -1,1 C 4,3 C 85 % 1004,4 hPa 0,0 mm 0,0 km/h (0 Bft) W-NW 292 0 min -3,3 C 0,0 km/h (0 Bft)
27.02.2016 10:19 -1,1 C 4,3 C 85 % 1004,4 hPa 0,0 mm 0,0 km/h (0 Bft) W-NW 292 0 min -3,3 C 0,0 km/h (0 Bft)
27.02.2016 10:20 -1,2 C 4,8 C 85 % 1004,4 hPa 0,0 mm 0,0 km/h (0 Bft) NW 315 1 min -3,4 C 0,0 km/h (0 Bft)
27.02.2016 10:21 -1,2 C 4,8 C 85 % 1004,4 hPa 0,0 mm 0,0 km/h (0 Bft) NW 315 1 min -3,4 C 0,0 km/h (0 Bft)
27.02.2016 10:22 -1,2 C 5,6 C 85 % 1004,4 hPa 0,0 mm 0,0 km/h (0 Bft) W 270 1 min -3,4 C 0,0 km/h (0 Bft)
27.02.2016 10:23 -1,2 C 5,6 C 85 % 1004,4 hPa 0,0 mm 0,0 km/h (0 Bft) W 270 1 min -3,4 C 0,0 km/h (0 Bft)
27.02.2016 10:24 -1,2 C 6,3 C 84 % 1004,4 hPa 0,0 mm 0,0 km/h (0 Bft) NW 315 1 min -3,5 C 0,0 km/h (0 Bft)
27.02.2016 10:25 -1,2 C 6,3 C 84 % 1004,4 hPa 0,0 mm 0,0 km/h (0 Bft) NW 315 1 min -3,5 C 0,0 km/h (0 Bft)
27.02.2016 10:26 -1,1 C 6,7 C 84 % 1004,4 hPa 0,0 mm 0,0 km/h (0 Bft) W 270 1 min -3,4 C 0,0 km/h (0 Bft)
27.02.2016 10:27 -1,1 C 6,7 C 84 % 1004,4 hPa 0,0 mm 0,0 km/h (0 Bft) W 270 1 min -3,4 C 0,0 km/h (0 Bft)
27.02.2016 10:28 -1,1 C 6,9 C 84 % 1004,4 hPa 0,0 mm 0,0 km/h (0 Bft) N-NW 337 1 min -3,4 C 0,0 km/h (0 Bft)
27.02.2016 10:29 -1,1 C 6,9 C 84 % 1004,4 hPa 0,0 mm 0,0 km/h (0 Bft) N-NW 337 1 min -3,4 C 0,0 km/h (0 Bft)
27.02.2016 10:30 -0,7 C 7,3 C 84 % 1004,4 hPa 0,0 mm 0,0 km/h (0 Bft) O-NO 67 1 min -3,1 C 0,0 km/h (0 Bft)
27.02.2016 10:31 -0,7 C 7,3 C 84 % 1004,4 hPa 0,0 mm 0,0 km/h (0 Bft) O-NO 67 1 min -3,1 C 0,0 km/h (0 Bft)
27.02.2016 10:32 -0,5 C 7,6 C 84 % 1004,4 hPa 0,0 mm 0,0 km/h (0 Bft) O 90 1 min -2,9 C 0,0 km/h (0 Bft)
27.02.2016 10:33 -0,5 C 7,6 C 84 % 1004,4 hPa 0,0 mm 0,0 km/h (0 Bft) O 90 1 min -2,9 C 0,0 km/h (0 Bft)
27.02.2016 10:34 -0,3 C 8,0 C 84 % 1004,4 hPa 0,0 mm 0,0 km/h (0 Bft) N-NO 22 1 min -2,7 C 0,0 km/h (0 Bft)
27.02.2016 10:35 -0,3 C 8,0 C 84 % 1004,4 hPa 0,0 mm 0,0 km/h (0 Bft) N-NO 22 1 min -2,7 C 0,0 km/h (0 Bft)
27.02.2016 10:36 -0,2 C 8,2 C 84 % 1004,4 hPa 0,0 mm 0,0 km/h (0 Bft) W-NW 292 1 min -2,6 C 0,0 km/h (0 Bft)
27.02.2016 10:37 -0,2 C 8,2 C 84 % 1004,4 hPa 0,0 mm 0,0 km/h (0 Bft) W-NW 292 1 min -2,6 C 0,0 km/h (0 Bft)
27.02.2016 10:38 -0,1 C 8,4 C 84 % 1004,4 hPa 0,0 mm 0,0 km/h (0 Bft) O 90 1 min -2,5 C 0,0 km/h (0 Bft)
27.02.2016 10:39 -0,1 C 8,4 C 84 % 1004,4 hPa 0,0 mm 0,0 km/h (0 Bft) O 90 1 min -2,5 C 0,0 km/h (0 Bft)
27.02.2016 10:40 -0,1 C 9,0 C 84 % 1004,4 hPa 0,0 mm 0,0 km/h (0 Bft) N-NO 22 1 min -2,5 C 0,0 km/h (0 Bft)
27.02.2016 10:41 -0,1 C 9,0 C 84 % 1004,4 hPa 0,0 mm 0,0 km/h (0 Bft) N-NO 22 1 min -2,5 C 0,0 km/h (0 Bft)
27.02.2016 10:42 0,1 C 9,5 C 84 % 1004,4 hPa 0,0 mm 0,0 km/h (0 Bft) NW 315 1 min -2,3 C 0,0 km/h (0 Bft)
27.02.2016 10:43 0,1 C 9,5 C 84 % 1004,4 hPa 0,0 mm 0,0 km/h (0 Bft) NW 315 1 min -2,3 C 0,0 km/h (0 Bft)
27.02.2016 10:44 0,2 C 10,0 C 84 % 1004,4 hPa 0,0 mm 0,0 km/h (0 Bft) O-SO 112 1 min -2,2 C 0,0 km/h (0 Bft)
27.02.2016 10:45 0,2 C 10,0 C 84 % 1004,4 hPa 0,0 mm 0,0 km/h (0 Bft) O-SO 112 1 min -2,2 C 0,0 km/h (0 Bft)
27.02.2016 10:46 0,2 C 10,2 C 84 % 1004,4 hPa 0,0 mm 0,0 km/h (0 Bft) O-NO 67 1 min -2,2 C 3,3 km/h (1 Bft)
27.02.2016 10:47 0,2 C 10,2 C 84 % 1004,4 hPa 0,0 mm 0,0 km/h (0 Bft) O-NO 67 1 min -2,2 C 3,3 km/h (1 Bft)
27.02.2016 10:48 0,4 C 10,2 C 84 % 1004,4 hPa 0,0 mm 0,0 km/h (0 Bft) O-NO 67 1 min -2,0 C 0,0 km/h (0 Bft)
27.02.2016 10:49 0,4 C 10,2 C 84 % 1004,9 hPa 0,0 mm 0,0 km/h (0 Bft) O-NO 67 1 min -2,0 C 0,0 km/h (0 Bft)
27.02.2016 10:50 0,4 C 10,2 C 84 % 1004,9 hPa 0,0 mm 0,0 km/h (0 Bft) O-NO 67 1 min -2,0 C 0,0 km/h (0 Bft)
27.02.2016 10:51 0,4 C 10,2 C 84 % 1004,9 hPa 0,0 mm 0,0 km/h (0 Bft) O-NO 67 1 min -2,0 C 0,0 km/h (0 Bft)
27.02.2016 10:52 0,5 C 10,2 C 84 % 1004,9 hPa 0,0 mm 0,3 km/h (0 Bft) O-NO 67 1 min -1,9 C 0,0 km/h (0 Bft)
27.02.2016 10:53 0,5 C 10,2 C 84 % 1004,9 hPa 0,0 mm 0,3 km/h (0 Bft) O-NO 67 1 min -1,9 C 0,0 km/h (0 Bft)
27.02.2016 10:54 0,7 C 10,3 C 84 % 1004,9 hPa 0,0 mm 0,3 km/h (0 Bft) NW 315 1 min -1,7 C 3,3 km/h (1 Bft)
27.02.2016 10:55 0,7 C 10,3 C 84 % 1004,9 hPa 0,0 mm 0,3 km/h (0 Bft) NW 315 1 min -1,7 C 3,3 km/h (1 Bft)
27.02.2016 10:56 0,7 C 10,3 C 83 % 1004,9 hPa 0,0 mm 0,3 km/h (0 Bft) NW 315 1 min -1,8 C 0,0 km/h (0 Bft)
27.02.2016 10:57 0,7 C 10,3 C 83 % 1004,9 hPa 0,0 mm 0,3 km/h (0 Bft) NW 315 1 min -1,8 C 0,0 km/h (0 Bft)
27.02.2016 10:58 0,6 C 10,5 C 83 % 1004,9 hPa 0,0 mm 0,3 km/h (0 Bft) W-SW 247 1 min -1,9 C 0,0 km/h (0 Bft)
27.02.2016 10:59 0,6 C 10,5 C 83 % 1004,9 hPa 0,0 mm 0,3 km/h (0 Bft) W-SW 247 1 min -1,9 C 0,0 km/h (0 Bft)
27.02.2016 11:00 0,7 C 10,8 C 83 % 1004,9 hPa 0,0 mm 0,3 km/h (0 Bft) N-NW 337 1 min -1,8 C 0,0 km/h (0 Bft)
27.02.2016 11:01 0,7 C 10,8 C 83 % 1004,9 hPa 0,0 mm 0,3 km/h (0 Bft) N-NW 337 1 min -1,8 C 0,0 km/h (0 Bft)
27.02.2016 11:02 0,8 C 11,5 C 83 % 1004,9 hPa 0,0 mm 0,3 km/h (0 Bft) W-NW 292 1 min -1,8 C 0,0 km/h (0 Bft)
27.02.2016 11:03 0,8 C 11,5 C 83 % 1004,9 hPa 0,0 mm 0,3 km/h (0 Bft) W-NW 292 1 min -1,8 C 0,0 km/h (0 Bft)
27.02.2016 11:04 0,9 C 11,7 C 83 % 1004,9 hPa 0,0 mm 0,3 km/h (0 Bft) W-SW 247 1 min -1,7 C 0,0 km/h (0 Bft)
27.02.2016 11:05 0,9 C 11,7 C 83 % 1004,9 hPa 0,0 mm 0,3 km/h (0 Bft) W-SW 247 1 min -1,7 C 0,0 km/h (0 Bft)
27.02.2016 11:06 1,3 C 12,0 C 83 % 1004,9 hPa 0,0 mm 0,0 km/h (0 Bft) S-SW 202 1 min -1,3 C 0,0 km/h (0 Bft)
27.02.2016 11:07 1,3 C 12,0 C 83 % 1004,9 hPa 0,0 mm 0,0 km/h (0 Bft) S-SW 202 1 min -1,3 C 0,0 km/h (0 Bft)
27.02.2016 11:08 1,2 C 12,1 C 82 % 1004,9 hPa 0,0 mm 0,0 km/h (0 Bft) W 270 1 min -1,5 C 0,0 km/h (0 Bft)
27.02.2016 11:09 1,2 C 12,1 C 82 % 1005,2 hPa 0,0 mm 0,0 km/h (0 Bft) W 270 1 min -1,5 C 0,0 km/h (0 Bft)
27.02.2016 11:10 1,2 C 11,9 C 82 % 1005,2 hPa 0,0 mm 0,0 km/h (0 Bft) N 360 1 min -1,5 C 0,0 km/h (0 Bft)
27.02.2016 11:11 1,2 C 11,9 C 82 % 1005,2 hPa 0,0 mm 0,0 km/h (0 Bft) N 360 1 min -1,5 C 0,0 km/h (0 Bft)
27.02.2016 11:12 1,1 C 11,6 C 82 % 1005,2 hPa 0,0 mm 0,0 km/h (0 Bft) NW 315 1 min -1,6 C 0,0 km/h (0 Bft)
27.02.2016 11:14 1,1 C 11,2 C 81 % 1005,2 hPa 0,0 mm 0,0 km/h (0 Bft) O-NO 67 2 min -1,8 C 0,0 km/h (0 Bft)
27.02.2016 11:15 1,1 C 11,2 C 81 % 1005,2 hPa 0,0 mm 0,0 km/h (0 Bft) O-NO 67 1 min -1,8 C 0,0 km/h (0 Bft)
27.02.2016 11:16 1,3 C 11,0 C 81 % 1005,2 hPa 0,0 mm 0,0 km/h (0 Bft) N 360 1 min -1,6 C 0,0 km/h (0 Bft)
27.02.2016 11:17 1,3 C 11,0 C 81 % 1005,2 hPa 0,0 mm 0,0 km/h (0 Bft) N 360 1 min -1,6 C 0,0 km/h (0 Bft)
27.02.2016 11:18 1,6 C 10,8 C 81 % 1005,2 hPa 0,0 mm 0,0 km/h (0 Bft) N-NO 22 1 min -1,3 C 0,0 km/h (0 Bft)
27.02.2016 11:19 1,6 C 10,8 C 81 % 1005,2 hPa 0,0 mm 0,0 km/h (0 Bft) N-NO 22 1 min -1,3 C 0,0 km/h (0 Bft)
27.02.2016 11:20 1,9 C 10,3 C 81 % 1005,2 hPa 0,0 mm 0,0 km/h (0 Bft) N-NO 22 1 min -1,0 C 0,0 km/h (0 Bft)
27.02.2016 11:21 1,9 C 10,3 C 81 % 1005,2 hPa 0,0 mm 0,0 km/h (0 Bft) N-NO 22 1 min -1,0 C 0,0 km/h (0 Bft)
27.02.2016 11:22 2,0 C 10,1 C 81 % 1005,2 hPa 0,0 mm 0,0 km/h (0 Bft) NW 315 1 min -0,9 C 0,0 km/h (0 Bft)
27.02.2016 11:23 2,0 C 10,1 C 81 % 1005,2 hPa 0,0 mm 0,0 km/h (0 Bft) NW 315 1 min -0,9 C 0,0 km/h (0 Bft)
27.02.2016 11:24 2,0 C 10,1 C 81 % 1005,2 hPa 0,0 mm 0,0 km/h (0 Bft) NW 315 1 min -0,9 C 0,0 km/h (0 Bft)
27.02.2016 11:25 2,0 C 10,1 C 81 % 1005,2 hPa 0,0 mm 0,0 km/h (0 Bft) NW 315 1 min -0,9 C 0,0 km/h (0 Bft)
27.02.2016 11:26 2,0 C 10,1 C 80 % 1005,2 hPa 0,0 mm 0,0 km/h (0 Bft) NW 315 1 min -1,1 C 0,0 km/h (0 Bft)
27.02.2016 11:27 2,0 C 10,1 C 80 % 1005,2 hPa 0,0 mm 0,0 km/h (0 Bft) NW 315 1 min -1,1 C 0,0 km/h (0 Bft)
27.02.2016 11:28 2,0 C 10,0 C 80 % 1005,2 hPa 0,0 mm 0,0 km/h (0 Bft) NW 315 1 min -1,1 C 0,0 km/h (0 Bft)
27.02.2016 11:29 2,0 C 10,0 C 80 % 1005,4 hPa 0,0 mm 0,0 km/h (0 Bft) NW 315 1 min -1,1 C 0,0 km/h (0 Bft)
27.02.2016 11:30 1,9 C 9,9 C 79 % 1005,4 hPa 0,0 mm 0,3 km/h (0 Bft) NW 315 1 min -1,3 C 3,3 km/h (1 Bft)
27.02.2016 11:31 1,9 C 9,9 C 79 % 1005,4 hPa 0,0 mm 0,3 km/h (0 Bft) NW 315 1 min -1,3 C 3,3 km/h (1 Bft)
27.02.2016 11:32 1,8 C 9,7 C 79 % 1005,4 hPa 0,0 mm 0,3 km/h (0 Bft) N 360 1 min -1,4 C 0,0 km/h (0 Bft)
27.02.2016 11:33 1,8 C 9,7 C 79 % 1005,4 hPa 0,0 mm 0,3 km/h (0 Bft) N 360 1 min -1,4 C 0,0 km/h (0 Bft)
27.02.2016 11:34 1,8 C 9,4 C 79 % 1005,4 hPa 0,0 mm 0,3 km/h (0 Bft) N-NO 22 1 min -1,4 C 0,0 km/h (0 Bft)
27.02.2016 11:35 1,8 C 9,4 C 79 % 1005,4 hPa 0,0 mm 0,3 km/h (0 Bft) N-NO 22 1 min -1,4 C 0,0 km/h (0 Bft)
27.02.2016 11:36 2,0 C 9,5 C 79 % 1005,4 hPa 0,0 mm 0,3 km/h (0 Bft) NW 315 1 min -1,2 C 0,0 km/h (0 Bft)
27.02.2016 11:37 2,0 C 9,5 C 79 % 1005,4 hPa 0,0 mm 0,3 km/h (0 Bft) NW 315 1 min -1,2 C 0,0 km/h (0 Bft)
27.02.2016 11:38 2,3 C 9,6 C 79 % 1005,4 hPa 0,0 mm 0,3 km/h (0 Bft) N 360 1 min -1,0 C 0,0 km/h (0 Bft)
27.02.2016 11:39 2,3 C 9,6 C 79 % 1005,4 hPa 0,0 mm 0,3 km/h (0 Bft) N 360 1 min -1,0 C 0,0 km/h (0 Bft)
27.02.2016 11:40 2,6 C 10,0 C 79 % 1005,4 hPa 0,0 mm 0,3 km/h (0 Bft) NW 315 1 min -0,7 C 0,0 km/h (0 Bft)
27.02.2016 11:41 2,6 C 10,0 C 79 % 1005,4 hPa 0,0 mm 0,3 km/h (0 Bft) NW 315 1 min -0,7 C 0,0 km/h (0 Bft)
27.02.2016 11:42 2,7 C 10,4 C 79 % 1005,4 hPa 0,7 mm 0,0 km/h (0 Bft) NW 315 1 min -0,6 C 0,0 km/h (0 Bft)
27.02.2016 11:43 2,7 C 10,4 C 79 % 1005,4 hPa 0,0 mm 0,0 km/h (0 Bft) NW 315 1 min -0,6 C 0,0 km/h (0 Bft)
27.02.2016 11:44 2,6 C 10,5 C 78 % 1005,4 hPa 0,0 mm 0,0 km/h (0 Bft) W-NW 292 1 min -0,8 C 0,0 km/h (0 Bft)
27.02.2016 11:45 2,6 C 10,5 C 78 % 1005,4 hPa 0,0 mm 0,0 km/h (0 Bft) W-NW 292 1 min -0,8 C 0,0 km/h (0 Bft)
27.02.2016 11:46 2,4 C 10,8 C 78 % 1005,4 hPa 0,0 mm 0,0 km/h (0 Bft) NW 315 1 min -1,0 C 0,0 km/h (0 Bft)
27.02.2016 11:47 2,4 C 10,8 C 78 % 1005,4 hPa 0,0 mm 0,0 km/h (0 Bft) NW 315 1 min -1,0 C 0,0 km/h (0 Bft)
27.02.2016 11:48 2,3 C 11,0 C 78 % 1005,4 hPa 0,0 mm 0,0 km/h (0 Bft) NW 315 1 min -1,1 C 0,0 km/h (0 Bft)
27.02.2016 11:49 2,3 C 11,0 C 78 % 1005,5 hPa 0,0 mm 0,0 km/h (0 Bft) NW 315 1 min -1,1 C 0,0 km/h (0 Bft)
27.02.2016 11:50 2,4 C 11,2 C 78 % 1005,5 hPa 0,0 mm 0,0 km/h (0 Bft) NW 315 1 min -1,0 C 0,0 km/h (0 Bft)
27.02.2016 11:51 2,4 C 11,2 C 78 % 1005,5 hPa 0,0 mm 0,0 km/h (0 Bft) NW 315 1 min -1,0 C 0,0 km/h (0 Bft)
27.02.2016 11:52 2,5 C 11,4 C 78 % 1005,5 hPa 0,0 mm 0,0 km/h (0 Bft) N 360 1 min -0,9 C 0,0 km/h (0 Bft)
27.02.2016 11:53 2,5 C 11,4 C 78 % 1005,5 hPa 0,0 mm 0,0 km/h (0 Bft) N 360 1 min -0,9 C 0,0 km/h (0 Bft)
27.02.2016 11:54 3,1 C 11,4 C 77 % 1005,5 hPa 0,0 mm 0,0 km/h (0 Bft) NW 315 1 min -0,5 C 0,0 km/h (0 Bft)
27.02.2016 11:55 3,1 C 11,4 C 77 % 1005,5 hPa 0,0 mm 0,0 km/h (0 Bft) NW 315 1 min -0,5 C 0,0 km/h (0 Bft)
27.02.2016 11:56 3,4 C 11,2 C 77 % 1005,5 hPa 0,0 mm 0,0 km/h (0 Bft) N-NW 337 1 min -0,2 C 0,0 km/h (0 Bft)
27.02.2016 11:57 3,4 C 11,2 C 77 % 1005,5 hPa 0,0 mm 0,0 km/h (0 Bft) N-NW 337 1 min -0,2 C 0,0 km/h (0 Bft)
27.02.2016 11:58 3,5 C 10,8 C 77 % 1005,5 hPa 0,0 mm 0,0 km/h (0 Bft) N-NW 337 1 min -0,1 C 0,0 km/h (0 Bft)
27.02.2016 11:59 3,5 C 10,8 C 77 % 1005,5 hPa 0,0 mm 0,0 km/h (0 Bft) N-NW 337 1 min -0,1 C 0,0 km/h (0 Bft)
27.02.2016 12:00 3,7 C 10,6 C 77 % 1005,5 hPa 0,0 mm 0,0 km/h (0 Bft) N-NO 22 1 min 0,1 C 0,0 km/h (0 Bft)
27.02.2016 12:01 3,7 C 10,6 C 77 % 1005,5 hPa 0,0 mm 0,0 km/h (0 Bft) N-NO 22 1 min 0,1 C 0,0 km/h (0 Bft)
27.02.2016 12:02 3,8 C 10,5 C 77 % 1005,5 hPa 0,0 mm 0,0 km/h (0 Bft) NO 45 1 min 0,1 C 0,0 km/h (0 Bft)
27.02.2016 12:03 3,8 C 10,5 C 77 % 1005,5 hPa 0,0 mm 0,0 km/h (0 Bft) NO 45 1 min 0,1 C 0,0 km/h (0 Bft)
27.02.2016 12:04 3,8 C 10,5 C 77 % 1005,5 hPa 0,0 mm 0,0 km/h (0 Bft) N-NO 22 1 min 0,1 C 0,0 km/h (0 Bft)
27.02.2016 12:05 3,8 C 10,5 C 77 % 1005,5 hPa 0,0 mm 0,0 km/h (0 Bft) N-NO 22 1 min 0,1 C 0,0 km/h (0 Bft)
27.02.2016 12:06 3,8 C 10,4 C 77 % 1005,5 hPa 0,0 mm 0,3 km/h (0 Bft) N-NO 22 1 min 0,1 C 0,0 km/h (0 Bft)
27.02.2016 12:07 3,8 C 10,4 C 77 % 1005,5 hPa 0,0 mm 0,3 km/h (0 Bft) N-NO 22 1 min 0,1 C 0,0 km/h (0 Bft)
27.02.2016 12:08 3,8 C 10,1 C 77 % 1005,5 hPa 0,0 mm 0,6 km/h (0 Bft) N-NO 22 1 min 0,1 C 3,6 km/h (1 Bft)
27.02.2016 12:09 3,8 C 10,1 C 77 % 1005,5 hPa 0,0 mm 0,6 km/h (0 Bft) N-NO 22 1 min 0,1 C 3,6 km/h (1 Bft)
27.02.2016 12:10 3,8 C 9,9 C 77 % 1005,5 hPa 0,0 mm 0,6 km/h (0 Bft) O-NO 67 1 min 0,1 C 0,0 km/h (0 Bft)
27.02.2016 12:11 3,8 C 9,9 C 77 % 1005,5 hPa 0,0 mm 0,6 km/h (0 Bft) O-NO 67 1 min 0,1 C 0,0 km/h (0 Bft)
27.02.2016 12:12 5,1 C 9,9 C 76 % 1005,5 hPa 0,0 mm 0,6 km/h (0 Bft) NW 315 0 min 1,2 C 0,0 km/h (0 Bft)
27.02.2016 12:13 5,1 C 9,9 C 76 % 1005,5 hPa 0,0 mm 0,6 km/h (0 Bft) NW 315 0 min 1,2 C 0,0 km/h (0 Bft)
27.02.2016 12:14 5,5 C 9,9 C 76 % 1005,5 hPa 0,0 mm 0,6 km/h (0 Bft) O 90 0 min 1,6 C 0,0 km/h (0 Bft)
27.02.2016 12:15 5,5 C 9,9 C 76 % 1005,5 hPa 0,0 mm 0,6 km/h (0 Bft) O 90 0 min 1,6 C 0,0 km/h (0 Bft)
27.02.2016 12:16 5,6 C 10,0 C 75 % 1005,5 hPa 0,0 mm 0,6 km/h (0 Bft) O-SO 112 0 min 1,5 C 0,0 km/h (0 Bft)
27.02.2016 12:17 5,6 C 10,0 C 75 % 1005,5 hPa 0,0 mm 0,6 km/h (0 Bft) O-SO 112 0 min 1,5 C 0,0 km/h (0 Bft)
27.02.2016 12:18 5,8 C 10,0 C 75 % 1005,5 hPa 0,0 mm 0,3 km/h (0 Bft) SO 135 0 min 1,7 C 0,0 km/h (0 Bft)
27.02.2016 12:19 5,8 C 10,0 C 75 % 1005,5 hPa 0,0 mm 0,3 km/h (0 Bft) SO 135 0 min 1,7 C 0,0 km/h (0 Bft)
27.02.2016 12:21 6,0 C 10,2 C 74 % 1005,5 hPa 0,7 mm 0,0 km/h (0 Bft) N-NO 22 0 min 1,7 C 0,0 km/h (0 Bft)
27.02.2016 12:24 5,8 C 10,9 C 74 % 1005,5 hPa 0,0 mm 0,3 km/h (0 Bft) O 90 3 min 1,5 C 0,0 km/h (0 Bft)
27.02.2016 12:25 5,8 C 10,9 C 74 % 1005,5 hPa 0,0 mm 0,3 km/h (0 Bft) O 90 1 min 1,5 C 0,0 km/h (0 Bft)
27.02.2016 12:26 5,8 C 11,1 C 74 % 1005,5 hPa 0,0 mm 0,3 km/h (0 Bft) W 270 1 min 1,5 C 0,0 km/h (0 Bft)
27.02.2016 12:28 6,0 C 11,1 C 73 % 1005,6 hPa 0,0 mm 0,3 km/h (0 Bft) O-NO 67 2 min 1,5 C 0,0 km/h (0 Bft)
27.02.2016 12:31 6,0 C 11,1 C 72 % 1005,6 hPa 0,0 mm 0,9 km/h (0 Bft) O-SO 112 3 min 1,3 C 0,0 km/h (0 Bft)
27.02.2016 12:32 5,9 C 11,2 C 74 % 1005,6 hPa 0,0 mm 0,9 km/h (0 Bft) O-NO 67 1 min 1,6 C 0,0 km/h (0 Bft)
27.02.2016 12:33 5,9 C 11,2 C 74 % 1005,6 hPa 0,0 mm 0,9 km/h (0 Bft) O-NO 67 1 min 1,6 C 0,0 km/h (0 Bft)
27.02.2016 12:34 5,9 C 11,3 C 74 % 1005,6 hPa 0,0 mm 0,9 km/h (0 Bft) O-SO 112 1 min 1,6 C 0,0 km/h (0 Bft)
27.02.2016 12:39 6,2 C 11,9 C 72 % 1005,6 hPa 0,0 mm 1,2 km/h (1 Bft) NO 45 5 min 1,5 C 3,9 km/h (1 Bft)
27.02.2016 12:44 6,0 C 12,3 C 72 % 1005,6 hPa 0,0 mm 0,9 km/h (0 Bft) O-NO 67 5 min 1,3 C 0,0 km/h (0 Bft)
27.02.2016 12:49 5,9 C 12,3 C 73 % 1005,7 hPa 0,0 mm 0,3 km/h (0 Bft) O-NO 67 5 min 1,4 C 0,0 km/h (0 Bft)
27.02.2016 12:54 5,6 C 11,8 C 73 % 1005,7 hPa 0,7 mm 0,9 km/h (0 Bft) O-NO 67 5 min 1,2 C 4,2 km/h (1 Bft)
27.02.2016 12:59 5,8 C 11,6 C 73 % 1005,7 hPa 0,0 mm 3,3 km/h (1 Bft) O-NO 67 5 min 1,3 C 9,8 km/h (2 Bft)
27.02.2016 13:04 5,0 C 10,4 C 73 % 1005,7 hPa 0,0 mm 6,6 km/h (2 Bft) O-NO 67 5 min 0,6 C 10,7 km/h (2 Bft)
27.02.2016 13:09 4,9 C 9,8 C 74 % 1005,4 hPa 0,0 mm 6,9 km/h (2 Bft) N 360 0 min 0,7 C 7,7 km/h (2 Bft)
27.02.2016 13:14 5,1 C 10,1 C 74 % 1005,4 hPa 0,0 mm 5,4 km/h (1 Bft) O-SO 112 0 min 0,9 C 4,5 km/h (1 Bft)
27.02.2016 13:19 5,4 C 10,7 C 74 % 1005,4 hPa 0,0 mm 3,6 km/h (1 Bft) NO 45 0 min 1,1 C 0,0 km/h (0 Bft)
27.02.2016 13:24 5,6 C 11,7 C 74 % 1005,4 hPa 0,0 mm 2,4 km/h (1 Bft) O-NO 67 0 min 1,3 C 8,6 km/h (2 Bft)
27.02.2016 13:29 5,7 C 11,7 C 73 % 1005,3 hPa 0,0 mm 4,2 km/h (1 Bft) NO 45 5 min 1,2 C 11,3 km/h (2 Bft)
27.02.2016 13:34 5,7 C 12,0 C 73 % 1005,3 hPa 0,7 mm 5,4 km/h (1 Bft) O-NO 67 5 min 1,2 C 6,3 km/h (2 Bft)
27.02.2016 13:39 6,0 C 12,3 C 72 % 1005,3 hPa 0,0 mm 5,1 km/h (1 Bft) O-SO 112 5 min 1,3 C 4,8 km/h (1 Bft)
27.02.2016 13:44 6,0 C 12,5 C 71 % 1005,3 hPa 0,0 mm 5,4 km/h (1 Bft) NO 45 5 min 1,1 C 9,8 km/h (2 Bft)
27.02.2016 13:49 5,9 C 12,4 C 72 % 1005,6 hPa 0,0 mm 6,3 km/h (2 Bft) NO 45 5 min 1,2 C 9,5 km/h (2 Bft)
27.02.2016 13:54 5,8 C 12,3 C 72 % 1005,6 hPa 0,0 mm 7,5 km/h (2 Bft) O-NO 67 5 min 1,2 C 4,8 km/h (1 Bft)
27.02.2016 13:55 5,8 C 12,3 C 72 % 1005,6 hPa 0,0 mm 7,5 km/h (2 Bft) O-NO 67 1 min 1,2 C 4,8 km/h (1 Bft)
27.02.2016 13:56 5,8 C 12,2 C 72 % 1005,6 hPa 0,0 mm 7,2 km/h (2 Bft) O-NO 67 1 min 1,2 C 15,2 km/h (3 Bft)
27.02.2016 13:57 5,8 C 12,2 C 72 % 1005,6 hPa 0,0 mm 7,2 km/h (2 Bft) O-NO 67 1 min 1,2 C 4,5 km/h (1 Bft)
27.02.2016 13:59 5,8 C 12,1 C 72 % 1005,6 hPa 0,0 mm 7,7 km/h (2 Bft) O-NO 67 2 min 1,2 C 15,5 km/h (3 Bft)
27.02.2016 14:00 5,6 C 11,7 C 72 % 1005,6 hPa 0,0 mm 7,7 km/h (2 Bft) NO 45 1 min 1,0 C 7,5 km/h (2 Bft)
27.02.2016 14:01 5,6 C 11,7 C 72 % 1005,6 hPa 0,0 mm 7,7 km/h (2 Bft) NO 45 1 min 1,0 C 7,5 km/h (2 Bft)
27.02.2016 14:02 5,6 C 11,4 C 72 % 1005,6 hPa 0,0 mm 8,0 km/h (2 Bft) NO 45 1 min 1,0 C 13,1 km/h (3 Bft)
27.02.2016 14:03 5,6 C 11,4 C 72 % 1005,6 hPa 0,0 mm 8,0 km/h (2 Bft) NO 45 1 min 1,0 C 13,1 km/h (3 Bft)
27.02.2016 14:04 5,6 C 11,2 C 71 % 1005,6 hPa 0,0 mm 8,6 km/h (2 Bft) N-NO 22 0 min 0,8 C 11,3 km/h (2 Bft)
27.02.2016 14:05 5,6 C 11,2 C 71 % 1005,6 hPa 0,0 mm 8,6 km/h (2 Bft) N-NO 22 0 min 0,8 C 11,3 km/h (2 Bft)
27.02.2016 14:06 5,5 C 10,9 C 71 % 1005,6 hPa 0,0 mm 9,8 km/h (2 Bft) NO 45 0 min 0,7 C 15,5 km/h (3 Bft)
27.02.2016 14:07 5,5 C 10,9 C 71 % 1005,6 hPa 0,0 mm 9,8 km/h (2 Bft) NO 45 0 min 0,7 C 14,6 km/h (3 Bft)
27.02.2016 14:08 5,5 C 10,8 C 71 % 1005,6 hPa 0,0 mm 9,8 km/h (2 Bft) NO 45 0 min 0,7 C 9,5 km/h (2 Bft)
27.02.2016 14:09 5,5 C 10,8 C 71 % 1005,7 hPa 0,0 mm 9,8 km/h (2 Bft) NO 45 0 min 0,7 C 9,5 km/h (2 Bft)
27.02.2016 14:10 5,5 C 11,0 C 71 % 1005,7 hPa 0,0 mm 9,2 km/h (2 Bft) N-NO 22 0 min 0,7 C 10,1 km/h (2 Bft)
27.02.2016 14:11 5,5 C 11,0 C 71 % 1005,7 hPa 0,0 mm 9,2 km/h (2 Bft) N-NO 22 0 min 0,7 C 10,1 km/h (2 Bft)
27.02.2016 14:12 5,5 C 10,9 C 71 % 1005,7 hPa 0,0 mm 9,5 km/h (2 Bft) N-NO 22 0 min 0,7 C 10,7 km/h (2 Bft)
27.02.2016 14:13 5,5 C 10,9 C 71 % 1005,7 hPa 0,0 mm 9,5 km/h (2 Bft) N-NO 22 0 min 0,7 C 10,7 km/h (2 Bft)
27.02.2016 14:14 5,5 C 10,8 C 71 % 1005,7 hPa 0,0 mm 9,2 km/h (2 Bft) NO 45 0 min 0,7 C 10,4 km/h (2 Bft)
27.02.2016 14:15 5,5 C 10,8 C 71 % 1005,7 hPa 0,0 mm 9,2 km/h (2 Bft) NO 45 0 min 0,7 C 10,4 km/h (2 Bft)
27.02.2016 14:16 5,4 C 10,7 C 71 % 1005,7 hPa 0,0 mm 8,6 km/h (2 Bft) S-SW 202 0 min 0,6 C 5,4 km/h (1 Bft)
27.02.2016 14:17 5,4 C 10,7 C 71 % 1005,7 hPa 0,0 mm 8,6 km/h (2 Bft) S-SW 202 0 min 0,6 C 5,4 km/h (1 Bft)
27.02.2016 14:18 5,2 C 10,6 C 71 % 1005,7 hPa 0,0 mm 8,6 km/h (2 Bft) NO 45 0 min 0,4 C 6,3 km/h (2 Bft)
27.02.2016 14:19 5,2 C 10,6 C 71 % 1005,7 hPa 0,0 mm 8,6 km/h (2 Bft) NO 45 0 min 0,4 C 6,3 km/h (2 Bft)
27.02.2016 14:20 5,2 C 10,3 C 72 % 1005,7 hPa 0,0 mm 8,6 km/h (2 Bft) O-NO 67 1 min 0,6 C 8,0 km/h (2 Bft)
27.02.2016 14:21 5,2 C 10,3 C 72 % 1005,7 hPa 0,0 mm 8,6 km/h (2 Bft) O-NO 67 1 min 0,6 C 8,0 km/h (2 Bft)
27.02.2016 14:22 5,4 C 10,4 C 72 % 1005,7 hPa 0,0 mm 8,0 km/h (2 Bft) O-NO 67 0 min 0,8 C 0,0 km/h (0 Bft)
27.02.2016 14:23 5,4 C 10,4 C 72 % 1005,7 hPa 0,0 mm 8,0 km/h (2 Bft) O-NO 67 0 min 0,8 C 0,0 km/h (0 Bft)
27.02.2016 14:24 5,4 C 10,5 C 72 % 1005,7 hPa 0,0 mm 7,2 km/h (2 Bft) O-SO 112 0 min 0,8 C 4,5 km/h (1 Bft)
27.02.2016 14:25 5,4 C 10,5 C 72 % 1005,7 hPa 0,0 mm 7,2 km/h (2 Bft) O-SO 112 0 min 0,8 C 4,5 km/h (1 Bft)
27.02.2016 14:26 5,5 C 10,5 C 72 % 1005,7 hPa 0,0 mm 6,6 km/h (2 Bft) NO 45 0 min 0,9 C 9,8 km/h (2 Bft)
27.02.2016 14:27 5,5 C 10,5 C 72 % 1005,7 hPa 0,0 mm 6,6 km/h (2 Bft) NO 45 0 min 0,9 C 9,8 km/h (2 Bft)
27.02.2016 14:28 5,5 C 10,6 C 72 % 1005,7 hPa 0,0 mm 6,3 km/h (2 Bft) SO 135 0 min 0,9 C 4,8 km/h (1 Bft)
27.02.2016 14:29 5,5 C 10,6 C 72 % 1005,5 hPa 0,0 mm 6,3 km/h (2 Bft) SO 135 0 min 0,9 C 4,8 km/h (1 Bft)
27.02.2016 14:30 5,7 C 10,7 C 72 % 1005,5 hPa 0,0 mm 6,3 km/h (2 Bft) NO 45 0 min 1,1 C 10,1 km/h (2 Bft)
27.02.2016 14:31 5,7 C 10,7 C 72 % 1005,5 hPa 0,0 mm 6,3 km/h (2 Bft) NO 45 0 min 1,1 C 10,1 km/h (2 Bft)
27.02.2016 14:32 5,7 C 10,6 C 72 % 1005,5 hPa 0,0 mm 6,6 km/h (2 Bft) O-SO 112 0 min 1,1 C 7,2 km/h (2 Bft)
27.02.2016 14:33 5,7 C 10,6 C 72 % 1005,5 hPa 0,0 mm 6,6 km/h (2 Bft) O-SO 112 0 min 1,1 C 7,2 km/h (2 Bft)
27.02.2016 14:34 5,6 C 10,6 C 72 % 1005,5 hPa 0,0 mm 7,2 km/h (2 Bft) O-NO 67 0 min 1,0 C 10,1 km/h (2 Bft)
27.02.2016 14:35 5,6 C 10,6 C 72 % 1005,5 hPa 0,0 mm 7,2 km/h (2 Bft) O-NO 67 0 min 1,0 C 10,1 km/h (2 Bft)
27.02.2016 14:36 5,5 C 10,5 C 72 % 1005,5 hPa 0,0 mm 7,5 km/h (2 Bft) NO 45 1 min 0,9 C 15,5 km/h (3 Bft)
27.02.2016 14:37 5,5 C 10,5 C 72 % 1005,5 hPa 0,0 mm 7,5 km/h (2 Bft) NO 45 1 min 0,9 C 15,5 km/h (3 Bft)
27.02.2016 14:38 5,4 C 10,3 C 72 % 1005,5 hPa 0,0 mm 8,3 km/h (2 Bft) S 180 1 min 0,8 C 14,6 km/h (3 Bft)
27.02.2016 14:39 5,4 C 10,3 C 72 % 1005,5 hPa 0,0 mm 8,3 km/h (2 Bft) S 180 1 min 0,8 C 14,6 km/h (3 Bft)
27.02.2016 14:40 5,4 C 10,2 C 72 % 1005,5 hPa 0,0 mm 8,6 km/h (2 Bft) SO 135 1 min 0,8 C 6,0 km/h (2 Bft)
27.02.2016 14:41 5,4 C 10,2 C 72 % 1005,5 hPa 0,0 mm 8,6 km/h (2 Bft) SO 135 1 min 0,8 C 6,0 km/h (2 Bft)
27.02.2016 14:42 5,4 C 10,3 C 72 % 1005,5 hPa 0,0 mm 7,2 km/h (2 Bft) NO 45 1 min 0,8 C 8,9 km/h (2 Bft)
27.02.2016 14:43 5,4 C 10,3 C 72 % 1005,5 hPa 0,0 mm 7,2 km/h (2 Bft) NO 45 1 min 0,8 C 8,9 km/h (2 Bft)
27.02.2016 14:44 5,5 C 10,5 C 73 % 1005,5 hPa 0,0 mm 7,2 km/h (2 Bft) SO 135 1 min 1,1 C 4,2 km/h (1 Bft)
27.02.2016 14:45 5,5 C 10,5 C 73 % 1005,5 hPa 0,0 mm 7,2 km/h (2 Bft) SO 135 1 min 1,1 C 4,2 km/h (1 Bft)
27.02.2016 14:46 5,7 C 10,8 C 73 % 1005,5 hPa 0,0 mm 6,3 km/h (2 Bft) O-SO 112 1 min 1,2 C 16,1 km/h (3 Bft)
27.02.2016 14:47 5,7 C 10,8 C 73 % 1005,5 hPa 0,0 mm 6,3 km/h (2 Bft) O-SO 112 1 min 1,2 C 3,0 km/h (1 Bft)
27.02.2016 14:48 5,9 C 11,1 C 73 % 1005,5 hPa 0,0 mm 5,1 km/h (1 Bft) O-SO 112 1 min 1,4 C 0,0 km/h (0 Bft)
27.02.2016 14:49 5,9 C 11,1 C 73 % 1005,4 hPa 0,0 mm 5,1 km/h (1 Bft) O-SO 112 1 min 1,4 C 0,0 km/h (0 Bft)
27.02.2016 14:50 6,1 C 11,4 C 71 % 1005,4 hPa 0,0 mm 3,9 km/h (1 Bft) N-NO 22 1 min 1,2 C 8,9 km/h (2 Bft)
27.02.2016 14:51 6,1 C 11,4 C 71 % 1005,4 hPa 0,0 mm 3,9 km/h (1 Bft) N-NO 22 1 min 1,2 C 8,9 km/h (2 Bft)
27.02.2016 14:52 6,1 C 11,6 C 71 % 1005,4 hPa 0,0 mm 4,5 km/h (1 Bft) O-SO 112 1 min 1,2 C 16,4 km/h (3 Bft)
27.02.2016 14:53 6,1 C 11,6 C 71 % 1005,4 hPa 0,0 mm 4,5 km/h (1 Bft) O-SO 112 1 min 1,2 C 16,4 km/h (3 Bft)
27.02.2016 14:54 6,0 C 11,6 C 71 % 1005,4 hPa 0,0 mm 4,5 km/h (1 Bft) N-NO 22 1 min 1,1 C 5,1 km/h (1 Bft)
27.02.2016 14:55 6,0 C 11,6 C 71 % 1005,4 hPa 0,0 mm 4,5 km/h (1 Bft) N-NO 22 1 min 1,1 C 5,1 km/h (1 Bft)
27.02.2016 14:56 5,9 C 11,5 C 72 % 1005,4 hPa 0,0 mm 4,8 km/h (1 Bft) NO 45 1 min 1,2 C 16,4 km/h (3 Bft)
27.02.2016 14:57 5,9 C 11,5 C 72 % 1005,4 hPa 0,0 mm 4,8 km/h (1 Bft) NO 45 1 min 1,2 C 6,3 km/h (2 Bft)
27.02.2016 14:58 6,0 C 11,4 C 71 % 1005,4 hPa 0,0 mm 4,5 km/h (1 Bft) N-NO 22 1 min 1,1 C 0,0 km/h (0 Bft)
27.02.2016 14:59 6,0 C 11,4 C 71 % 1005,4 hPa 0,0 mm 4,5 km/h (1 Bft) N-NO 22 1 min 1,1 C 0,0 km/h (0 Bft)
27.02.2016 15:00 6,3 C 11,7 C 71 % 1005,4 hPa 0,0 mm 4,2 km/h (1 Bft) O-SO 112 1 min 1,4 C 0,0 km/h (0 Bft)
27.02.2016 15:01 6,3 C 11,7 C 71 % 1005,4 hPa 0,0 mm 4,2 km/h (1 Bft) O-SO 112 1 min 1,4 C 0,0 km/h (0 Bft)
27.02.2016 15:02 6,6 C 11,9 C 71 % 1005,4 hPa 0,0 mm 3,3 km/h (1 Bft) SO 135 1 min 1,7 C 0,0 km/h (0 Bft)
27.02.2016 15:03 6,6 C 11,9 C 71 % 1005,4 hPa 0,0 mm 3,3 km/h (1 Bft) SO 135 1 min 1,7 C 0,0 km/h (0 Bft)
27.02.2016 15:04 6,7 C 12,2 C 71 % 1005,4 hPa 0,0 mm 3,0 km/h (1 Bft) NO 45 1 min 1,8 C 13,4 km/h (3 Bft)
27.02.2016 15:05 6,7 C 12,2 C 71 % 1005,4 hPa 0,0 mm 3,0 km/h (1 Bft) NO 45 1 min 1,8 C 13,4 km/h (3 Bft)
27.02.2016 15:06 6,5 C 12,1 C 70 % 1005,4 hPa 0,0 mm 2,7 km/h (1 Bft) N-NW 337 1 min 1,4 C 0,0 km/h (0 Bft)
27.02.2016 15:07 6,5 C 12,1 C 70 % 1005,4 hPa 0,0 mm 2,7 km/h (1 Bft) N-NW 337 1 min 1,4 C 0,0 km/h (0 Bft)
27.02.2016 15:08 6,4 C 11,9 C 70 % 1005,4 hPa 0,0 mm 3,3 km/h (1 Bft) O-NO 67 1 min 1,3 C 6,6 km/h (2 Bft)
27.02.2016 15:09 6,4 C 11,9 C 70 % 1005,3 hPa 0,0 mm 3,3 km/h (1 Bft) O-NO 67 1 min 1,3 C 6,6 km/h (2 Bft)
27.02.2016 15:10 6,3 C 11,7 C 70 % 1005,3 hPa 0,0 mm 3,6 km/h (1 Bft) N-NW 337 1 min 1,2 C 0,0 km/h (0 Bft)
27.02.2016 15:11 6,3 C 11,7 C 70 % 1005,3 hPa 0,0 mm 3,6 km/h (1 Bft) N-NW 337 1 min 1,2 C 0,0 km/h (0 Bft)
27.02.2016 15:12 6,0 C 11,6 C 70 % 1005,3 hPa 0,0 mm 4,5 km/h (1 Bft) NO 45 1 min 1,0 C 3,3 km/h (1 Bft)
27.02.2016 15:13 6,0 C 11,6 C 70 % 1005,3 hPa 0,0 mm 4,5 km/h (1 Bft) NO 45 1 min 1,0 C 3,3 km/h (1 Bft)
27.02.2016 15:14 5,9 C 11,5 C 72 % 1005,3 hPa 0,0 mm 5,1 km/h (1 Bft) NO 45 1 min 1,2 C 12,8 km/h (3 Bft)
27.02.2016 15:15 5,9 C 11,5 C 72 % 1005,3 hPa 0,0 mm 5,1 km/h (1 Bft) NO 45 1 min 1,2 C 12,8 km/h (3 Bft)
27.02.2016 15:16 5,9 C 11,5 C 72 % 1005,3 hPa 0,0 mm 4,2 km/h (1 Bft) SO 135 1 min 1,2 C 0,0 km/h (0 Bft)
27.02.2016 15:17 5,9 C 11,5 C 72 % 1005,3 hPa 0,0 mm 4,2 km/h (1 Bft) SO 135 1 min 1,2 C 0,0 km/h (0 Bft)
27.02.2016 15:18 5,9 C 11,6 C 72 % 1005,3 hPa 0,0 mm 3,6 km/h (1 Bft) NO 45 1 min 1,2 C 4,8 km/h (1 Bft)
27.02.2016 15:19 5,9 C 11,6 C 72 % 1005,3 hPa 0,0 mm 3,6 km/h (1 Bft) NO 45 1 min 1,2 C 4,8 km/h (1 Bft)
27.02.2016 15:20 5,9 C 11,6 C 73 % 1005,3 hPa 0,0 mm 3,6 km/h (1 Bft) O-NO 67 1 min 1,4 C 0,0 km/h (0 Bft)
27.02.2016 15:21 5,9 C 11,6 C 73 % 1005,3 hPa 0,0 mm 3,6 km/h (1 Bft) O-NO 67 1 min 1,4 C 0,0 km/h (0 Bft)
27.02.2016 15:22 6,0 C 11,6 C 71 % 1005,3 hPa 0,0 mm 3,0 km/h (1 Bft) O-SO 112 1 min 1,1 C 0,0 km/h (0 Bft)
27.02.2016 15:23 6,0 C 11,6 C 71 % 1005,3 hPa 0,0 mm 3,0 km/h (1 Bft) O-SO 112 1 min 1,1 C 0,0 km/h (0 Bft)
27.02.2016 15:24 6,3 C 11,7 C 71 % 1005,3 hPa 0,0 mm 2,7 km/h (1 Bft) O 90 1 min 1,4 C 4,2 km/h (1 Bft)
27.02.2016 15:25 6,3 C 11,7 C 71 % 1005,3 hPa 0,0 mm 2,7 km/h (1 Bft) O 90 1 min 1,4 C 4,2 km/h (1 Bft)
27.02.2016 15:26 6,5 C 11,7 C 71 % 1005,3 hPa 0,0 mm 1,8 km/h (1 Bft) O-NO 67 1 min 1,6 C 0,0 km/h (0 Bft)
27.02.2016 15:27 6,5 C 11,7 C 71 % 1005,3 hPa 0,0 mm 1,8 km/h (1 Bft) O-NO 67 1 min 1,6 C 0,0 km/h (0 Bft)
27.02.2016 15:28 6,6 C 11,7 C 71 % 1005,0 hPa 0,0 mm 1,8 km/h (1 Bft) N-NO 22 1 min 1,7 C 0,0 km/h (0 Bft)
27.02.2016 15:29 6,6 C 11,7 C 71 % 1005,0 hPa 0,0 mm 1,8 km/h (1 Bft) N-NO 22 1 min 1,7 C 0,0 km/h (0 Bft)
27.02.2016 15:30 6,5 C 12,0 C 71 % 1005,0 hPa 0,0 mm 0,9 km/h (0 Bft) O 90 1 min 1,6 C 0,0 km/h (0 Bft)
27.02.2016 15:31 6,5 C 12,0 C 71 % 1005,0 hPa 0,0 mm 0,9 km/h (0 Bft) O 90 1 min 1,6 C 0,0 km/h (0 Bft)
27.02.2016 15:32 6,3 C 12,3 C 71 % 1005,0 hPa 0,0 mm 0,6 km/h (0 Bft) SO 135 1 min 1,4 C 0,0 km/h (0 Bft)
27.02.2016 15:33 6,3 C 12,3 C 71 % 1005,0 hPa 0,0 mm 0,6 km/h (0 Bft) SO 135 1 min 1,4 C 0,0 km/h (0 Bft)
27.02.2016 15:34 6,2 C 12,5 C 71 % 1005,0 hPa 0,0 mm 0,6 km/h (0 Bft) O-NO 67 1 min 1,3 C 0,0 km/h (0 Bft)
27.02.2016 15:35 6,2 C 12,5 C 71 % 1005,0 hPa 0,0 mm 0,6 km/h (0 Bft) O-NO 67 1 min 1,3 C 0,0 km/h (0 Bft)
27.02.2016 15:36 5,9 C 12,5 C 72 % 1005,0 hPa 0,0 mm 0,3 km/h (0 Bft) SW 225 1 min 1,2 C 0,0 km/h (0 Bft)
27.02.2016 15:37 5,9 C 12,5 C 72 % 1005,0 hPa 0,0 mm 0,3 km/h (0 Bft) SW 225 1 min 1,2 C 0,0 km/h (0 Bft)
27.02.2016 15:38 5,6 C 12,4 C 72 % 1005,0 hPa 0,0 mm 0,3 km/h (0 Bft) O-SO 112 1 min 1,0 C 0,0 km/h (0 Bft)
27.02.2016 15:39 5,6 C 12,4 C 72 % 1005,0 hPa 0,0 mm 0,3 km/h (0 Bft) O-SO 112 1 min 1,0 C 0,0 km/h (0 Bft)
27.02.2016 15:40 5,5 C 12,4 C 72 % 1005,0 hPa 0,0 mm 0,3 km/h (0 Bft) O-NO 67 1 min 0,9 C 0,0 km/h (0 Bft)
27.02.2016 15:41 5,5 C 12,4 C 72 % 1005,0 hPa 0,0 mm 0,3 km/h (0 Bft) O-NO 67 1 min 0,9 C 0,0 km/h (0 Bft)
27.02.2016 15:42 5,5 C 12,5 C 73 % 1005,0 hPa 0,0 mm 0,3 km/h (0 Bft) N-NO 22 1 min 1,1 C 0,0 km/h (0 Bft)
27.02.2016 15:43 5,5 C 12,5 C 73 % 1005,0 hPa 0,0 mm 0,3 km/h (0 Bft) N-NO 22 1 min 1,1 C 0,0 km/h (0 Bft)
27.02.2016 15:44 5,2 C 12,5 C 73 % 1005,0 hPa 0,0 mm 0,9 km/h (0 Bft) NO 45 1 min 0,8 C 6,6 km/h (2 Bft)
27.02.2016 15:45 5,2 C 12,5 C 73 % 1005,0 hPa 0,0 mm 0,9 km/h (0 Bft) NO 45 1 min 0,8 C 6,6 km/h (2 Bft)
27.02.2016 15:46 5,2 C 12,3 C 73 % 1005,0 hPa 0,0 mm 0,9 km/h (0 Bft) SO 135 1 min 0,8 C 4,2 km/h (1 Bft)
27.02.2016 15:47 5,2 C 12,3 C 73 % 1005,0 hPa 0,0 mm 0,9 km/h (0 Bft) SO 135 1 min 0,8 C 4,2 km/h (1 Bft)
27.02.2016 15:48 5,1 C 12,0 C 73 % 1005,0 hPa 0,0 mm 2,1 km/h (1 Bft) N-NW 337 1 min 0,7 C 7,5 km/h (2 Bft)
27.02.2016 15:49 5,1 C 12,0 C 73 % 1004,8 hPa 0,0 mm 2,1 km/h (1 Bft) N-NW 337 1 min 0,7 C 7,5 km/h (2 Bft)
27.02.2016 15:50 5,0 C 11,6 C 73 % 1004,8 hPa 0,0 mm 2,7 km/h (1 Bft) O-SO 112 1 min 0,6 C 3,3 km/h (1 Bft)
27.02.2016 15:51 5,0 C 11,6 C 73 % 1004,8 hPa 0,0 mm 2,7 km/h (1 Bft) O-SO 112 1 min 0,6 C 3,3 km/h (1 Bft)
27.02.2016 15:52 4,9 C 11,2 C 73 % 1004,8 hPa 0,0 mm 2,7 km/h (1 Bft) O-SO 112 1 min 0,5 C 0,0 km/h (0 Bft)
27.02.2016 15:53 4,9 C 11,2 C 73 % 1004,8 hPa 0,0 mm 2,7 km/h (1 Bft) O-SO 112 1 min 0,5 C 0,0 km/h (0 Bft)
27.02.2016 15:54 4,7 C 10,7 C 73 % 1004,8 hPa 0,0 mm 2,7 km/h (1 Bft) N-NO 22 1 min 0,3 C 0,0 km/h (0 Bft)
27.02.2016 15:55 4,7 C 10,7 C 73 % 1004,8 hPa 0,0 mm 2,7 km/h (1 Bft) N-NO 22 1 min 0,3 C 0,0 km/h (0 Bft)
27.02.2016 15:56 4,5 C 10,2 C 73 % 1004,8 hPa 0,0 mm 2,1 km/h (1 Bft) O-NO 67 1 min 0,1 C 3,3 km/h (1 Bft)
27.02.2016 15:57 4,5 C 10,2 C 73 % 1004,8 hPa 0,0 mm 2,1 km/h (1 Bft) O-NO 67 1 min 0,1 C 3,3 km/h (1 Bft)
27.02.2016 15:58 4,4 C 9,6 C 73 % 1004,8 hPa 0,0 mm 2,1 km/h (1 Bft) SO 135 1 min -0,0 C 0,0 km/h (0 Bft)
27.02.2016 15:59 4,4 C 9,6 C 73 % 1004,8 hPa 0,0 mm 2,1 km/h (1 Bft) SO 135 1 min -0,0 C 0,0 km/h (0 Bft)
27.02.2016 16:00 4,2 C 8,9 C 73 % 1004,8 hPa 0,0 mm 0,9 km/h (0 Bft) O-NO 67 1 min -0,2 C 0,0 km/h (0 Bft)
27.02.2016 16:01 4,2 C 8,9 C 73 % 1004,8 hPa 0,0 mm 0,9 km/h (0 Bft) O-NO 67 1 min -0,2 C 0,0 km/h (0 Bft)
27.02.2016 16:02 4,1 C 8,5 C 73 % 1004,8 hPa 0,0 mm 1,2 km/h (1 Bft) N-NW 337 1 min -0,3 C 4,5 km/h (1 Bft)
27.02.2016 16:03 4,1 C 8,5 C 73 % 1004,8 hPa 0,0 mm 1,2 km/h (1 Bft) N-NW 337 1 min -0,3 C 4,5 km/h (1 Bft)
27.02.2016 16:04 3,9 C 7,8 C 74 % 1004,8 hPa 0,0 mm 0,9 km/h (0 Bft) O-NO 67 1 min -0,3 C 0,0 km/h (0 Bft)
27.02.2016 16:05 3,9 C 7,8 C 74 % 1004,8 hPa 0,0 mm 0,9 km/h (0 Bft) O-NO 67 1 min -0,3 C 0,0 km/h (0 Bft)
27.02.2016 16:06 3,8 C 7,2 C 74 % 1004,8 hPa 0,0 mm 1,2 km/h (1 Bft) W 270 0 min -0,4 C 5,7 km/h (1 Bft)
27.02.2016 16:07 3,8 C 7,2 C 74 % 1004,8 hPa 0,0 mm 1,2 km/h (1 Bft) W 270 0 min -0,4 C 5,7 km/h (1 Bft)
27.02.2016 16:08 3,7 C 6,8 C 74 % 1004,8 hPa 0,0 mm 0,9 km/h (0 Bft) NO 45 0 min -0,5 C 0,0 km/h (0 Bft)
27.02.2016 16:09 3,7 C 6,8 C 74 % 1004,4 hPa 0,0 mm 0,9 km/h (0 Bft) NO 45 0 min -0,5 C 0,0 km/h (0 Bft)
27.02.2016 16:10 3,7 C 6,3 C 74 % 1004,4 hPa 0,0 mm 0,6 km/h (0 Bft) O-NO 67 0 min -0,5 C 0,0 km/h (0 Bft)
27.02.2016 16:11 3,7 C 6,3 C 74 % 1004,4 hPa 0,0 mm 0,6 km/h (0 Bft) O-NO 67 0 min -0,5 C 0,0 km/h (0 Bft)
27.02.2016 16:12 3,6 C 6,0 C 74 % 1004,4 hPa 0,0 mm 0,6 km/h (0 Bft) N-NO 22 0 min -0,6 C 0,0 km/h (0 Bft)
27.02.2016 16:13 3,6 C 6,0 C 74 % 1004,4 hPa 0,0 mm 0,6 km/h (0 Bft) N-NO 22 0 min -0,6 C 0,0 km/h (0 Bft)
27.02.2016 16:14 3,6 C 5,6 C 75 % 1004,4 hPa 0,0 mm 0,6 km/h (0 Bft) NO 45 0 min -0,4 C 0,0 km/h (0 Bft)
27.02.2016 16:15 3,6 C 5,6 C 75 % 1004,4 hPa 0,0 mm 0,6 km/h (0 Bft) NO 45 0 min -0,4 C 0,0 km/h (0 Bft)
27.02.2016 16:16 3,5 C 5,3 C 75 % 1004,4 hPa 0,0 mm 0,6 km/h (0 Bft) NO 45 0 min -0,5 C 0,0 km/h (0 Bft)
27.02.2016 16:17 3,5 C 5,3 C 75 % 1004,4 hPa 0,0 mm 0,6 km/h (0 Bft) NO 45 0 min -0,5 C 0,0 km/h (0 Bft)
27.02.2016 16:18 3,4 C 5,1 C 75 % 1004,4 hPa 0,0 mm 0,6 km/h (0 Bft) O-SO 112 0 min -0,6 C 3,6 km/h (1 Bft)
27.02.2016 16:19 3,4 C 5,1 C 75 % 1004,4 hPa 0,0 mm 0,6 km/h (0 Bft) O-SO 112 0 min -0,6 C 3,6 km/h (1 Bft)
27.02.2016 16:20 3,4 C 4,8 C 75 % 1004,4 hPa 0,0 mm 0,3 km/h (0 Bft) NW 315 0 min -0,6 C 0,0 km/h (0 Bft)
27.02.2016 16:21 3,4 C 4,8 C 75 % 1004,4 hPa 0,0 mm 0,3 km/h (0 Bft) NW 315 0 min -0,6 C 0,0 km/h (0 Bft)
27.02.2016 16:22 3,4 C 4,6 C 75 % 1004,4 hPa 0,0 mm 1,2 km/h (1 Bft) O-NO 67 0 min -0,6 C 5,1 km/h (1 Bft)
27.02.2016 16:23 3,4 C 4,6 C 75 % 1004,4 hPa 0,0 mm 1,2 km/h (1 Bft) O-NO 67 0 min -0,6 C 5,1 km/h (1 Bft)
27.02.2016 16:24 3,3 C 4,4 C 75 % 1004,4 hPa 0,0 mm 1,2 km/h (1 Bft) NO 45 0 min -0,7 C 0,0 km/h (0 Bft)
27.02.2016 16:25 3,3 C 4,4 C 75 % 1004,4 hPa 0,0 mm 1,2 km/h (1 Bft) NO 45 0 min -0,7 C 0,0 km/h (0 Bft)
27.02.2016 16:26 3,3 C 4,2 C 75 % 1004,4 hPa 0,0 mm 1,8 km/h (1 Bft) O-NO 67 0 min -0,7 C 8,3 km/h (2 Bft)
27.02.2016 16:27 3,3 C 4,2 C 75 % 1004,4 hPa 0,0 mm 1,8 km/h (1 Bft) O-NO 67 0 min -0,7 C 8,3 km/h (2 Bft)
27.02.2016 16:28 3,3 C 4,2 C 75 % 1004,4 hPa 0,0 mm 2,1 km/h (1 Bft) N-NO 22 0 min -0,7 C 3,0 km/h (1 Bft)
27.02.2016 16:29 3,3 C 4,2 C 75 % 1004,2 hPa 0,0 mm 2,1 km/h (1 Bft) N-NO 22 0 min -0,7 C 3,0 km/h (1 Bft)
27.02.2016 16:30 3,3 C 4,2 C 75 % 1004,2 hPa 0,0 mm 2,7 km/h (1 Bft) O-NO 67 0 min -0,7 C 6,9 km/h (2 Bft)
27.02.2016 16:31 3,3 C 4,2 C 75 % 1004,2 hPa 0,0 mm 2,7 km/h (1 Bft) O-NO 67 0 min -0,7 C 6,9 km/h (2 Bft)
27.02.2016 16:32 3,3 C 4,2 C 76 % 1004,2 hPa 0,0 mm 2,7 km/h (1 Bft) N-NO 22 0 min -0,5 C 0,0 km/h (0 Bft)
27.02.2016 16:33 3,3 C 4,2 C 76 % 1004,2 hPa 0,0 mm 2,7 km/h (1 Bft) N-NO 22 0 min -0,5 C 0,0 km/h (0 Bft)
27.02.2016 16:34 3,3 C 4,1 C 76 % 1004,2 hPa 0,0 mm 1,8 km/h (1 Bft) N-NO 22 0 min -0,5 C 0,0 km/h (0 Bft)
27.02.2016 16:35 3,3 C 4,1 C 76 % 1004,2 hPa 0,0 mm 1,8 km/h (1 Bft) N-NO 22 0 min -0,5 C 0,0 km/h (0 Bft)
27.02.2016 16:36 3,3 C 4,0 C 76 % 1004,2 hPa 0,0 mm 2,1 km/h (1 Bft) N-NO 22 0 min -0,5 C 0,0 km/h (0 Bft)
27.02.2016 16:37 3,3 C 4,0 C 76 % 1004,2 hPa 0,0 mm 2,1 km/h (1 Bft) N-NO 22 0 min -0,5 C 0,0 km/h (0 Bft)
27.02.2016 16:38 3,1 C 4,0 C 76 % 1004,2 hPa 0,0 mm 1,2 km/h (1 Bft) O-SO 112 0 min -0,7 C 0,0 km/h (0 Bft)
27.02.2016 16:39 3,1 C 4,0 C 76 % 1004,2 hPa 0,0 mm 1,2 km/h (1 Bft) O-SO 112 0 min -0,7 C 0,0 km/h (0 Bft)
27.02.2016 16:40 3,1 C 3,9 C 76 % 1004,2 hPa 0,0 mm 1,2 km/h (1 Bft) NO 45 0 min -0,7 C 6,6 km/h (2 Bft)
27.02.2016 16:41 3,1 C 3,9 C 76 % 1004,2 hPa 0,0 mm 1,2 km/h (1 Bft) NO 45 0 min -0,7 C 6,6 km/h (2 Bft)
27.02.2016 16:42 3,1 C 3,8 C 76 % 1004,2 hPa 0,0 mm 0,9 km/h (0 Bft) NO 45 0 min -0,7 C 0,0 km/h (0 Bft)
27.02.2016 16:43 3,1 C 3,8 C 76 % 1004,2 hPa 0,0 mm 0,9 km/h (0 Bft) NO 45 0 min -0,7 C 0,0 km/h (0 Bft)
27.02.2016 16:44 3,0 C 3,6 C 76 % 1004,2 hPa 0,0 mm 0,9 km/h (0 Bft) O-NO 67 0 min -0,8 C 0,0 km/h (0 Bft)
27.02.2016 16:45 3,0 C 3,6 C 76 % 1004,2 hPa 0,0 mm 0,9 km/h (0 Bft) O-NO 67 0 min -0,8 C 0,0 km/h (0 Bft)
27.02.2016 16:46 3,0 C 3,5 C 76 % 1004,2 hPa 0,0 mm 0,9 km/h (0 Bft) O-SO 112 0 min -0,8 C 0,0 km/h (0 Bft)
27.02.2016 16:47 3,0 C 3,5 C 76 % 1004,2 hPa 0,0 mm 0,9 km/h (0 Bft) O-SO 112 0 min -0,8 C 0,0 km/h (0 Bft)
27.02.2016 16:48 2,9 C 3,3 C 77 % 1004,2 hPa 0,0 mm 0,6 km/h (0 Bft) SO 135 0 min -0,7 C 0,0 km/h (0 Bft)
27.02.2016 16:49 2,9 C 3,3 C 77 % 1004,2 hPa 0,0 mm 0,6 km/h (0 Bft) SO 135 0 min -0,7 C 0,0 km/h (0 Bft)
27.02.2016 16:50 2,9 C 3,3 C 77 % 1004,2 hPa 0,0 mm 0,3 km/h (0 Bft) O-SO 112 0 min -0,7 C 0,0 km/h (0 Bft)
27.02.2016 16:51 2,9 C 3,3 C 77 % 1004,2 hPa 0,0 mm 0,3 km/h (0 Bft) O-SO 112 0 min -0,7 C 0,0 km/h (0 Bft)
27.02.2016 16:52 2,9 C 3,3 C 77 % 1004,2 hPa 0,0 mm 0,0 km/h (0 Bft) SO 135 0 min -0,7 C 0,0 km/h (0 Bft)
27.02.2016 16:53 2,9 C 3,3 C 77 % 1004,2 hPa 0,0 mm 0,0 km/h (0 Bft) SO 135 0 min -0,7 C 0,0 km/h (0 Bft)
27.02.2016 16:54 2,9 C 3,1 C 77 % 1004,2 hPa 0,0 mm 0,0 km/h (0 Bft) SO 135 0 min -0,7 C 0,0 km/h (0 Bft)
27.02.2016 16:56 2,7 C 3,0 C 78 % 1004,2 hPa 0,0 mm 0,0 km/h (0 Bft) O-SO 112 0 min -0,7 C 0,0 km/h (0 Bft)
27.02.2016 16:57 2,7 C 3,0 C 78 % 1004,2 hPa 0,0 mm 0,0 km/h (0 Bft) O-SO 112 0 min -0,7 C 0,0 km/h (0 Bft)
27.02.2016 16:58 2,6 C 2,9 C 78 % 1004,2 hPa 0,0 mm 0,0 km/h (0 Bft) O-SO 112 0 min -0,8 C 0,0 km/h (0 Bft)
27.02.2016 16:59 2,6 C 2,9 C 78 % 1004,2 hPa 0,0 mm 0,0 km/h (0 Bft) O-SO 112 0 min -0,8 C 0,0 km/h (0 Bft)
27.02.2016 17:00 2,5 C 2,7 C 78 % 1004,2 hPa 0,0 mm 0,0 km/h (0 Bft) SO 135 0 min -0,9 C 0,0 km/h (0 Bft)
27.02.2016 17:01 2,5 C 2,7 C 78 % 1004,2 hPa 0,0 mm 0,0 km/h (0 Bft) SO 135 0 min -0,9 C 0,0 km/h (0 Bft)
27.02.2016 17:02 2,4 C 2,6 C 78 % 1004,2 hPa 0,0 mm 0,0 km/h (0 Bft) O-NO 67 0 min -1,0 C 0,0 km/h (0 Bft)
27.02.2016 17:03 2,4 C 2,6 C 78 % 1004,2 hPa 0,0 mm 0,0 km/h (0 Bft) O-NO 67 0 min -1,0 C 0,0 km/h (0 Bft)
27.02.2016 17:04 2,4 C 2,3 C 78 % 1004,2 hPa 0,0 mm 0,0 km/h (0 Bft) S 180 0 min -1,0 C 0,0 km/h (0 Bft)
27.02.2016 17:05 2,4 C 2,3 C 78 % 1004,2 hPa 0,0 mm 0,0 km/h (0 Bft) S 180 0 min -1,0 C 0,0 km/h (0 Bft)
27.02.2016 17:06 2,3 C 2,2 C 78 % 1004,2 hPa 0,0 mm 0,0 km/h (0 Bft) O-NO 67 0 min -1,1 C 0,0 km/h (0 Bft)
27.02.2016 17:07 2,3 C 2,2 C 78 % 1004,2 hPa 0,0 mm 0,0 km/h (0 Bft) O-NO 67 0 min -1,1 C 0,0 km/h (0 Bft)
27.02.2016 17:08 2,2 C 2,1 C 78 % 1004,2 hPa 0,0 mm 0,0 km/h (0 Bft) SO 135 0 min -1,2 C 0,0 km/h (0 Bft)
27.02.2016 17:09 2,2 C 2,1 C 78 % 1004,3 hPa 0,0 mm 0,0 km/h (0 Bft) SO 135 0 min -1,2 C 0,0 km/h (0 Bft)
27.02.2016 17:10 2,1 C 2,0 C 78 % 1004,3 hPa 0,0 mm 0,0 km/h (0 Bft) N-NO 22 0 min -1,3 C 0,0 km/h (0 Bft)
27.02.2016 17:11 2,1 C 2,0 C 78 % 1004,3 hPa 0,0 mm 0,0 km/h (0 Bft) N-NO 22 0 min -1,3 C 0,0 km/h (0 Bft)
27.02.2016 17:12 1,9 C 1,7 C 78 % 1004,3 hPa 0,0 mm 0,0 km/h (0 Bft) NW 315 0 min -1,5 C 0,0 km/h (0 Bft)
27.02.2016 17:13 1,9 C 1,7 C 78 % 1004,3 hPa 0,0 mm 0,0 km/h (0 Bft) NW 315 0 min -1,5 C 0,0 km/h (0 Bft)
27.02.2016 17:14 1,7 C 1,5 C 78 % 1004,3 hPa 0,0 mm 0,0 km/h (0 Bft) NW 315 0 min -1,7 C 0,0 km/h (0 Bft)
27.02.2016 17:15 1,7 C 1,5 C 78 % 1004,3 hPa 0,0 mm 0,0 km/h (0 Bft) NW 315 0 min -1,7 C 0,0 km/h (0 Bft)
27.02.2016 17:16 1,7 C 1,5 C 78 % 1004,3 hPa 0,0 mm 0,0 km/h (0 Bft) SO 135 0 min -1,7 C 0,0 km/h (0 Bft)
27.02.2016 17:17 1,7 C 1,5 C 78 % 1004,3 hPa 0,0 mm 0,0 km/h (0 Bft) SO 135 0 min -1,7 C 0,0 km/h (0 Bft)
27.02.2016 17:18 1,7 C 1,5 C 78 % 1004,3 hPa 0,0 mm 0,0 km/h (0 Bft) O-SO 112 0 min -1,7 C 0,0 km/h (0 Bft)
27.02.2016 17:19 1,7 C 1,5 C 78 % 1004,3 hPa 0,0 mm 0,0 km/h (0 Bft) O-SO 112 0 min -1,7 C 0,0 km/h (0 Bft)
27.02.2016 17:20 1,8 C 1,4 C 78 % 1004,3 hPa 0,0 mm 0,0 km/h (0 Bft) SO 135 0 min -1,6 C 0,0 km/h (0 Bft)
27.02.2016 17:21 1,8 C 1,4 C 78 % 1004,3 hPa 0,0 mm 0,0 km/h (0 Bft) SO 135 0 min -1,6 C 0,0 km/h (0 Bft)
27.02.2016 17:22 1,7 C 1,4 C 79 % 1004,3 hPa 0,0 mm 0,6 km/h (0 Bft) S-SO 157 0 min -1,5 C 4,8 km/h (1 Bft)
27.02.2016 17:23 1,7 C 1,4 C 79 % 1004,3 hPa 0,0 mm 0,6 km/h (0 Bft) S-SO 157 0 min -1,5 C 4,8 km/h (1 Bft)
27.02.2016 17:24 1,7 C 1,3 C 79 % 1004,3 hPa 0,0 mm 1,2 km/h (1 Bft) S 180 0 min -1,5 C 3,9 km/h (1 Bft)
27.02.2016 17:25 1,7 C 1,3 C 79 % 1004,3 hPa 0,0 mm 1,2 km/h (1 Bft) S 180 0 min -1,5 C 3,9 km/h (1 Bft)
27.02.2016 17:26 1,6 C 1,3 C 79 % 1004,3 hPa 0,0 mm 1,8 km/h (1 Bft) S-SO 157 0 min -1,6 C 3,9 km/h (1 Bft)
27.02.2016 17:27 1,6 C 1,3 C 79 % 1004,3 hPa 0,0 mm 1,8 km/h (1 Bft) S-SO 157 0 min -1,6 C 3,9 km/h (1 Bft)
27.02.2016 17:28 1,5 C 1,2 C 79 % 1004,3 hPa 0,0 mm 2,4 km/h (1 Bft) S 180 0 min -1,7 C 4,5 km/h (1 Bft)
27.02.2016 17:29 1,5 C 1,2 C 79 % 1004,2 hPa 0,0 mm 2,4 km/h (1 Bft) S 180 0 min -1,7 C 4,5 km/h (1 Bft)
27.02.2016 17:30 1,5 C 1,2 C 79 % 1004,2 hPa 0,0 mm 3,0 km/h (1 Bft) S 180 0 min -1,7 C 5,7 km/h (1 Bft)
27.02.2016 17:31 1,5 C 1,2 C 79 % 1004,2 hPa 0,0 mm 3,0 km/h (1 Bft) S 180 0 min -1,7 C 5,7 km/h (1 Bft)
27.02.2016 17:32 1,5 C 1,1 C 80 % 1004,2 hPa 0,0 mm 3,9 km/h (1 Bft) S-SO 157 0 min -1,6 C 3,9 km/h (1 Bft)
27.02.2016 17:33 1,5 C 1,1 C 80 % 1004,2 hPa 0,0 mm 3,9 km/h (1 Bft) S-SO 157 0 min -1,6 C 3,9 km/h (1 Bft)
27.02.2016 17:34 1,4 C 1,0 C 80 % 1004,2 hPa 0,0 mm 3,3 km/h (1 Bft) SO 135 0 min -1,7 C 0,0 km/h (0 Bft)
27.02.2016 17:35 1,4 C 1,0 C 80 % 1004,2 hPa 0,0 mm 3,3 km/h (1 Bft) SO 135 0 min -1,7 C 0,0 km/h (0 Bft)
27.02.2016 17:36 1,3 C 1,0 C 81 % 1004,2 hPa 0,0 mm 2,7 km/h (1 Bft) SO 135 0 min -1,6 C 0,0 km/h (0 Bft)
27.02.2016 17:38 1,2 C 0,9 C 82 % 1004,2 hPa 0,0 mm 2,1 km/h (1 Bft) SO 135 0 min -1,5 C 0,0 km/h (0 Bft)
27.02.2016 17:39 1,2 C 0,9 C 82 % 1004,2 hPa 0,0 mm 2,1 km/h (1 Bft) SO 135 0 min -1,5 C 0,0 km/h (0 Bft)
27.02.2016 17:40 1,2 C 0,8 C 82 % 1004,2 hPa 0,0 mm 1,8 km/h (1 Bft) SO 135 0 min -1,5 C 3,0 km/h (1 Bft)
27.02.2016 17:41 1,2 C 0,8 C 82 % 1004,2 hPa 0,0 mm 1,8 km/h (1 Bft) SO 135 0 min -1,5 C 3,0 km/h (1 Bft)
27.02.2016 17:42 1,2 C 0,7 C 82 % 1004,2 hPa 0,0 mm 0,9 km/h (0 Bft) S 180 0 min -1,5 C 0,0 km/h (0 Bft)
27.02.2016 17:43 1,2 C 0,7 C 82 % 1004,2 hPa 0,0 mm 0,9 km/h (0 Bft) S 180 0 min -1,5 C 0,0 km/h (0 Bft)
27.02.2016 17:44 1,2 C 0,7 C 82 % 1004,2 hPa 0,0 mm 0,0 km/h (0 Bft) S 180 0 min -1,5 C 3,0 km/h (1 Bft)
27.02.2016 17:45 1,2 C 0,7 C 82 % 1004,2 hPa 0,0 mm 0,0 km/h (0 Bft) S 180 0 min -1,5 C 3,0 km/h (1 Bft)
27.02.2016 17:46 1,1 C 0,6 C 82 % 1004,2 hPa 0,0 mm 0,3 km/h (0 Bft) S 180 0 min -1,6 C 3,6 km/h (1 Bft)
27.02.2016 17:47 1,1 C 0,6 C 82 % 1004,2 hPa 0,0 mm 0,3 km/h (0 Bft) S 180 0 min -1,6 C 3,6 km/h (1 Bft)
27.02.2016 17:48 1,1 C 0,6 C 83 % 1004,2 hPa 0,0 mm 0,3 km/h (0 Bft) S 180 0 min -1,5 C 3,6 km/h (1 Bft)
27.02.2016 17:49 1,1 C 0,6 C 83 % 1004,2 hPa 0,0 mm 0,3 km/h (0 Bft) S 180 0 min -1,5 C 3,6 km/h (1 Bft)
27.02.2016 17:50 1,0 C 0,5 C 83 % 1004,2 hPa 0,0 mm 0,9 km/h (0 Bft) W-SW 247 0 min -1,6 C 4,2 km/h (1 Bft)
27.02.2016 17:51 1,0 C 0,5 C 83 % 1004,2 hPa 0,0 mm 0,9 km/h (0 Bft) W-SW 247 0 min -1,6 C 4,2 km/h (1 Bft)
27.02.2016 17:53 0,9 C 0,5 C 84 % 1004,2 hPa 0,0 mm 1,2 km/h (1 Bft) S-SO 157 0 min -1,5 C 3,6 km/h (1 Bft)
27.02.2016 17:54 0,8 C 0,4 C 84 % 1004,2 hPa 0,0 mm 1,8 km/h (1 Bft) S-SO 157 0 min -1,6 C 3,6 km/h (1 Bft)
27.02.2016 17:55 0,8 C 0,4 C 84 % 1004,2 hPa 0,0 mm 1,8 km/h (1 Bft) S-SO 157 0 min -1,6 C 3,6 km/h (1 Bft)
27.02.2016 17:56 0,8 C 0,4 C 84 % 1004,2 hPa 0,0 mm 2,1 km/h (1 Bft) S-SO 157 0 min -1,6 C 3,9 km/h (1 Bft)
27.02.2016 17:57 0,8 C 0,4 C 84 % 1004,2 hPa 0,0 mm 2,1 km/h (1 Bft) S-SO 157 0 min -1,6 C 3,9 km/h (1 Bft)
27.02.2016 17:58 0,7 C 0,3 C 84 % 1004,2 hPa 0,0 mm 2,1 km/h (1 Bft) S 180 0 min -1,7 C 0,0 km/h (0 Bft)
27.02.2016 17:59 0,7 C 0,3 C 84 % 1004,2 hPa 0,0 mm 2,1 km/h (1 Bft) S 180 0 min -1,7 C 0,0 km/h (0 Bft)
27.02.2016 18:00 0,7 C 0,3 C 85 % 1004,2 hPa 0,0 mm 2,1 km/h (1 Bft) S 180 0 min -1,5 C 3,6 km/h (1 Bft)
27.02.2016 18:01 0,7 C 0,3 C 85 % 1004,2 hPa 0,0 mm 2,1 km/h (1 Bft) S 180 0 min -1,5 C 3,6 km/h (1 Bft)
27.02.2016 18:02 0,7 C 0,3 C 85 % 1004,2 hPa 0,0 mm 1,8 km/h (1 Bft) S-SO 157 0 min -1,5 C 3,0 km/h (1 Bft)
27.02.2016 18:03 0,7 C 0,3 C 85 % 1004,2 hPa 0,0 mm 1,8 km/h (1 Bft) S-SO 157 0 min -1,5 C 3,0 km/h (1 Bft)
27.02.2016 18:04 0,6 C 0,2 C 86 % 1004,2 hPa 0,0 mm 1,5 km/h (1 Bft) S-SO 157 0 min -1,5 C 3,6 km/h (1 Bft)
27.02.2016 18:05 0,6 C 0,2 C 86 % 1004,2 hPa 0,0 mm 1,5 km/h (1 Bft) S-SO 157 0 min -1,5 C 3,6 km/h (1 Bft)
27.02.2016 18:06 0,5 C 0,1 C 86 % 1004,2 hPa 0,0 mm 1,8 km/h (1 Bft) S 180 0 min -1,6 C 4,5 km/h (1 Bft)
27.02.2016 18:07 0,5 C 0,1 C 86 % 1004,2 hPa 0,0 mm 1,8 km/h (1 Bft) S 180 0 min -1,6 C 4,5 km/h (1 Bft)
27.02.2016 18:08 0,4 C 0,0 C 86 % 1004,2 hPa 0,0 mm 1,5 km/h (1 Bft) SO 135 0 min -1,7 C 0,0 km/h (0 Bft)
27.02.2016 18:09 0,4 C 0,0 C 86 % 1004,4 hPa 0,0 mm 1,5 km/h (1 Bft) SO 135 0 min -1,7 C 0,0 km/h (0 Bft)
27.02.2016 18:10 0,4 C 0,0 C 86 % 1004,4 hPa 0,0 mm 1,5 km/h (1 Bft) SO 135 0 min -1,7 C 0,0 km/h (0 Bft)
27.02.2016 18:11 0,4 C 0,0 C 86 % 1004,4 hPa 0,0 mm 1,5 km/h (1 Bft) SO 135 0 min -1,7 C 0,0 km/h (0 Bft)
27.02.2016 18:12 0,1 C -0,2 C 86 % 1004,4 hPa 0,0 mm 1,2 km/h (1 Bft) S-SO 157 0 min -2,0 C 0,0 km/h (0 Bft)
27.02.2016 18:13 0,1 C -0,2 C 86 % 1004,4 hPa 0,0 mm 1,2 km/h (1 Bft) S-SO 157 0 min -2,0 C 0,0 km/h (0 Bft)
27.02.2016 18:14 0,1 C -0,3 C 87 % 1004,4 hPa 0,0 mm 1,2 km/h (1 Bft) O-SO 112 0 min -1,8 C 0,0 km/h (0 Bft)
27.02.2016 18:15 0,1 C -0,3 C 87 % 1004,4 hPa 0,0 mm 1,2 km/h (1 Bft) O-SO 112 0 min -1,8 C 0,0 km/h (0 Bft)
27.02.2016 18:16 0,1 C -0,3 C 87 % 1004,4 hPa 0,0 mm 0,3 km/h (0 Bft) SO 135 0 min -1,8 C 0,0 km/h (0 Bft)
27.02.2016 18:17 0,1 C -0,3 C 87 % 1004,4 hPa 0,0 mm 0,3 km/h (0 Bft) SO 135 0 min -1,8 C 0,0 km/h (0 Bft)
27.02.2016 18:18 0,1 C -0,4 C 87 % 1004,4 hPa 0,0 mm 0,0 km/h (0 Bft) O-SO 112 0 min -1,8 C 0,0 km/h (0 Bft)
27.02.2016 18:19 0,1 C -0,4 C 87 % 1004,4 hPa 0,0 mm 0,0 km/h (0 Bft) O-SO 112 0 min -1,8 C 0,0 km/h (0 Bft)
27.02.2016 18:20 -0,1 C -0,5 C 87 % 1004,4 hPa 0,0 mm 0,0 km/h (0 Bft) O-NO 67 0 min -2,0 C 0,0 km/h (0 Bft)
27.02.2016 18:21 -0,1 C -0,5 C 87 % 1004,4 hPa 0,0 mm 0,0 km/h (0 Bft) O-NO 67 0 min -2,0 C 0,0 km/h (0 Bft)
27.02.2016 18:22 -0,5 C -0,8 C 87 % 1004,4 hPa 0,0 mm 0,0 km/h (0 Bft) O-SO 112 0 min -2,4 C 0,0 km/h (0 Bft)
27.02.2016 18:23 -0,5 C -0,8 C 87 % 1004,4 hPa 0,0 mm 0,0 km/h (0 Bft) O-SO 112 0 min -2,4 C 0,0 km/h (0 Bft)
27.02.2016 18:24 -0,3 C -0,7 C 87 % 1004,4 hPa 0,0 mm 0,0 km/h (0 Bft) O 90 0 min -2,2 C 0,0 km/h (0 Bft)
27.02.2016 18:25 -0,3 C -0,7 C 87 % 1004,4 hPa 0,0 mm 0,0 km/h (0 Bft) O 90 0 min -2,2 C 0,0 km/h (0 Bft)
27.02.2016 18:26 -0,3 C -0,8 C 87 % 1004,4 hPa 0,0 mm 0,0 km/h (0 Bft) O-SO 112 0 min -2,2 C 0,0 km/h (0 Bft)
27.02.2016 18:27 -0,3 C -0,8 C 87 % 1004,4 hPa 0,0 mm 0,0 km/h (0 Bft) O-SO 112 0 min -2,2 C 0,0 km/h (0 Bft)
27.02.2016 18:28 -0,4 C -0,9 C 87 % 1004,4 hPa 0,0 mm 0,0 km/h (0 Bft) S 180 0 min -2,3 C 3,6 km/h (1 Bft)
27.02.2016 18:29 -0,4 C -0,9 C 87 % 1004,4 hPa 0,0 mm 0,0 km/h (0 Bft) S 180 0 min -2,3 C 3,6 km/h (1 Bft)
27.02.2016 18:30 -0,1 C -0,7 C 87 % 1004,4 hPa 0,0 mm 0,6 km/h (0 Bft) S-SO 157 0 min -2,0 C 3,9 km/h (1 Bft)
27.02.2016 18:31 -0,1 C -0,7 C 87 % 1004,4 hPa 0,0 mm 0,6 km/h (0 Bft) S-SO 157 0 min -2,0 C 3,9 km/h (1 Bft)
27.02.2016 18:32 0,0 C -0,6 C 88 % 1004,4 hPa 0,0 mm 0,9 km/h (0 Bft) O 90 0 min -1,7 C 0,0 km/h (0 Bft)
27.02.2016 18:33 0,0 C -0,6 C 88 % 1004,4 hPa 0,0 mm 0,9 km/h (0 Bft) O 90 0 min -1,7 C 0,0 km/h (0 Bft)
27.02.2016 18:34 0,0 C -0,5 C 88 % 1004,4 hPa 0,0 mm 1,2 km/h (1 Bft) O-SO 112 0 min -1,7 C 0,0 km/h (0 Bft)
27.02.2016 18:35 0,0 C -0,5 C 88 % 1004,4 hPa 0,0 mm 1,2 km/h (1 Bft) O-SO 112 0 min -1,7 C 0,0 km/h (0 Bft)
27.02.2016 18:36 0,1 C -0,4 C 88 % 1004,4 hPa 0,0 mm 1,2 km/h (1 Bft) S 180 0 min -1,6 C 0,0 km/h (0 Bft)
27.02.2016 18:37 0,1 C -0,4 C 88 % 1004,4 hPa 0,0 mm 1,2 km/h (1 Bft) S 180 0 min -1,6 C 0,0 km/h (0 Bft)
27.02.2016 18:38 0,2 C -0,3 C 88 % 1004,4 hPa 0,0 mm 1,8 km/h (1 Bft) S 180 0 min -1,5 C 3,3 km/h (1 Bft)
27.02.2016 18:39 0,2 C -0,3 C 88 % 1004,4 hPa 0,0 mm 1,8 km/h (1 Bft) S 180 0 min -1,5 C 3,3 km/h (1 Bft)
27.02.2016 18:40 0,2 C -0,3 C 89 % 1004,4 hPa 0,0 mm 1,8 km/h (1 Bft) S-SO 157 0 min -1,4 C 4,5 km/h (1 Bft)
27.02.2016 18:41 0,2 C -0,3 C 89 % 1004,4 hPa 0,0 mm 1,8 km/h (1 Bft) S-SO 157 0 min -1,4 C 4,5 km/h (1 Bft)
27.02.2016 18:42 0,1 C -0,3 C 89 % 1004,4 hPa 0,0 mm 1,2 km/h (1 Bft) S-SO 157 0 min -1,5 C 0,0 km/h (0 Bft)
27.02.2016 18:43 0,1 C -0,3 C 89 % 1004,4 hPa 0,0 mm 1,2 km/h (1 Bft) S-SO 157 0 min -1,5 C 0,0 km/h (0 Bft)
27.02.2016 18:44 -0,3 C -0,6 C 89 % 1004,4 hPa 0,0 mm 1,2 km/h (1 Bft) N-NO 22 0 min -1,9 C 0,0 km/h (0 Bft)
27.02.2016 18:45 -0,3 C -0,6 C 89 % 1004,4 hPa 0,0 mm 1,2 km/h (1 Bft) N-NO 22 0 min -1,9 C 0,0 km/h (0 Bft)
27.02.2016 18:46 -0,6 C -0,8 C 88 % 1004,4 hPa 0,0 mm 0,9 km/h (0 Bft) O-NO 67 0 min -2,3 C 0,0 km/h (0 Bft)
27.02.2016 18:47 -0,6 C -0,8 C 88 % 1004,4 hPa 0,0 mm 0,9 km/h (0 Bft) O-NO 67 0 min -2,3 C 0,0 km/h (0 Bft)
27.02.2016 18:48 -0,9 C -1,1 C 88 % 1004,4 hPa 0,0 mm 0,6 km/h (0 Bft) O-NO 67 0 min -2,6 C 0,0 km/h (0 Bft)
27.02.2016 18:49 -0,9 C -1,1 C 88 % 1004,5 hPa 0,0 mm 0,6 km/h (0 Bft) O-NO 67 0 min -2,6 C 0,0 km/h (0 Bft)
27.02.2016 18:50 -0,9 C -1,2 C 88 % 1004,5 hPa 0,0 mm 0,3 km/h (0 Bft) S 180 0 min -2,6 C 0,0 km/h (0 Bft)
27.02.2016 18:51 -0,9 C -1,2 C 88 % 1004,5 hPa 0,0 mm 0,3 km/h (0 Bft) S 180 0 min -2,6 C 0,0 km/h (0 Bft)
27.02.2016 18:52 -0,8 C -1,2 C 88 % 1004,5 hPa 0,0 mm 0,0 km/h (0 Bft) SO 135 0 min -2,5 C 0,0 km/h (0 Bft)
27.02.2016 18:53 -0,8 C -1,2 C 88 % 1004,5 hPa 0,0 mm 0,0 km/h (0 Bft) SO 135 0 min -2,5 C 0,0 km/h (0 Bft)
27.02.2016 18:54 -0,5 C -1,0 C 88 % 1004,5 hPa 0,0 mm 0,0 km/h (0 Bft) SO 135 0 min -2,2 C 0,0 km/h (0 Bft)
27.02.2016 18:55 -0,5 C -1,0 C 88 % 1004,5 hPa 0,0 mm 0,0 km/h (0 Bft) SO 135 0 min -2,2 C 0,0 km/h (0 Bft)
27.02.2016 18:56 -0,4 C -0,9 C 89 % 1004,5 hPa 0,0 mm 0,0 km/h (0 Bft) S-SO 157 0 min -2,0 C 0,0 km/h (0 Bft)
27.02.2016 18:57 -0,4 C -0,9 C 89 % 1004,5 hPa 0,0 mm 0,0 km/h (0 Bft) S-SO 157 0 min -2,0 C 0,0 km/h (0 Bft)
27.02.2016 18:58 -0,3 C -0,9 C 89 % 1004,5 hPa 0,0 mm 0,0 km/h (0 Bft) S 180 0 min -1,9 C 0,0 km/h (0 Bft)
27.02.2016 18:59 -0,3 C -0,9 C 89 % 1004,5 hPa 0,0 mm 0,0 km/h (0 Bft) S 180 0 min -1,9 C 0,0 km/h (0 Bft)
27.02.2016 19:00 -0,2 C -0,8 C 89 % 1004,5 hPa 0,0 mm 0,0 km/h (0 Bft) SO 135 0 min -1,8 C 0,0 km/h (0 Bft)
27.02.2016 19:01 -0,2 C -0,8 C 89 % 1004,5 hPa 0,0 mm 0,0 km/h (0 Bft) SO 135 0 min -1,8 C 0,0 km/h (0 Bft)
27.02.2016 19:02 -0,3 C -0,9 C 89 % 1004,5 hPa 0,0 mm 0,0 km/h (0 Bft) W 270 0 min -1,9 C 0,0 km/h (0 Bft)
27.02.2016 19:03 -0,3 C -0,9 C 89 % 1004,5 hPa 0,0 mm 0,0 km/h (0 Bft) W 270 0 min -1,9 C 0,0 km/h (0 Bft)
27.02.2016 19:04 -0,8 C -1,2 C 89 % 1004,5 hPa 0,0 mm 0,0 km/h (0 Bft) NW 315 0 min -2,4 C 0,0 km/h (0 Bft)
27.02.2016 19:05 -0,8 C -1,2 C 89 % 1004,5 hPa 0,0 mm 0,0 km/h (0 Bft) NW 315 0 min -2,4 C 0,0 km/h (0 Bft)
27.02.2016 19:06 -0,9 C -1,3 C 89 % 1004,5 hPa 0,0 mm 0,0 km/h (0 Bft) SO 135 0 min -2,5 C 0,0 km/h (0 Bft)
27.02.2016 19:07 -0,9 C -1,3 C 89 % 1004,5 hPa 0,0 mm 0,0 km/h (0 Bft) SO 135 0 min -2,5 C 0,0 km/h (0 Bft)
27.02.2016 19:08 -1,2 C -1,5 C 89 % 1004,5 hPa 0,0 mm 0,0 km/h (0 Bft) SO 135 0 min -2,8 C 0,0 km/h (0 Bft)
27.02.2016 19:09 -1,2 C -1,5 C 89 % 1004,8 hPa 0,0 mm 0,0 km/h (0 Bft) SO 135 0 min -2,8 C 0,0 km/h (0 Bft)
27.02.2016 19:10 -1,1 C -1,5 C 89 % 1004,8 hPa 0,0 mm 0,0 km/h (0 Bft) SO 135 0 min -2,7 C 0,0 km/h (0 Bft)
27.02.2016 19:11 -1,1 C -1,5 C 89 % 1004,8 hPa 0,0 mm 0,0 km/h (0 Bft) SO 135 0 min -2,7 C 0,0 km/h (0 Bft)
27.02.2016 19:12 -1,2 C -1,6 C 89 % 1004,8 hPa 0,0 mm 0,0 km/h (0 Bft) SO 135 0 min -2,8 C 0,0 km/h (0 Bft)
27.02.2016 19:13 -1,2 C -1,6 C 89 % 1004,8 hPa 0,0 mm 0,0 km/h (0 Bft) SO 135 0 min -2,8 C 0,0 km/h (0 Bft)
27.02.2016 19:14 -1,2 C -1,6 C 89 % 1004,8 hPa 0,0 mm 0,0 km/h (0 Bft) O-SO 112 0 min -2,8 C 0,0 km/h (0 Bft)
27.02.2016 19:15 -1,2 C -1,6 C 89 % 1004,8 hPa 0,0 mm 0,0 km/h (0 Bft) O-SO 112 0 min -2,8 C 0,0 km/h (0 Bft)
27.02.2016 19:16 -1,4 C -1,7 C 89 % 1004,8 hPa 0,0 mm 0,0 km/h (0 Bft) O-NO 67 0 min -3,0 C 0,0 km/h (0 Bft)
27.02.2016 19:17 -1,4 C -1,7 C 89 % 1004,8 hPa 0,0 mm 0,0 km/h (0 Bft) O-NO 67 0 min -3,0 C 0,0 km/h (0 Bft)
27.02.2016 19:18 -1,4 C -1,7 C 88 % 1004,8 hPa 0,0 mm 0,0 km/h (0 Bft) S-SO 157 0 min -3,1 C 0,0 km/h (0 Bft)
27.02.2016 19:19 -1,4 C -1,7 C 88 % 1004,8 hPa 0,0 mm 0,0 km/h (0 Bft) S-SO 157 0 min -3,1 C 0,0 km/h (0 Bft)
27.02.2016 19:20 -0,9 C -1,3 C 89 % 1004,8 hPa 0,0 mm 0,0 km/h (0 Bft) SO 135 0 min -2,5 C 0,0 km/h (0 Bft)
27.02.2016 19:21 -0,9 C -1,3 C 89 % 1004,8 hPa 0,0 mm 0,0 km/h (0 Bft) SO 135 0 min -2,5 C 0,0 km/h (0 Bft)
27.02.2016 19:22 -0,7 C -1,2 C 89 % 1004,8 hPa 0,0 mm 0,0 km/h (0 Bft) S-SO 157 0 min -2,3 C 0,0 km/h (0 Bft)
27.02.2016 19:23 -0,7 C -1,2 C 89 % 1004,8 hPa 0,0 mm 0,0 km/h (0 Bft) S-SO 157 0 min -2,3 C 0,0 km/h (0 Bft)
27.02.2016 19:24 -1,0 C -1,4 C 89 % 1004,8 hPa 0,0 mm 0,0 km/h (0 Bft) NW 315 0 min -2,6 C 0,0 km/h (0 Bft)
27.02.2016 19:25 -1,0 C -1,4 C 89 % 1004,8 hPa 0,0 mm 0,0 km/h (0 Bft) NW 315 0 min -2,6 C 0,0 km/h (0 Bft)
27.02.2016 19:26 -1,4 C -1,6 C 89 % 1004,8 hPa 0,0 mm 0,0 km/h (0 Bft) N-NO 22 0 min -3,0 C 0,0 km/h (0 Bft)
27.02.2016 19:27 -1,4 C -1,6 C 89 % 1004,8 hPa 0,0 mm 0,0 km/h (0 Bft) N-NO 22 0 min -3,0 C 0,0 km/h (0 Bft)
27.02.2016 19:28 -1,7 C -1,9 C 89 % 1004,8 hPa 0,0 mm 0,0 km/h (0 Bft) NO 45 0 min -3,3 C 0,0 km/h (0 Bft)
27.02.2016 19:29 -1,7 C -1,9 C 89 % 1004,6 hPa 0,0 mm 0,0 km/h (0 Bft) NO 45 0 min -3,3 C 0,0 km/h (0 Bft)
27.02.2016 19:30 -1,8 C -2,0 C 89 % 1004,6 hPa 0,0 mm 0,0 km/h (0 Bft) S-SO 157 0 min -3,4 C 0,0 km/h (0 Bft)
27.02.2016 19:31 -1,8 C -2,0 C 89 % 1004,6 hPa 0,0 mm 0,0 km/h (0 Bft) S-SO 157 0 min -3,4 C 0,0 km/h (0 Bft)
27.02.2016 19:32 -1,4 C -1,8 C 89 % 1004,6 hPa 0,0 mm 0,0 km/h (0 Bft) O-SO 112 0 min -3,0 C 0,0 km/h (0 Bft)
27.02.2016 19:33 -1,4 C -1,8 C 89 % 1004,6 hPa 0,0 mm 0,0 km/h (0 Bft) O-SO 112 0 min -3,0 C 0,0 km/h (0 Bft)
27.02.2016 19:34 -1,2 C -1,6 C 89 % 1004,6 hPa 0,0 mm 0,0 km/h (0 Bft) SO 135 0 min -2,8 C 0,0 km/h (0 Bft)
27.02.2016 19:35 -1,2 C -1,6 C 89 % 1004,6 hPa 0,0 mm 0,0 km/h (0 Bft) SO 135 0 min -2,8 C 0,0 km/h (0 Bft)
27.02.2016 19:36 -1,3 C -1,7 C 89 % 1004,6 hPa 0,0 mm 0,0 km/h (0 Bft) O 90 0 min -2,9 C 0,0 km/h (0 Bft)
27.02.2016 19:37 -1,3 C -1,7 C 89 % 1004,6 hPa 0,0 mm 0,0 km/h (0 Bft) O 90 0 min -2,9 C 0,0 km/h (0 Bft)
27.02.2016 19:38 -1,5 C -1,8 C 89 % 1004,6 hPa 0,0 mm 0,0 km/h (0 Bft) S 180 0 min -3,1 C 0,0 km/h (0 Bft)
27.02.2016 19:39 -1,5 C -1,8 C 89 % 1004,6 hPa 0,0 mm 0,0 km/h (0 Bft) S 180 0 min -3,1 C 0,0 km/h (0 Bft)
27.02.2016 19:40 -1,4 C -1,8 C 89 % 1004,6 hPa 0,0 mm 0,0 km/h (0 Bft) NW 315 0 min -3,0 C 0,0 km/h (0 Bft)
27.02.2016 19:41 -1,4 C -1,8 C 89 % 1004,6 hPa 0,0 mm 0,0 km/h (0 Bft) NW 315 0 min -3,0 C 0,0 km/h (0 Bft)
27.02.2016 19:42 -1,8 C -2,0 C 89 % 1004,6 hPa 0,0 mm 0,0 km/h (0 Bft) W-NW 292 0 min -3,4 C 0,0 km/h (0 Bft)
27.02.2016 19:43 -1,8 C -2,0 C 89 % 1004,6 hPa 0,0 mm 0,0 km/h (0 Bft) W-NW 292 0 min -3,4 C 0,0 km/h (0 Bft)
27.02.2016 19:44 -1,9 C -2,1 C 88 % 1004,6 hPa 0,0 mm 0,0 km/h (0 Bft) W-NW 292 0 min -3,6 C 0,0 km/h (0 Bft)
27.02.2016 19:45 -1,9 C -2,1 C 88 % 1004,6 hPa 0,0 mm 0,0 km/h (0 Bft) W-NW 292 0 min -3,6 C 0,0 km/h (0 Bft)
27.02.2016 19:46 -2,1 C -2,3 C 88 % 1004,6 hPa 0,0 mm 0,0 km/h (0 Bft) W 270 0 min -3,8 C 0,0 km/h (0 Bft)
27.02.2016 19:47 -2,1 C -2,3 C 88 % 1004,6 hPa 0,0 mm 0,0 km/h (0 Bft) W 270 0 min -3,8 C 0,0 km/h (0 Bft)
27.02.2016 19:48 -1,6 C -2,0 C 89 % 1004,6 hPa 0,0 mm 0,0 km/h (0 Bft) O 90 0 min -3,2 C 0,0 km/h (0 Bft)
27.02.2016 19:49 -1,6 C -2,0 C 89 % 1004,6 hPa 0,0 mm 0,0 km/h (0 Bft) O 90 0 min -3,2 C 0,0 km/h (0 Bft)
27.02.2016 19:50 -1,8 C -2,2 C 89 % 1004,6 hPa 0,0 mm 0,0 km/h (0 Bft) O-SO 112 0 min -3,4 C 0,0 km/h (0 Bft)
27.02.2016 19:51 -1,8 C -2,2 C 89 % 1004,6 hPa 0,0 mm 0,0 km/h (0 Bft) O-SO 112 0 min -3,4 C 0,0 km/h (0 Bft)
27.02.2016 19:52 -2,2 C -2,4 C 88 % 1004,6 hPa 0,0 mm 0,0 km/h (0 Bft) N-NO 22 0 min -3,9 C 0,0 km/h (0 Bft)
27.02.2016 19:53 -2,2 C -2,4 C 88 % 1004,6 hPa 0,0 mm 0,0 km/h (0 Bft) N-NO 22 0 min -3,9 C 0,0 km/h (0 Bft)
27.02.2016 19:54 -2,2 C -2,4 C 88 % 1004,6 hPa 0,0 mm 0,0 km/h (0 Bft) N-NW 337 0 min -3,9 C 0,0 km/h (0 Bft)
27.02.2016 19:56 -2,3 C -2,5 C 88 % 1004,6 hPa 0,0 mm 0,0 km/h (0 Bft) NO 45 0 min -4,0 C 0,0 km/h (0 Bft)
27.02.2016 19:57 -2,3 C -2,5 C 88 % 1004,6 hPa 0,0 mm 0,0 km/h (0 Bft) NO 45 0 min -4,0 C 0,0 km/h (0 Bft)
27.02.2016 19:58 -2,3 C -2,5 C 88 % 1004,6 hPa 0,0 mm 0,0 km/h (0 Bft) NO 45 0 min -4,0 C 0,0 km/h (0 Bft)
27.02.2016 19:59 -2,3 C -2,5 C 88 % 1004,6 hPa 0,0 mm 0,0 km/h (0 Bft) NO 45 0 min -4,0 C 0,0 km/h (0 Bft)
27.02.2016 20:00 -2,3 C -2,6 C 88 % 1004,6 hPa 0,0 mm 0,0 km/h (0 Bft) O 90 0 min -4,0 C 0,0 km/h (0 Bft)
27.02.2016 20:01 -2,3 C -2,6 C 88 % 1004,6 hPa 0,0 mm 0,0 km/h (0 Bft) O 90 0 min -4,0 C 0,0 km/h (0 Bft)
27.02.2016 20:02 -2,4 C -2,6 C 88 % 1004,6 hPa 0,0 mm 0,0 km/h (0 Bft) S-SO 157 0 min -4,1 C 0,0 km/h (0 Bft)
27.02.2016 20:03 -2,4 C -2,6 C 88 % 1004,6 hPa 0,0 mm 0,0 km/h (0 Bft) S-SO 157 0 min -4,1 C 0,0 km/h (0 Bft)
27.02.2016 20:04 -2,3 C -2,5 C 88 % 1004,6 hPa 0,0 mm 0,0 km/h (0 Bft) N-NO 22 0 min -4,0 C 0,0 km/h (0 Bft)
27.02.2016 20:05 -2,3 C -2,5 C 88 % 1004,6 hPa 0,0 mm 0,0 km/h (0 Bft) N-NO 22 0 min -4,0 C 0,0 km/h (0 Bft)
27.02.2016 20:06 -2,3 C -2,5 C 88 % 1004,6 hPa 0,0 mm 0,0 km/h (0 Bft) W-SW 247 0 min -4,0 C 0,0 km/h (0 Bft)
27.02.2016 20:07 -2,3 C -2,5 C 88 % 1004,6 hPa 0,0 mm 0,0 km/h (0 Bft) W-SW 247 0 min -4,0 C 0,0 km/h (0 Bft)
27.02.2016 20:08 -1,9 C -2,3 C 88 % 1004,6 hPa 0,0 mm 0,0 km/h (0 Bft) SO 135 0 min -3,6 C 0,0 km/h (0 Bft)
27.02.2016 20:09 -1,9 C -2,3 C 88 % 1004,6 hPa 0,0 mm 0,0 km/h (0 Bft) SO 135 0 min -3,6 C 0,0 km/h (0 Bft)
27.02.2016 20:10 -1,5 C -2,0 C 89 % 1004,6 hPa 0,0 mm 0,0 km/h (0 Bft) S-SO 157 0 min -3,1 C 0,0 km/h (0 Bft)
27.02.2016 20:11 -1,5 C -2,0 C 89 % 1004,6 hPa 0,0 mm 0,0 km/h (0 Bft) S-SO 157 0 min -3,1 C 0,0 km/h (0 Bft)
27.02.2016 20:12 -1,6 C -2,0 C 89 % 1004,6 hPa 0,0 mm 0,0 km/h (0 Bft) O-NO 67 0 min -3,2 C 0,0 km/h (0 Bft)
27.02.2016 20:13 -1,6 C -2,0 C 89 % 1004,6 hPa 0,0 mm 0,0 km/h (0 Bft) O-NO 67 0 min -3,2 C 0,0 km/h (0 Bft)
27.02.2016 20:14 -1,9 C -2,2 C 89 % 1004,6 hPa 0,0 mm 0,0 km/h (0 Bft) S 180 0 min -3,5 C 0,0 km/h (0 Bft)
27.02.2016 20:15 -1,9 C -2,2 C 89 % 1004,6 hPa 0,0 mm 0,0 km/h (0 Bft) S 180 0 min -3,5 C 0,0 km/h (0 Bft)
27.02.2016 20:16 -1,6 C -2,0 C 89 % 1004,6 hPa 0,0 mm 0,3 km/h (0 Bft) S 180 0 min -3,2 C 0,0 km/h (0 Bft)
27.02.2016 20:17 -1,6 C -2,0 C 89 % 1004,6 hPa 0,0 mm 0,3 km/h (0 Bft) S 180 0 min -3,2 C 0,0 km/h (0 Bft)
27.02.2016 20:18 -1,2 C -1,7 C 90 % 1004,6 hPa 0,0 mm 0,3 km/h (0 Bft) S 180 0 min -2,6 C 3,0 km/h (1 Bft)
27.02.2016 20:19 -1,2 C -1,7 C 90 % 1004,6 hPa 0,0 mm 0,3 km/h (0 Bft) S 180 0 min -2,6 C 3,0 km/h (1 Bft)
27.02.2016 20:20 -1,1 C -1,6 C 90 % 1004,6 hPa 0,0 mm 0,3 km/h (0 Bft) SO 135 0 min -2,5 C 0,0 km/h (0 Bft)
27.02.2016 20:21 -1,1 C -1,6 C 90 % 1004,6 hPa 0,0 mm 0,3 km/h (0 Bft) SO 135 0 min -2,5 C 0,0 km/h (0 Bft)
27.02.2016 20:22 -1,5 C -1,8 C 90 % 1004,6 hPa 0,0 mm 0,3 km/h (0 Bft) NW 315 0 min -2,9 C 0,0 km/h (0 Bft)
27.02.2016 20:23 -1,5 C -1,8 C 90 % 1004,6 hPa 0,0 mm 0,3 km/h (0 Bft) NW 315 0 min -2,9 C 0,0 km/h (0 Bft)
27.02.2016 20:24 -2,1 C -2,3 C 90 % 1004,6 hPa 0,0 mm 0,3 km/h (0 Bft) NW 315 0 min -3,5 C 0,0 km/h (0 Bft)
27.02.2016 20:25 -2,1 C -2,3 C 90 % 1004,6 hPa 0,0 mm 0,3 km/h (0 Bft) NW 315 0 min -3,5 C 0,0 km/h (0 Bft)
27.02.2016 20:26 -2,1 C -2,3 C 90 % 1004,6 hPa 0,0 mm 0,0 km/h (0 Bft) O-SO 112 0 min -3,5 C 0,0 km/h (0 Bft)
27.02.2016 20:27 -2,1 C -2,3 C 90 % 1004,6 hPa 0,0 mm 0,0 km/h (0 Bft) O-SO 112 0 min -3,5 C 0,0 km/h (0 Bft)
27.02.2016 20:28 -1,8 C -2,1 C 90 % 1004,6 hPa 0,0 mm 0,3 km/h (0 Bft) S 180 0 min -3,2 C 3,9 km/h (1 Bft)
27.02.2016 20:29 -1,8 C -2,1 C 90 % 1004,6 hPa 0,0 mm 0,3 km/h (0 Bft) S 180 0 min -3,2 C 3,9 km/h (1 Bft)
27.02.2016 20:30 -1,4 C -1,8 C 90 % 1004,6 hPa 0,0 mm 0,6 km/h (0 Bft) S-SO 157 0 min -2,8 C 0,0 km/h (0 Bft)
27.02.2016 20:31 -1,4 C -1,8 C 90 % 1004,6 hPa 0,0 mm 0,6 km/h (0 Bft) S-SO 157 0 min -2,8 C 0,0 km/h (0 Bft)
27.02.2016 20:32 -1,2 C -1,7 C 90 % 1004,6 hPa 0,0 mm 0,6 km/h (0 Bft) SO 135 0 min -2,6 C 0,0 km/h (0 Bft)
27.02.2016 20:33 -1,2 C -1,7 C 90 % 1004,6 hPa 0,0 mm 0,6 km/h (0 Bft) SO 135 0 min -2,6 C 0,0 km/h (0 Bft)
27.02.2016 20:34 -1,1 C -1,6 C 91 % 1004,6 hPa 0,0 mm 0,6 km/h (0 Bft) N-NO 22 0 min -2,4 C 0,0 km/h (0 Bft)
27.02.2016 20:35 -1,1 C -1,6 C 91 % 1004,6 hPa 0,0 mm 0,6 km/h (0 Bft) N-NO 22 0 min -2,4 C 0,0 km/h (0 Bft)
27.02.2016 20:36 -1,9 C -2,1 C 90 % 1004,6 hPa 0,0 mm 0,6 km/h (0 Bft) N 360 0 min -3,3 C 0,0 km/h (0 Bft)
27.02.2016 20:37 -1,9 C -2,1 C 90 % 1004,6 hPa 0,0 mm 0,6 km/h (0 Bft) N 360 0 min -3,3 C 0,0 km/h (0 Bft)
27.02.2016 20:38 -2,4 C -2,5 C 90 % 1004,6 hPa 0,0 mm 0,6 km/h (0 Bft) W-NW 292 0 min -3,8 C 0,0 km/h (0 Bft)
27.02.2016 20:39 -2,4 C -2,5 C 90 % 1004,6 hPa 0,0 mm 0,6 km/h (0 Bft) W-NW 292 0 min -3,8 C 0,0 km/h (0 Bft)
27.02.2016 20:40 -2,5 C -2,7 C 90 % 1004,6 hPa 0,0 mm 0,0 km/h (0 Bft) W 270 0 min -3,9 C 0,0 km/h (0 Bft)
27.02.2016 20:41 -2,5 C -2,7 C 90 % 1004,6 hPa 0,0 mm 0,0 km/h (0 Bft) W 270 0 min -3,9 C 0,0 km/h (0 Bft)
27.02.2016 20:42 -2,5 C -2,7 C 90 % 1004,6 hPa 0,0 mm 0,0 km/h (0 Bft) O-NO 67 0 min -3,9 C 0,0 km/h (0 Bft)
27.02.2016 20:43 -2,5 C -2,7 C 90 % 1004,6 hPa 0,0 mm 0,0 km/h (0 Bft) O-NO 67 0 min -3,9 C 0,0 km/h (0 Bft)
27.02.2016 20:44 -2,3 C -2,6 C 90 % 1004,6 hPa 0,0 mm 0,0 km/h (0 Bft) O-NO 67 0 min -3,7 C 0,0 km/h (0 Bft)
27.02.2016 20:45 -2,3 C -2,6 C 90 % 1004,6 hPa 0,0 mm 0,0 km/h (0 Bft) O-NO 67 0 min -3,7 C 0,0 km/h (0 Bft)
27.02.2016 20:46 -2,5 C -2,8 C 90 % 1004,6 hPa 0,0 mm 0,0 km/h (0 Bft) NO 45 0 min -3,9 C 0,0 km/h (0 Bft)
27.02.2016 20:47 -2,5 C -2,8 C 90 % 1004,6 hPa 0,0 mm 0,0 km/h (0 Bft) NO 45 0 min -3,9 C 0,0 km/h (0 Bft)
27.02.2016 20:48 -2,5 C -2,8 C 90 % 1004,6 hPa 0,0 mm 0,0 km/h (0 Bft) S 180 0 min -3,9 C 0,0 km/h (0 Bft)
27.02.2016 20:49 -2,5 C -2,8 C 90 % 1004,6 hPa 0,0 mm 0,0 km/h (0 Bft) S 180 0 min -3,9 C 0,0 km/h (0 Bft)
27.02.2016 20:50 -1,8 C -2,3 C 90 % 1004,6 hPa 0,0 mm 0,3 km/h (0 Bft) SO 135 0 min -3,2 C 3,6 km/h (1 Bft)
27.02.2016 20:51 -1,8 C -2,3 C 90 % 1004,6 hPa 0,0 mm 0,3 km/h (0 Bft) SO 135 0 min -3,2 C 3,6 km/h (1 Bft)
27.02.2016 20:52 -1,4 C -1,9 C 91 % 1004,6 hPa 0,0 mm 0,3 km/h (0 Bft) O 90 0 min -2,7 C 0,0 km/h (0 Bft)
27.02.2016 20:53 -1,4 C -1,9 C 91 % 1004,6 hPa 0,0 mm 0,3 km/h (0 Bft) O 90 0 min -2,7 C 0,0 km/h (0 Bft)
27.02.2016 20:54 -1,3 C -1,9 C 91 % 1004,6 hPa 0,0 mm 0,3 km/h (0 Bft) O-SO 112 0 min -2,6 C 0,0 km/h (0 Bft)
27.02.2016 20:55 -1,3 C -1,9 C 91 % 1004,6 hPa 0,0 mm 0,3 km/h (0 Bft) O-SO 112 0 min -2,6 C 0,0 km/h (0 Bft)
27.02.2016 20:56 -1,9 C -2,2 C 91 % 1004,6 hPa 0,0 mm 0,3 km/h (0 Bft) S 180 0 min -3,2 C 0,0 km/h (0 Bft)
27.02.2016 20:57 -1,9 C -2,2 C 91 % 1004,6 hPa 0,0 mm 0,3 km/h (0 Bft) S 180 0 min -3,2 C 0,0 km/h (0 Bft)
27.02.2016 20:58 -1,8 C -2,2 C 91 % 1004,6 hPa 0,0 mm 0,6 km/h (0 Bft) S-SO 157 0 min -3,1 C 3,0 km/h (1 Bft)
27.02.2016 20:59 -1,8 C -2,2 C 91 % 1004,6 hPa 0,0 mm 0,6 km/h (0 Bft) S-SO 157 0 min -3,1 C 3,0 km/h (1 Bft)
27.02.2016 21:00 -1,4 C -1,9 C 91 % 1004,6 hPa 0,0 mm 0,9 km/h (0 Bft) O-SO 112 0 min -2,7 C 0,0 km/h (0 Bft)
27.02.2016 21:01 -1,4 C -1,9 C 91 % 1004,6 hPa 0,0 mm 0,9 km/h (0 Bft) O-SO 112 0 min -2,7 C 0,0 km/h (0 Bft)
27.02.2016 21:02 -1,2 C -1,7 C 92 % 1004,6 hPa 0,0 mm 0,9 km/h (0 Bft) SO 135 0 min -2,3 C 0,0 km/h (0 Bft)
27.02.2016 21:03 -1,2 C -1,7 C 92 % 1004,6 hPa 0,0 mm 0,9 km/h (0 Bft) SO 135 0 min -2,3 C 0,0 km/h (0 Bft)
27.02.2016 21:04 -1,0 C -1,5 C 92 % 1004,6 hPa 0,0 mm 0,9 km/h (0 Bft) O-SO 112 0 min -2,1 C 0,0 km/h (0 Bft)
27.02.2016 21:05 -1,0 C -1,5 C 92 % 1004,6 hPa 0,0 mm 0,9 km/h (0 Bft) O-SO 112 0 min -2,1 C 0,0 km/h (0 Bft)
27.02.2016 21:06 -1,0 C -1,4 C 92 % 1004,6 hPa 0,0 mm 0,9 km/h (0 Bft) S-SO 157 0 min -2,1 C 0,0 km/h (0 Bft)
27.02.2016 21:07 -1,0 C -1,4 C 92 % 1004,6 hPa 0,0 mm 0,9 km/h (0 Bft) S-SO 157 0 min -2,1 C 0,0 km/h (0 Bft)
27.02.2016 21:08 -1,5 C -1,8 C 92 % 1004,6 hPa 0,0 mm 0,6 km/h (0 Bft) S-SO 157 0 min -2,6 C 3,3 km/h (1 Bft)
27.02.2016 21:09 -1,5 C -1,8 C 92 % 1004,6 hPa 0,0 mm 0,6 km/h (0 Bft) S-SO 157 0 min -2,6 C 3,3 km/h (1 Bft)
27.02.2016 21:10 -1,6 C -1,9 C 92 % 1004,6 hPa 0,0 mm 0,6 km/h (0 Bft) S 180 0 min -2,7 C 0,0 km/h (0 Bft)
27.02.2016 21:11 -1,6 C -1,9 C 92 % 1004,6 hPa 0,0 mm 0,6 km/h (0 Bft) S 180 0 min -2,7 C 0,0 km/h (0 Bft)
27.02.2016 21:12 -1,2 C -1,6 C 92 % 1004,6 hPa 0,0 mm 0,6 km/h (0 Bft) O-SO 112 0 min -2,3 C 3,0 km/h (1 Bft)
27.02.2016 21:13 -1,2 C -1,6 C 92 % 1004,6 hPa 0,0 mm 0,6 km/h (0 Bft) O-SO 112 0 min -2,3 C 3,0 km/h (1 Bft)
27.02.2016 21:14 -1,6 C -1,8 C 92 % 1004,6 hPa 0,0 mm 0,6 km/h (0 Bft) N-NO 22 0 min -2,7 C 0,0 km/h (0 Bft)
27.02.2016 21:15 -1,6 C -1,8 C 92 % 1004,6 hPa 0,0 mm 0,6 km/h (0 Bft) N-NO 22 0 min -2,7 C 0,0 km/h (0 Bft)
27.02.2016 21:16 -2,1 C -2,2 C 92 % 1004,6 hPa 0,0 mm 0,6 km/h (0 Bft) S-SO 157 0 min -3,2 C 0,0 km/h (0 Bft)
27.02.2016 21:17 -2,1 C -2,2 C 92 % 1004,6 hPa 0,0 mm 0,6 km/h (0 Bft) S-SO 157 0 min -3,2 C 0,0 km/h (0 Bft)
27.02.2016 21:18 -1,6 C -1,9 C 92 % 1004,6 hPa 0,0 mm 0,6 km/h (0 Bft) SO 135 0 min -2,7 C 0,0 km/h (0 Bft)
27.02.2016 21:19 -1,6 C -1,9 C 92 % 1004,6 hPa 0,0 mm 0,6 km/h (0 Bft) SO 135 0 min -2,7 C 0,0 km/h (0 Bft)
27.02.2016 21:20 -1,3 C -1,7 C 92 % 1004,6 hPa 0,0 mm 0,6 km/h (0 Bft) O-SO 112 0 min -2,4 C 4,2 km/h (1 Bft)
27.02.2016 21:21 -1,3 C -1,7 C 92 % 1004,6 hPa 0,0 mm 0,6 km/h (0 Bft) O-SO 112 0 min -2,4 C 4,2 km/h (1 Bft)
27.02.2016 21:22 -1,0 C -1,4 C 92 % 1004,6 hPa 0,0 mm 0,9 km/h (0 Bft) O-SO 112 0 min -2,1 C 0,0 km/h (0 Bft)
27.02.2016 21:23 -1,0 C -1,4 C 92 % 1004,6 hPa 0,0 mm 0,9 km/h (0 Bft) O-SO 112 0 min -2,1 C 0,0 km/h (0 Bft)
27.02.2016 21:24 -1,0 C -1,4 C 92 % 1004,6 hPa 0,0 mm 1,2 km/h (1 Bft) S-SO 157 0 min -2,1 C 6,9 km/h (2 Bft)
27.02.2016 21:25 -1,0 C -1,4 C 92 % 1004,6 hPa 0,0 mm 1,2 km/h (1 Bft) S-SO 157 0 min -2,1 C 6,9 km/h (2 Bft)
27.02.2016 21:26 -0,9 C -1,3 C 93 % 1004,6 hPa 0,0 mm 1,5 km/h (1 Bft) S-SO 157 0 min -1,9 C 3,0 km/h (1 Bft)
27.02.2016 21:27 -0,9 C -1,3 C 93 % 1004,6 hPa 0,0 mm 1,5 km/h (1 Bft) S-SO 157 0 min -1,9 C 3,0 km/h (1 Bft)
27.02.2016 21:28 -1,3 C -1,5 C 92 % 1004,6 hPa 0,0 mm 1,5 km/h (1 Bft) O 90 0 min -2,4 C 0,0 km/h (0 Bft)
27.02.2016 21:29 -1,3 C -1,5 C 92 % 1004,8 hPa 0,0 mm 1,5 km/h (1 Bft) O 90 0 min -2,4 C 0,0 km/h (0 Bft)
27.02.2016 21:30 -2,1 C -2,1 C 92 % 1004,8 hPa 0,0 mm 1,2 km/h (1 Bft) N-NO 22 0 min -3,2 C 0,0 km/h (0 Bft)
27.02.2016 21:31 -2,1 C -2,1 C 92 % 1004,8 hPa 0,0 mm 1,2 km/h (1 Bft) N-NO 22 0 min -3,2 C 0,0 km/h (0 Bft)
27.02.2016 21:32 -2,5 C -2,3 C 92 % 1004,8 hPa 0,0 mm 0,9 km/h (0 Bft) O-SO 112 0 min -3,6 C 0,0 km/h (0 Bft)
27.02.2016 21:33 -2,5 C -2,3 C 92 % 1004,8 hPa 0,0 mm 0,9 km/h (0 Bft) O-SO 112 0 min -3,6 C 0,0 km/h (0 Bft)
27.02.2016 21:34 -1,9 C -2,1 C 92 % 1004,8 hPa 0,0 mm 0,9 km/h (0 Bft) S 180 0 min -3,0 C 0,0 km/h (0 Bft)
27.02.2016 21:35 -1,9 C -2,1 C 92 % 1004,8 hPa 0,0 mm 0,9 km/h (0 Bft) S 180 0 min -3,0 C 0,0 km/h (0 Bft)
27.02.2016 21:36 -1,4 C -1,8 C 92 % 1004,8 hPa 0,0 mm 0,3 km/h (0 Bft) S 180 0 min -2,5 C 0,0 km/h (0 Bft)
27.02.2016 21:37 -1,4 C -1,8 C 92 % 1004,8 hPa 0,0 mm 0,3 km/h (0 Bft) S 180 0 min -2,5 C 0,0 km/h (0 Bft)
27.02.2016 21:38 -1,2 C -1,6 C 92 % 1004,8 hPa 0,0 mm 0,0 km/h (0 Bft) S 180 0 min -2,3 C 0,0 km/h (0 Bft)
27.02.2016 21:39 -1,2 C -1,6 C 92 % 1004,8 hPa 0,0 mm 0,0 km/h (0 Bft) S 180 0 min -2,3 C 0,0 km/h (0 Bft)
27.02.2016 21:40 -1,5 C -1,8 C 92 % 1004,8 hPa 0,0 mm 0,0 km/h (0 Bft) NW 315 0 min -2,6 C 0,0 km/h (0 Bft)
27.02.2016 21:41 -1,5 C -1,8 C 92 % 1004,8 hPa 0,0 mm 0,0 km/h (0 Bft) NW 315 0 min -2,6 C 0,0 km/h (0 Bft)
27.02.2016 21:42 -2,0 C -2,2 C 92 % 1004,8 hPa 0,0 mm 0,0 km/h (0 Bft) N-NW 337 0 min -3,1 C 0,0 km/h (0 Bft)
27.02.2016 21:43 -2,0 C -2,2 C 92 % 1004,8 hPa 0,0 mm 0,0 km/h (0 Bft) N-NW 337 0 min -3,1 C 0,0 km/h (0 Bft)
27.02.2016 21:44 -2,2 C -2,3 C 92 % 1004,8 hPa 0,0 mm 0,0 km/h (0 Bft) NO 45 0 min -3,3 C 0,0 km/h (0 Bft)
27.02.2016 21:45 -2,2 C -2,3 C 92 % 1004,8 hPa 0,0 mm 0,0 km/h (0 Bft) NO 45 0 min -3,3 C 0,0 km/h (0 Bft)
27.02.2016 21:46 -2,0 C -2,3 C 92 % 1004,8 hPa 0,0 mm 0,0 km/h (0 Bft) S-SO 157 0 min -3,1 C 0,0 km/h (0 Bft)
27.02.2016 21:47 -2,0 C -2,3 C 92 % 1004,8 hPa 0,0 mm 0,0 km/h (0 Bft) S-SO 157 0 min -3,1 C 0,0 km/h (0 Bft)
27.02.2016 21:48 -2,0 C -2,3 C 92 % 1004,8 hPa 0,0 mm 0,0 km/h (0 Bft) NO 45 0 min -3,1 C 0,0 km/h (0 Bft)
27.02.2016 21:49 -2,0 C -2,3 C 92 % 1004,8 hPa 0,0 mm 0,0 km/h (0 Bft) NO 45 0 min -3,1 C 0,0 km/h (0 Bft)
27.02.2016 21:50 -2,3 C -2,5 C 92 % 1004,8 hPa 0,0 mm 0,0 km/h (0 Bft) O 90 0 min -3,4 C 0,0 km/h (0 Bft)
27.02.2016 21:51 -2,3 C -2,5 C 92 % 1004,8 hPa 0,0 mm 0,0 km/h (0 Bft) O 90 0 min -3,4 C 0,0 km/h (0 Bft)
27.02.2016 21:52 -2,4 C -2,6 C 92 % 1004,8 hPa 0,0 mm 0,0 km/h (0 Bft) NO 45 0 min -3,5 C 0,0 km/h (0 Bft)
27.02.2016 21:53 -2,4 C -2,6 C 92 % 1004,8 hPa 0,0 mm 0,0 km/h (0 Bft) NO 45 0 min -3,5 C 0,0 km/h (0 Bft)
27.02.2016 21:54 -2,6 C -2,7 C 92 % 1004,8 hPa 0,0 mm 0,0 km/h (0 Bft) NO 45 0 min -3,7 C 0,0 km/h (0 Bft)
27.02.2016 21:55 -2,6 C -2,7 C 92 % 1004,8 hPa 0,0 mm 0,0 km/h (0 Bft) NO 45 0 min -3,7 C 0,0 km/h (0 Bft)
27.02.2016 21:56 -2,7 C -2,8 C 92 % 1004,8 hPa 0,0 mm 0,3 km/h (0 Bft) S-SO 157 0 min -3,8 C 0,0 km/h (0 Bft)
27.02.2016 21:57 -2,7 C -2,8 C 92 % 1004,8 hPa 0,0 mm 0,3 km/h (0 Bft) S-SO 157 0 min -3,8 C 0,0 km/h (0 Bft)
27.02.2016 21:58 -2,2 C -2,5 C 92 % 1004,8 hPa 0,0 mm 0,3 km/h (0 Bft) S-SO 157 0 min -3,3 C 3,0 km/h (1 Bft)
27.02.2016 21:59 -2,2 C -2,5 C 92 % 1004,8 hPa 0,0 mm 0,3 km/h (0 Bft) S-SO 157 0 min -3,3 C 3,0 km/h (1 Bft)
27.02.2016 22:00 -1,8 C -2,2 C 92 % 1004,8 hPa 0,0 mm 0,3 km/h (0 Bft) S-SO 157 0 min -2,9 C 0,0 km/h (0 Bft)
27.02.2016 22:01 -1,8 C -2,2 C 92 % 1004,8 hPa 0,0 mm 0,3 km/h (0 Bft) S-SO 157 0 min -2,9 C 0,0 km/h (0 Bft)
27.02.2016 22:02 -2,2 C -2,4 C 92 % 1004,8 hPa 0,0 mm 0,3 km/h (0 Bft) O-SO 112 0 min -3,3 C 0,0 km/h (0 Bft)
27.02.2016 22:03 -2,2 C -2,4 C 92 % 1004,8 hPa 0,0 mm 0,3 km/h (0 Bft) O-SO 112 0 min -3,3 C 0,0 km/h (0 Bft)
27.02.2016 22:04 -2,3 C -2,5 C 92 % 1004,8 hPa 0,0 mm 0,3 km/h (0 Bft) SO 135 0 min -3,4 C 0,0 km/h (0 Bft)
27.02.2016 22:05 -2,3 C -2,5 C 92 % 1004,8 hPa 0,0 mm 0,3 km/h (0 Bft) SO 135 0 min -3,4 C 0,0 km/h (0 Bft)
27.02.2016 22:06 -2,4 C -2,5 C 92 % 1004,8 hPa 0,0 mm 0,3 km/h (0 Bft) O 90 0 min -3,5 C 0,0 km/h (0 Bft)
27.02.2016 22:07 -2,4 C -2,5 C 92 % 1004,8 hPa 0,0 mm 0,3 km/h (0 Bft) O 90 0 min -3,5 C 0,0 km/h (0 Bft)
27.02.2016 22:08 -2,6 C -2,6 C 92 % 1004,8 hPa 0,0 mm 0,0 km/h (0 Bft) W-NW 292 0 min -3,7 C 0,0 km/h (0 Bft)
27.02.2016 22:09 -2,6 C -2,6 C 92 % 1005,0 hPa 0,0 mm 0,0 km/h (0 Bft) W-NW 292 0 min -3,7 C 0,0 km/h (0 Bft)
27.02.2016 22:10 -2,7 C -2,7 C 91 % 1005,0 hPa 0,0 mm 0,0 km/h (0 Bft) W 270 0 min -4,0 C 4,2 km/h (1 Bft)
27.02.2016 22:11 -2,7 C -2,7 C 91 % 1005,0 hPa 0,0 mm 0,0 km/h (0 Bft) W 270 0 min -4,0 C 4,2 km/h (1 Bft)
27.02.2016 22:12 -2,7 C -2,8 C 91 % 1005,0 hPa 0,0 mm 0,6 km/h (0 Bft) W-NW 292 0 min -4,0 C 0,0 km/h (0 Bft)
27.02.2016 22:13 -2,7 C -2,8 C 91 % 1005,0 hPa 0,0 mm 0,6 km/h (0 Bft) W-NW 292 0 min -4,0 C 0,0 km/h (0 Bft)
27.02.2016 22:14 -2,7 C -2,8 C 91 % 1005,0 hPa 0,0 mm 0,6 km/h (0 Bft) NW 315 0 min -4,0 C 0,0 km/h (0 Bft)
27.02.2016 22:15 -2,7 C -2,8 C 91 % 1005,0 hPa 0,0 mm 0,6 km/h (0 Bft) NW 315 0 min -4,0 C 0,0 km/h (0 Bft)
27.02.2016 22:16 -2,6 C -2,7 C 91 % 1005,0 hPa 0,0 mm 0,6 km/h (0 Bft) O-NO 67 0 min -3,9 C 0,0 km/h (0 Bft)
27.02.2016 22:17 -2,6 C -2,7 C 91 % 1005,0 hPa 0,0 mm 0,6 km/h (0 Bft) O-NO 67 0 min -3,9 C 0,0 km/h (0 Bft)
27.02.2016 22:18 -2,6 C -2,8 C 91 % 1005,0 hPa 0,0 mm 0,6 km/h (0 Bft) W-SW 247 0 min -3,9 C 0,0 km/h (0 Bft)
27.02.2016 22:19 -2,6 C -2,8 C 91 % 1005,0 hPa 0,0 mm 0,6 km/h (0 Bft) W-SW 247 0 min -3,9 C 0,0 km/h (0 Bft)
27.02.2016 22:20 -2,5 C -2,7 C 91 % 1005,0 hPa 0,0 mm 0,6 km/h (0 Bft) S 180 0 min -3,8 C 4,2 km/h (1 Bft)
27.02.2016 22:21 -2,5 C -2,7 C 91 % 1005,0 hPa 0,0 mm 0,6 km/h (0 Bft) S 180 0 min -3,8 C 4,2 km/h (1 Bft)
27.02.2016 22:22 -2,3 C -2,6 C 91 % 1005,0 hPa 0,0 mm 0,3 km/h (0 Bft) SO 135 0 min -3,6 C 0,0 km/h (0 Bft)
27.02.2016 22:23 -2,3 C -2,6 C 91 % 1005,0 hPa 0,0 mm 0,3 km/h (0 Bft) SO 135 0 min -3,6 C 0,0 km/h (0 Bft)
27.02.2016 22:24 -2,4 C -2,6 C 91 % 1005,0 hPa 0,0 mm 0,3 km/h (0 Bft) O-SO 112 0 min -3,7 C 0,0 km/h (0 Bft)
27.02.2016 22:25 -2,4 C -2,6 C 91 % 1005,0 hPa 0,0 mm 0,3 km/h (0 Bft) O-SO 112 0 min -3,7 C 0,0 km/h (0 Bft)
27.02.2016 22:26 -2,6 C -2,7 C 91 % 1005,0 hPa 0,0 mm 0,3 km/h (0 Bft) SO 135 0 min -3,9 C 0,0 km/h (0 Bft)
27.02.2016 22:27 -2,6 C -2,7 C 91 % 1005,0 hPa 0,0 mm 0,3 km/h (0 Bft) SO 135 0 min -3,9 C 0,0 km/h (0 Bft)
27.02.2016 22:28 -2,7 C -2,8 C 91 % 1005,0 hPa 0,0 mm 0,3 km/h (0 Bft) NW 315 0 min -4,0 C 0,0 km/h (0 Bft)
27.02.2016 22:29 -2,7 C -2,8 C 91 % 1005,1 hPa 0,0 mm 0,3 km/h (0 Bft) NW 315 0 min -4,0 C 0,0 km/h (0 Bft)
27.02.2016 22:30 -2,8 C -2,9 C 91 % 1005,1 hPa 0,0 mm 0,3 km/h (0 Bft) NW 315 0 min -4,1 C 0,0 km/h (0 Bft)
27.02.2016 22:31 -2,8 C -2,9 C 91 % 1005,1 hPa 0,0 mm 0,3 km/h (0 Bft) NW 315 0 min -4,1 C 0,0 km/h (0 Bft)
27.02.2016 22:32 -2,5 C -2,7 C 91 % 1005,1 hPa 0,0 mm 0,0 km/h (0 Bft) N-NO 22 0 min -3,8 C 0,0 km/h (0 Bft)
27.02.2016 22:33 -2,5 C -2,7 C 91 % 1005,1 hPa 0,0 mm 0,0 km/h (0 Bft) N-NO 22 0 min -3,8 C 0,0 km/h (0 Bft)
27.02.2016 22:34 -2,4 C -2,6 C 91 % 1005,1 hPa 0,0 mm 0,0 km/h (0 Bft) O 90 0 min -3,7 C 0,0 km/h (0 Bft)
27.02.2016 22:35 -2,4 C -2,6 C 91 % 1005,1 hPa 0,0 mm 0,0 km/h (0 Bft) O 90 0 min -3,7 C 0,0 km/h (0 Bft)
27.02.2016 22:36 -2,5 C -2,7 C 91 % 1005,1 hPa 0,0 mm 0,0 km/h (0 Bft) SO 135 0 min -3,8 C 0,0 km/h (0 Bft)
27.02.2016 22:37 -2,5 C -2,7 C 91 % 1005,1 hPa 0,0 mm 0,0 km/h (0 Bft) SO 135 0 min -3,8 C 0,0 km/h (0 Bft)
27.02.2016 22:38 -2,6 C -2,7 C 91 % 1005,1 hPa 0,0 mm 0,0 km/h (0 Bft) S 180 0 min -3,9 C 0,0 km/h (0 Bft)
27.02.2016 22:39 -2,6 C -2,7 C 91 % 1005,1 hPa 0,0 mm 0,0 km/h (0 Bft) S 180 0 min -3,9 C 0,0 km/h (0 Bft)
27.02.2016 22:40 -2,2 C -2,5 C 91 % 1005,1 hPa 0,0 mm 0,0 km/h (0 Bft) NW 315 0 min -3,5 C 0,0 km/h (0 Bft)
27.02.2016 22:41 -2,2 C -2,5 C 91 % 1005,1 hPa 0,0 mm 0,0 km/h (0 Bft) NW 315 0 min -3,5 C 0,0 km/h (0 Bft)
27.02.2016 22:42 -2,5 C -2,7 C 91 % 1005,1 hPa 0,0 mm 0,0 km/h (0 Bft) SW 225 0 min -3,8 C 0,0 km/h (0 Bft)
27.02.2016 22:43 -2,5 C -2,7 C 91 % 1005,1 hPa 0,0 mm 0,0 km/h (0 Bft) SW 225 0 min -3,8 C 0,0 km/h (0 Bft)
27.02.2016 22:44 -2,8 C -2,9 C 91 % 1005,1 hPa 0,0 mm 0,0 km/h (0 Bft) SO 135 0 min -4,1 C 0,0 km/h (0 Bft)
27.02.2016 22:45 -2,8 C -2,9 C 91 % 1005,1 hPa 0,0 mm 0,0 km/h (0 Bft) SO 135 0 min -4,1 C 0,0 km/h (0 Bft)
27.02.2016 22:46 -2,9 C -2,9 C 91 % 1005,1 hPa 0,0 mm 0,0 km/h (0 Bft) S-SO 157 0 min -4,2 C 0,0 km/h (0 Bft)
27.02.2016 22:47 -2,9 C -2,9 C 91 % 1005,1 hPa 0,0 mm 0,0 km/h (0 Bft) S-SO 157 0 min -4,2 C 0,0 km/h (0 Bft)
27.02.2016 22:48 -2,9 C -2,9 C 91 % 1004,9 hPa 0,0 mm 0,0 km/h (0 Bft) S 180 0 min -4,2 C 0,0 km/h (0 Bft)
27.02.2016 22:49 -2,9 C -2,9 C 91 % 1004,9 hPa 0,0 mm 0,0 km/h (0 Bft) S 180 0 min -4,2 C 0,0 km/h (0 Bft)
27.02.2016 22:50 -2,8 C -2,9 C 91 % 1004,9 hPa 0,0 mm 0,0 km/h (0 Bft) W 270 0 min -4,1 C 0,0 km/h (0 Bft)
27.02.2016 22:51 -2,8 C -2,9 C 91 % 1004,9 hPa 0,0 mm 0,0 km/h (0 Bft) W 270 0 min -4,1 C 0,0 km/h (0 Bft)
27.02.2016 22:52 -2,7 C -2,8 C 91 % 1004,9 hPa 0,0 mm 0,0 km/h (0 Bft) NW 315 0 min -4,0 C 0,0 km/h (0 Bft)
27.02.2016 22:53 -2,7 C -2,8 C 91 % 1004,9 hPa 0,0 mm 0,0 km/h (0 Bft) NW 315 0 min -4,0 C 0,0 km/h (0 Bft)
27.02.2016 22:54 -2,8 C -2,9 C 91 % 1004,9 hPa 0,0 mm 0,0 km/h (0 Bft) W 270 0 min -4,1 C 0,0 km/h (0 Bft)
27.02.2016 22:55 -2,8 C -2,9 C 91 % 1004,9 hPa 0,0 mm 0,0 km/h (0 Bft) W 270 0 min -4,1 C 0,0 km/h (0 Bft)
27.02.2016 22:57 -2,9 C -3,0 C 91 % 1004,9 hPa 0,0 mm 0,0 km/h (0 Bft) W 270 0 min -4,2 C 0,0 km/h (0 Bft)
27.02.2016 22:58 -2,9 C -3,0 C 91 % 1004,9 hPa 0,0 mm 0,0 km/h (0 Bft) W-SW 247 0 min -4,2 C 0,0 km/h (0 Bft)
27.02.2016 22:59 -2,9 C -3,0 C 91 % 1004,9 hPa 0,0 mm 0,0 km/h (0 Bft) W-SW 247 0 min -4,2 C 0,0 km/h (0 Bft)
27.02.2016 23:00 -2,9 C -3,0 C 91 % 1004,9 hPa 0,0 mm 0,0 km/h (0 Bft) W-SW 247 0 min -4,2 C 0,0 km/h (0 Bft)
27.02.2016 23:01 -2,9 C -3,0 C 91 % 1004,9 hPa 0,0 mm 0,0 km/h (0 Bft) W-SW 247 0 min -4,2 C 0,0 km/h (0 Bft)
27.02.2016 23:03 -3,1 C -3,2 C 91 % 1004,9 hPa 0,0 mm 0,0 km/h (0 Bft) S 180 0 min -4,4 C 0,0 km/h (0 Bft)
27.02.2016 23:04 -2,9 C -3,1 C 91 % 1004,9 hPa 0,0 mm 0,0 km/h (0 Bft) S 180 0 min -4,2 C 0,0 km/h (0 Bft)
27.02.2016 23:05 -2,9 C -3,1 C 91 % 1004,9 hPa 0,0 mm 0,0 km/h (0 Bft) S 180 0 min -4,2 C 0,0 km/h (0 Bft)
27.02.2016 23:06 -2,9 C -3,1 C 91 % 1004,9 hPa 0,0 mm 0,0 km/h (0 Bft) S 180 0 min -4,2 C 0,0 km/h (0 Bft)
27.02.2016 23:07 -2,9 C -3,1 C 91 % 1004,9 hPa 0,0 mm 0,0 km/h (0 Bft) S 180 0 min -4,2 C 0,0 km/h (0 Bft)
27.02.2016 23:08 -2,8 C -3,0 C 91 % 1005,0 hPa 0,0 mm 0,0 km/h (0 Bft) S-SO 157 0 min -4,1 C 0,0 km/h (0 Bft)
27.02.2016 23:09 -2,8 C -3,0 C 91 % 1005,0 hPa 0,0 mm 0,0 km/h (0 Bft) S-SO 157 0 min -4,1 C 0,0 km/h (0 Bft)
27.02.2016 23:10 -2,4 C -2,7 C 91 % 1005,0 hPa 0,0 mm 0,0 km/h (0 Bft) SO 135 0 min -3,7 C 0,0 km/h (0 Bft)
27.02.2016 23:11 -2,4 C -2,7 C 91 % 1005,0 hPa 0,0 mm 0,0 km/h (0 Bft) SO 135 0 min -3,7 C 0,0 km/h (0 Bft)
27.02.2016 23:12 -2,5 C -2,7 C 91 % 1005,0 hPa 0,0 mm 0,0 km/h (0 Bft) W-SW 247 0 min -3,8 C 0,0 km/h (0 Bft)
27.02.2016 23:13 -2,5 C -2,7 C 91 % 1005,0 hPa 0,0 mm 0,0 km/h (0 Bft) W-SW 247 0 min -3,8 C 0,0 km/h (0 Bft)
27.02.2016 23:14 -2,4 C -2,6 C 91 % 1005,0 hPa 0,0 mm 0,0 km/h (0 Bft) S 180 0 min -3,7 C 4,2 km/h (1 Bft)
27.02.2016 23:15 -2,4 C -2,6 C 91 % 1005,0 hPa 0,0 mm 0,0 km/h (0 Bft) S 180 0 min -3,7 C 4,2 km/h (1 Bft)
27.02.2016 23:16 -2,0 C -2,3 C 91 % 1005,0 hPa 0,0 mm 0,6 km/h (0 Bft) W 270 0 min -3,3 C 3,6 km/h (1 Bft)
27.02.2016 23:17 -2,0 C -2,3 C 91 % 1005,0 hPa 0,0 mm 0,6 km/h (0 Bft) W 270 0 min -3,3 C 3,6 km/h (1 Bft)
27.02.2016 23:18 -2,0 C -2,3 C 91 % 1005,0 hPa 0,0 mm 0,6 km/h (0 Bft) NW 315 0 min -3,3 C 4,5 km/h (1 Bft)
27.02.2016 23:19 -2,0 C -2,3 C 91 % 1005,0 hPa 0,0 mm 0,6 km/h (0 Bft) NW 315 0 min -3,3 C 4,5 km/h (1 Bft)
27.02.2016 23:20 -2,6 C -2,7 C 91 % 1005,0 hPa 0,0 mm 0,6 km/h (0 Bft) W 270 0 min -3,9 C 0,0 km/h (0 Bft)
27.02.2016 23:21 -2,6 C -2,7 C 91 % 1005,0 hPa 0,0 mm 0,6 km/h (0 Bft) W 270 0 min -3,9 C 0,0 km/h (0 Bft)
27.02.2016 23:22 -2,9 C -3,0 C 91 % 1005,0 hPa 0,0 mm 0,6 km/h (0 Bft) W-SW 247 0 min -4,2 C 0,0 km/h (0 Bft)
27.02.2016 23:23 -2,9 C -3,0 C 91 % 1005,0 hPa 0,0 mm 0,6 km/h (0 Bft) W-SW 247 0 min -4,2 C 0,0 km/h (0 Bft)
27.02.2016 23:24 -2,9 C -3,0 C 91 % 1005,0 hPa 0,0 mm 0,6 km/h (0 Bft) W-SW 247 0 min -4,2 C 0,0 km/h (0 Bft)
27.02.2016 23:25 -2,9 C -3,0 C 91 % 1005,0 hPa 0,0 mm 0,6 km/h (0 Bft) W-SW 247 0 min -4,2 C 0,0 km/h (0 Bft)
27.02.2016 23:26 -2,8 C -3,0 C 91 % 1005,0 hPa 0,0 mm 0,3 km/h (0 Bft) SW 225 0 min -4,1 C 0,0 km/h (0 Bft)
27.02.2016 23:27 -2,8 C -3,0 C 91 % 1005,0 hPa 0,0 mm 0,3 km/h (0 Bft) SW 225 0 min -4,1 C 0,0 km/h (0 Bft)
27.02.2016 23:28 -2,3 C -2,7 C 91 % 1005,0 hPa 0,0 mm 0,3 km/h (0 Bft) SO 135 0 min -3,6 C 0,0 km/h (0 Bft)
27.02.2016 23:29 -2,3 C -2,7 C 91 % 1004,8 hPa 0,0 mm 0,3 km/h (0 Bft) SO 135 0 min -3,6 C 0,0 km/h (0 Bft)
27.02.2016 23:30 -2,1 C -2,5 C 91 % 1004,8 hPa 0,0 mm 0,0 km/h (0 Bft) S 180 0 min -3,4 C 0,0 km/h (0 Bft)
27.02.2016 23:31 -2,1 C -2,5 C 91 % 1004,8 hPa 0,0 mm 0,0 km/h (0 Bft) S 180 0 min -3,4 C 0,0 km/h (0 Bft)
27.02.2016 23:32 -2,0 C -2,4 C 91 % 1004,8 hPa 0,0 mm 0,0 km/h (0 Bft) O-SO 112 0 min -3,3 C 0,0 km/h (0 Bft)
27.02.2016 23:33 -2,0 C -2,4 C 91 % 1004,8 hPa 0,0 mm 0,0 km/h (0 Bft) O-SO 112 0 min -3,3 C 0,0 km/h (0 Bft)
27.02.2016 23:34 -2,3 C -2,5 C 91 % 1004,8 hPa 0,0 mm 0,0 km/h (0 Bft) W-SW 247 0 min -3,6 C 0,0 km/h (0 Bft)
27.02.2016 23:35 -2,3 C -2,5 C 91 % 1004,8 hPa 0,0 mm 0,0 km/h (0 Bft) W-SW 247 0 min -3,6 C 0,0 km/h (0 Bft)
27.02.2016 23:36 -2,8 C -2,9 C 91 % 1004,8 hPa 0,0 mm 0,0 km/h (0 Bft) NO 45 0 min -4,1 C 0,0 km/h (0 Bft)
27.02.2016 23:37 -2,8 C -2,9 C 91 % 1004,8 hPa 0,0 mm 0,0 km/h (0 Bft) NO 45 0 min -4,1 C 0,0 km/h (0 Bft)
27.02.2016 23:38 -3,0 C -3,1 C 91 % 1004,8 hPa 0,0 mm 0,0 km/h (0 Bft) O-NO 67 0 min -4,3 C 0,0 km/h (0 Bft)
27.02.2016 23:39 -3,0 C -3,1 C 91 % 1004,8 hPa 0,0 mm 0,0 km/h (0 Bft) O-NO 67 0 min -4,3 C 0,0 km/h (0 Bft)
27.02.2016 23:40 -3,2 C -3,2 C 91 % 1004,8 hPa 0,0 mm 0,0 km/h (0 Bft) NW 315 0 min -4,5 C 0,0 km/h (0 Bft)
27.02.2016 23:41 -3,2 C -3,2 C 91 % 1004,8 hPa 0,0 mm 0,0 km/h (0 Bft) NW 315 0 min -4,5 C 0,0 km/h (0 Bft)
27.02.2016 23:42 -2,9 C -3,1 C 91 % 1004,8 hPa 0,0 mm 0,0 km/h (0 Bft) SW 225 0 min -4,2 C 0,0 km/h (0 Bft)
27.02.2016 23:43 -2,9 C -3,1 C 91 % 1004,8 hPa 0,0 mm 0,0 km/h (0 Bft) SW 225 0 min -4,2 C 0,0 km/h (0 Bft)
27.02.2016 23:44 -2,6 C -2,9 C 91 % 1004,8 hPa 0,0 mm 0,0 km/h (0 Bft) S-SO 157 0 min -3,9 C 0,0 km/h (0 Bft)
27.02.2016 23:45 -2,6 C -2,9 C 91 % 1004,8 hPa 0,0 mm 0,0 km/h (0 Bft) S-SO 157 0 min -3,9 C 0,0 km/h (0 Bft)
27.02.2016 23:46 -2,5 C -2,8 C 91 % 1004,8 hPa 0,0 mm 0,0 km/h (0 Bft) SW 225 0 min -3,8 C 0,0 km/h (0 Bft)
27.02.2016 23:47 -2,5 C -2,8 C 91 % 1004,8 hPa 0,0 mm 0,0 km/h (0 Bft) SW 225 0 min -3,8 C 0,0 km/h (0 Bft)
27.02.2016 23:48 -2,6 C -2,8 C 91 % 1004,8 hPa 0,0 mm 0,0 km/h (0 Bft) NO 45 0 min -3,9 C 0,0 km/h (0 Bft)
27.02.2016 23:49 -2,6 C -2,8 C 91 % 1004,7 hPa 0,0 mm 0,0 km/h (0 Bft) NO 45 0 min -3,9 C 0,0 km/h (0 Bft)
27.02.2016 23:50 -2,7 C -2,9 C 91 % 1004,7 hPa 0,0 mm 0,0 km/h (0 Bft) W 270 0 min -4,0 C 0,0 km/h (0 Bft)
27.02.2016 23:51 -2,7 C -2,9 C 91 % 1004,7 hPa 0,0 mm 0,0 km/h (0 Bft) W 270 0 min -4,0 C 0,0 km/h (0 Bft)
27.02.2016 23:52 -2,7 C -2,9 C 91 % 1004,7 hPa 0,0 mm 0,0 km/h (0 Bft) N-NW 337 0 min -4,0 C 0,0 km/h (0 Bft)
27.02.2016 23:53 -2,7 C -2,9 C 91 % 1004,7 hPa 0,0 mm 0,0 km/h (0 Bft) N-NW 337 0 min -4,0 C 0,0 km/h (0 Bft)
27.02.2016 23:54 -2,9 C -3,1 C 91 % 1004,7 hPa 0,0 mm 0,0 km/h (0 Bft) N 360 0 min -4,2 C 0,0 km/h (0 Bft)
27.02.2016 23:55 -2,9 C -3,1 C 91 % 1004,7 hPa 0,0 mm 0,0 km/h (0 Bft) N 360 0 min -4,2 C 0,0 km/h (0 Bft)
27.02.2016 23:56 -2,9 C -3,1 C 91 % 1004,7 hPa 0,0 mm 0,0 km/h (0 Bft) W-SW 247 0 min -4,2 C 0,0 km/h (0 Bft)
27.02.2016 23:57 -2,9 C -3,1 C 91 % 1004,7 hPa 0,0 mm 0,0 km/h (0 Bft) W-SW 247 0 min -4,2 C 0,0 km/h (0 Bft)
27.02.2016 23:58 -2,8 C -3,0 C 91 % 1004,7 hPa 0,0 mm 0,0 km/h (0 Bft) W 270 0 min -4,1 C 0,0 km/h (0 Bft)
27.02.2016 23:59 -2,8 C -3,0 C 91 % 1004,7 hPa 0,0 mm 0,0 km/h (0 Bft) W 270 0 min -4,1 C 0,0 km/h (0 Bft)
_ Min-Zeit 02:39 02:39 15:13 06:48 - 23:59 - - - 02:39 23:59
Minimum _ -8,8 C -9,0 C 70 % 1002,9 hPa - 0,0 km/h (0 Bft) - - - -10,7 C 0,0 km/h (0 Bft)
_ Max-Zeit 15:05 15:45 21:27 14:28 13:34 14:09 - - 13:54 15:05 14:56
Maximum _ 6,7 C 12,5 C 93 % 1005,7 hPa 0,7 mm 9,8 km/h
NO (2 Bft)
- - 5 min 1,8 C 16,4 km/h
NO (3 Bft)
Durchschnitt _ -1,9 C -0,2 C 84 % 1004,4 hPa #2,7 mm 0,9 km/h (0 Bft) NO - #4:46 h -4,3 C 1,2 km/h (1 Bft)